Wetterdaten: Donnerstag, 11.02.2016
Datum Zeit Temp. A. Feuchte A. Luftdruck Regen Wind Richtung Richtung Sonnenschein ET UV Solar Taupunkt Windchill Windben Empfang
11.02.2016 00:00 1,9 C 86 % 1002,3 hPa 0,0 l/m 21,0 km/h (4 Bft) SW 236 0 min 0,000 mm 0,0 UV-I 0 W/m -0,2 C -7,6 C 35,4 km/h (5 Bft) 100,00 %
11.02.2016 00:01 1,9 C 86 % 1002,3 hPa 0,0 l/m 21,7 km/h (4 Bft) W-SW 246 0 min 0,000 mm 0,0 UV-I 0 W/m -0,2 C -7,9 C 29,0 km/h (5 Bft) 100,00 %
11.02.2016 00:02 1,9 C 86 % 1002,3 hPa 0,0 l/m 22,5 km/h (4 Bft) W-SW 257 0 min 0,000 mm 0,0 UV-I 0 W/m -0,2 C -8,2 C 37,0 km/h (5 Bft) 100,00 %
11.02.2016 00:03 1,9 C 85 % 1002,3 hPa 0,0 l/m 22,7 km/h (4 Bft) W 260 0 min 0,000 mm 0,0 UV-I 0 W/m -0,3 C -8,3 C 30,6 km/h (5 Bft) 100,00 %
11.02.2016 00:04 1,9 C 85 % 1002,3 hPa 0,0 l/m 22,1 km/h (4 Bft) SW 233 0 min 0,000 mm 0,0 UV-I 0 W/m -0,3 C -8,1 C 27,4 km/h (4 Bft) 100,00 %
11.02.2016 00:05 2,0 C 85 % 1002,3 hPa 0,0 l/m 20,4 km/h (4 Bft) W-SW 250 0 min 0,000 mm 0,0 UV-I 0 W/m -0,3 C -7,2 C 27,4 km/h (4 Bft) 96,15 %
11.02.2016 00:06 1,9 C 85 % 1002,3 hPa 0,0 l/m 22,5 km/h (4 Bft) W 278 0 min 0,000 mm 0,0 UV-I 0 W/m -0,3 C -8,2 C 35,4 km/h (5 Bft) 100,00 %
11.02.2016 00:07 2,0 C 85 % 1002,3 hPa 0,0 l/m 22,3 km/h (4 Bft) SW 229 0 min 0,000 mm 0,0 UV-I 0 W/m -0,3 C -8,0 C 30,6 km/h (5 Bft) 100,00 %
11.02.2016 00:08 2,0 C 85 % 1002,2 hPa 0,0 l/m 22,0 km/h (4 Bft) SW 236 0 min 0,000 mm 0,0 UV-I 0 W/m -0,3 C -7,9 C 32,2 km/h (5 Bft) 96,30 %
11.02.2016 00:09 2,0 C 85 % 1002,3 hPa 0,0 l/m 21,7 km/h (4 Bft) W-SW 240 0 min 0,000 mm 0,0 UV-I 0 W/m -0,3 C -7,8 C 29,0 km/h (5 Bft) 100,00 %
11.02.2016 00:10 2,0 C 84 % 1002,3 hPa 0,0 l/m 23,4 km/h (4 Bft) W-SW 241 0 min 0,000 mm 0,0 UV-I 0 W/m -0,4 C -8,4 C 29,0 km/h (5 Bft) 96,30 %
11.02.2016 00:11 2,1 C 84 % 1002,3 hPa 0,0 l/m 21,6 km/h (4 Bft) W 259 0 min 0,000 mm 0,0 UV-I 0 W/m -0,3 C -7,6 C 32,2 km/h (5 Bft) 96,15 %
11.02.2016 00:12 2,1 C 84 % 1002,3 hPa 0,0 l/m 21,1 km/h (4 Bft) SW 232 0 min 0,000 mm 0,0 UV-I 0 W/m -0,3 C -7,4 C 33,8 km/h (5 Bft) 100,00 %
11.02.2016 00:13 2,1 C 84 % 1002,3 hPa 0,0 l/m 23,5 km/h (4 Bft) W-SW 238 0 min 0,000 mm 0,0 UV-I 0 W/m -0,3 C -8,3 C 35,4 km/h (5 Bft) 93,75 %
11.02.2016 00:14 2,1 C 84 % 1002,3 hPa 0,0 l/m 17,9 km/h (3 Bft) W-SW 245 0 min 0,000 mm 0,0 UV-I 0 W/m -0,3 C -6,0 C 24,1 km/h (4 Bft) 100,00 %
11.02.2016 00:15 2,1 C 84 % 1002,3 hPa 0,0 l/m 20,0 km/h (4 Bft) S-SW 212 0 min 0,000 mm 0,0 UV-I 0 W/m -0,3 C -6,9 C 25,7 km/h (4 Bft) 100,00 %
11.02.2016 00:16 2,1 C 84 % 1002,3 hPa 0,0 l/m 19,9 km/h (4 Bft) W-SW 246 0 min 0,000 mm 0,0 UV-I 0 W/m -0,3 C -6,9 C 27,4 km/h (4 Bft) 100,00 %
11.02.2016 00:17 2,1 C 83 % 1002,3 hPa 0,0 l/m 21,6 km/h (4 Bft) W-SW 238 0 min 0,000 mm 0,0 UV-I 0 W/m -0,5 C -7,6 C 30,6 km/h (5 Bft) 100,00 %
11.02.2016 00:18 2,2 C 83 % 1002,2 hPa 0,0 l/m 20,4 km/h (4 Bft) SW 222 0 min 0,000 mm 0,0 UV-I 0 W/m -0,4 C -7,0 C 25,7 km/h (4 Bft) 100,00 %
11.02.2016 00:19 2,2 C 83 % 1002,2 hPa 0,0 l/m 24,5 km/h (4 Bft) W 265 0 min 0,000 mm 0,0 UV-I 0 W/m -0,4 C -8,6 C 30,6 km/h (5 Bft) 96,15 %
11.02.2016 00:20 2,2 C 83 % 1002,3 hPa 0,0 l/m 21,9 km/h (4 Bft) W-SW 252 0 min 0,000 mm 0,0 UV-I 0 W/m -0,4 C -7,6 C 32,2 km/h (5 Bft) 100,00 %
11.02.2016 00:21 2,2 C 82 % 1002,3 hPa 0,0 l/m 25,8 km/h (4 Bft) S-SO 158 0 min 0,000 mm 0,0 UV-I 0 W/m -0,5 C -9,0 C 33,8 km/h (5 Bft) 100,00 %
11.02.2016 00:22 2,2 C 82 % 1002,4 hPa 0,0 l/m 21,1 km/h (4 Bft) SW 225 0 min 0,000 mm 0,0 UV-I 0 W/m -0,5 C -7,3 C 32,2 km/h (5 Bft) 93,33 %
11.02.2016 00:25 2,3 C 82 % 1002,3 hPa 0,0 l/m 23,1 km/h (4 Bft) W-SW 237 0 min 0,000 mm 0,0 UV-I 0 W/m -0,4 C -7,9 C 29,0 km/h (5 Bft) 98,70 %
11.02.2016 00:26 2,3 C 81 % 1002,4 hPa 0,0 l/m 25,3 km/h (4 Bft) W-SW 241 0 min 0,000 mm 0,0 UV-I 0 W/m -0,6 C -8,7 C 30,6 km/h (5 Bft) 100,00 %
11.02.2016 00:27 2,3 C 81 % 1002,3 hPa 0,0 l/m 19,6 km/h (3 Bft) SW 221 0 min 0,000 mm 0,0 UV-I 0 W/m -0,6 C -6,5 C 29,0 km/h (5 Bft) 100,00 %
11.02.2016 00:28 2,3 C 81 % 1002,4 hPa 0,0 l/m 23,9 km/h (4 Bft) S-SW 213 0 min 0,000 mm 0,0 UV-I 0 W/m -0,6 C -8,2 C 30,6 km/h (5 Bft) 95,65 %
11.02.2016 00:29 2,3 C 81 % 1002,4 hPa 0,0 l/m 22,3 km/h (4 Bft) W-SW 244 0 min 0,000 mm 0,0 UV-I 0 W/m -0,6 C -7,6 C 29,0 km/h (5 Bft) 100,00 %
11.02.2016 00:30 2,3 C 81 % 1002,4 hPa 0,0 l/m 19,2 km/h (3 Bft) SW 232 0 min 0,000 mm 0,0 UV-I 0 W/m -0,6 C -6,3 C 25,7 km/h (4 Bft) 100,00 %
11.02.2016 00:31 2,3 C 81 % 1002,4 hPa 0,0 l/m 19,9 km/h (4 Bft) SW 221 0 min 0,000 mm 0,0 UV-I 0 W/m -0,6 C -6,6 C 32,2 km/h (5 Bft) 100,00 %
11.02.2016 00:32 2,4 C 81 % 1002,3 hPa 0,0 l/m 27,0 km/h (4 Bft) W-SW 256 0 min 0,000 mm 0,0 UV-I 0 W/m -0,5 C -9,1 C 35,4 km/h (5 Bft) 96,15 %
11.02.2016 00:33 2,4 C 80 % 1002,3 hPa 0,0 l/m 27,3 km/h (4 Bft) SW 234 0 min 0,000 mm 0,0 UV-I 0 W/m -0,7 C -9,2 C 40,2 km/h (6 Bft) 100,00 %
11.02.2016 00:34 2,4 C 80 % 1002,4 hPa 0,0 l/m 24,2 km/h (4 Bft) W-SW 246 0 min 0,000 mm 0,0 UV-I 0 W/m -0,7 C -8,2 C 27,4 km/h (4 Bft) 100,00 %
11.02.2016 00:35 2,4 C 80 % 1002,4 hPa 0,0 l/m 20,6 km/h (4 Bft) W-SW 251 0 min 0,000 mm 0,0 UV-I 0 W/m -0,7 C -6,8 C 27,4 km/h (4 Bft) 96,30 %
11.02.2016 00:36 2,4 C 80 % 1002,5 hPa 0,0 l/m 24,4 km/h (4 Bft) W-SW 246 0 min 0,000 mm 0,0 UV-I 0 W/m -0,7 C -8,3 C 35,4 km/h (5 Bft) 100,00 %
11.02.2016 00:37 2,5 C 80 % 1002,4 hPa 0,0 l/m 26,6 km/h (4 Bft) SW 225 0 min 0,000 mm 0,0 UV-I 0 W/m -0,6 C -8,9 C 38,6 km/h (5 Bft) 93,33 %
11.02.2016 00:38 2,5 C 80 % 1002,4 hPa 0,0 l/m 25,7 km/h (4 Bft) W-SW 237 0 min 0,000 mm 0,0 UV-I 0 W/m -0,6 C -8,6 C 37,0 km/h (5 Bft) 98,39 %
11.02.2016 00:39 2,5 C 79 % 1002,5 hPa 0,0 l/m 20,1 km/h (4 Bft) W-SW 248 0 min 0,000 mm 0,0 UV-I 0 W/m -0,8 C -6,4 C 27,4 km/h (4 Bft) 97,56 %
11.02.2016 00:40 2,5 C 80 % 1002,5 hPa 0,0 l/m 18,3 km/h (3 Bft) W-SW 257 0 min 0,000 mm 0,0 UV-I 0 W/m -0,6 C -5,6 C 25,7 km/h (4 Bft) 91,67 %
11.02.2016 00:41 2,5 C 80 % 1002,5 hPa 0,0 l/m 20,4 km/h (4 Bft) W-SW 244 0 min 0,000 mm 0,0 UV-I 0 W/m -0,6 C -6,6 C 29,0 km/h (5 Bft) 100,00 %
11.02.2016 00:42 2,5 C 80 % 1002,5 hPa 0,0 l/m 18,6 km/h (3 Bft) SW 232 0 min 0,000 mm 0,0 UV-I 0 W/m -0,6 C -5,8 C 27,4 km/h (4 Bft) 91,67 %
11.02.2016 00:43 2,5 C 80 % 1002,5 hPa 0,0 l/m 23,6 km/h (4 Bft) W 261 0 min 0,000 mm 0,0 UV-I 0 W/m -0,6 C -7,8 C 37,0 km/h (5 Bft) 100,00 %
11.02.2016 00:44 2,6 C 79 % 1002,5 hPa 0,0 l/m 18,6 km/h (3 Bft) W 259 0 min 0,000 mm 0,0 UV-I 0 W/m -0,7 C -5,7 C 24,1 km/h (4 Bft) 91,67 %
11.02.2016 00:45 2,6 C 79 % 1002,5 hPa 0,0 l/m 23,1 km/h (4 Bft) SW 214 0 min 0,000 mm 0,0 UV-I 0 W/m -0,7 C -7,5 C 30,6 km/h (5 Bft) 96,88 %
11.02.2016 00:46 2,6 C 79 % 1002,5 hPa 0,0 l/m 26,1 km/h (4 Bft) W-SW 240 0 min 0,000 mm 0,0 UV-I 0 W/m -0,7 C -8,6 C 35,4 km/h (5 Bft) 96,30 %
11.02.2016 00:47 2,6 C 79 % 1002,5 hPa 0,0 l/m 19,2 km/h (3 Bft) W-SW 238 0 min 0,000 mm 0,0 UV-I 0 W/m -0,7 C -5,9 C 27,4 km/h (4 Bft) 92,86 %
11.02.2016 00:48 2,6 C 79 % 1002,6 hPa 0,0 l/m 20,8 km/h (4 Bft) SW 226 0 min 0,000 mm 0,0 UV-I 0 W/m -0,7 C -6,6 C 30,6 km/h (5 Bft) 96,30 %
11.02.2016 00:49 2,6 C 79 % 1002,5 hPa 0,0 l/m 20,2 km/h (4 Bft) W-SW 248 0 min 0,000 mm 0,0 UV-I 0 W/m -0,7 C -6,4 C 27,4 km/h (4 Bft) 96,55 %
11.02.2016 00:50 2,6 C 79 % 1002,6 hPa 0,0 l/m 20,4 km/h (4 Bft) W-SW 250 0 min 0,000 mm 0,0 UV-I 0 W/m -0,7 C -6,4 C 30,6 km/h (5 Bft) 100,00 %
11.02.2016 00:51 2,6 C 79 % 1002,5 hPa 0,0 l/m 19,5 km/h (3 Bft) W 265 0 min 0,000 mm 0,0 UV-I 0 W/m -0,7 C -6,1 C 29,0 km/h (5 Bft) 95,65 %
11.02.2016 00:52 2,6 C 79 % 1002,4 hPa 0,0 l/m 25,2 km/h (4 Bft) SW 223 0 min 0,000 mm 0,0 UV-I 0 W/m -0,7 C -8,3 C 37,0 km/h (5 Bft) 100,00 %
11.02.2016 00:53 2,6 C 78 % 1002,6 hPa 0,0 l/m 21,0 km/h (4 Bft) W-SW 248 0 min 0,000 mm 0,0 UV-I 0 W/m -0,8 C -6,7 C 27,4 km/h (4 Bft) 95,65 %
11.02.2016 00:54 2,7 C 78 % 1002,5 hPa 0,0 l/m 15,8 km/h (3 Bft) SW 222 0 min 0,000 mm 0,0 UV-I 0 W/m -0,7 C -4,1 C 24,1 km/h (4 Bft) 96,30 %
11.02.2016 00:55 2,6 C 78 % 1002,5 hPa 0,0 l/m 25,1 km/h (4 Bft) SW 220 0 min 0,000 mm 0,0 UV-I 0 W/m -0,8 C -8,2 C 38,6 km/h (5 Bft) 96,15 %
11.02.2016 00:56 2,7 C 78 % 1002,5 hPa 0,0 l/m 25,5 km/h (4 Bft) W 259 0 min 0,000 mm 0,0 UV-I 0 W/m -0,7 C -8,2 C 33,8 km/h (5 Bft) 95,83 %
11.02.2016 00:57 2,7 C 78 % 1002,5 hPa 0,0 l/m 24,5 km/h (4 Bft) SW 217 0 min 0,000 mm 0,0 UV-I 0 W/m -0,7 C -7,9 C 41,8 km/h (6 Bft) 97,72 %
11.02.2016 00:58 2,7 C 78 % 1002,5 hPa 0,0 l/m 22,8 km/h (4 Bft) W-NW 298 0 min 0,000 mm 0,0 UV-I 0 W/m -0,7 C -7,3 C 33,8 km/h (5 Bft) 94,74 %
11.02.2016 00:59 2,7 C 77 % 1002,6 hPa 0,0 l/m 27,4 km/h (4 Bft) SW 216 0 min 0,000 mm 0,0 UV-I 0 W/m -0,9 C -8,8 C 37,0 km/h (5 Bft) 100,00 %
11.02.2016 01:00 2,7 C 77 % 1002,6 hPa 0,0 l/m 23,4 km/h (4 Bft) S-SW 209 0 min 0,025 mm 0,0 UV-I 0 W/m -0,9 C -7,5 C 30,6 km/h (5 Bft) 96,30 %
11.02.2016 01:01 2,7 C 78 % 1002,5 hPa 0,0 l/m 22,4 km/h (4 Bft) W-SW 248 0 min 0,000 mm 0,0 UV-I 0 W/m -0,7 C -7,1 C 32,2 km/h (5 Bft) 100,00 %
11.02.2016 01:02 2,7 C 77 % 1002,5 hPa 0,0 l/m 23,5 km/h (4 Bft) W-SW 239 0 min 0,000 mm 0,0 UV-I 0 W/m -0,9 C -7,5 C 30,6 km/h (5 Bft) 96,15 %
11.02.2016 01:03 2,7 C 77 % 1002,6 hPa 0,0 l/m 18,2 km/h (3 Bft) W-SW 253 0 min 0,000 mm 0,0 UV-I 0 W/m -0,9 C -5,3 C 24,1 km/h (4 Bft) 100,00 %
11.02.2016 01:04 2,7 C 77 % 1002,6 hPa 0,0 l/m 25,1 km/h (4 Bft) W-SW 245 0 min 0,000 mm 0,0 UV-I 0 W/m -0,9 C -8,1 C 38,6 km/h (5 Bft) 95,65 %
11.02.2016 01:05 2,7 C 77 % 1002,7 hPa 0,0 l/m 22,3 km/h (4 Bft) SW 234 0 min 0,000 mm 0,0 UV-I 0 W/m -0,9 C -7,1 C 30,6 km/h (5 Bft) 95,83 %
11.02.2016 01:06 2,7 C 77 % 1002,5 hPa 0,0 l/m 25,7 km/h (4 Bft) SW 217 0 min 0,000 mm 0,0 UV-I 0 W/m -0,9 C -8,3 C 38,6 km/h (5 Bft) 100,00 %
11.02.2016 01:07 2,7 C 77 % 1002,5 hPa 0,0 l/m 29,2 km/h (5 Bft) W-SW 240 0 min 0,000 mm 0,0 UV-I 0 W/m -0,9 C -9,4 C 38,6 km/h (5 Bft) 95,83 %
11.02.2016 01:08 2,8 C 76 % 1002,5 hPa 0,0 l/m 27,4 km/h (4 Bft) W-SW 257 0 min 0,000 mm 0,0 UV-I 0 W/m -1,0 C -8,7 C 38,6 km/h (5 Bft) 96,15 %
11.02.2016 01:09 2,8 C 76 % 1002,5 hPa 0,0 l/m 27,5 km/h (4 Bft) W-SW 242 0 min 0,000 mm 0,0 UV-I 0 W/m -1,0 C -8,7 C 40,2 km/h (6 Bft) 91,67 %
11.02.2016 01:10 2,8 C 76 % 1002,7 hPa 0,0 l/m 24,7 km/h (4 Bft) W 264 0 min 0,000 mm 0,0 UV-I 0 W/m -1,0 C -7,8 C 32,2 km/h (5 Bft) 95,65 %
11.02.2016 01:11 2,8 C 76 % 1002,6 hPa 0,0 l/m 24,4 km/h (4 Bft) W-SW 239 0 min 0,000 mm 0,0 UV-I 0 W/m -1,0 C -7,7 C 30,6 km/h (5 Bft) 95,83 %
11.02.2016 01:12 2,8 C 76 % 1002,7 hPa 0,0 l/m 24,3 km/h (4 Bft) W-SW 249 0 min 0,000 mm 0,0 UV-I 0 W/m -1,0 C -7,7 C 35,4 km/h (5 Bft) 100,00 %
11.02.2016 01:13 2,8 C 76 % 1002,7 hPa 0,0 l/m 20,7 km/h (4 Bft) W 260 0 min 0,000 mm 0,0 UV-I 0 W/m -1,0 C -6,3 C 30,6 km/h (5 Bft) 100,00 %
11.02.2016 01:14 2,8 C 76 % 1002,7 hPa 0,0 l/m 21,6 km/h (4 Bft) W 261 0 min 0,000 mm 0,0 UV-I 0 W/m -1,0 C -6,7 C 29,0 km/h (5 Bft) 100,00 %
11.02.2016 01:15 2,8 C 76 % 1002,7 hPa 0,0 l/m 26,7 km/h (4 Bft) W-SW 242 0 min 0,000 mm 0,0 UV-I 0 W/m -1,0 C -8,5 C 38,6 km/h (5 Bft) 96,30 %
11.02.2016 01:16 2,8 C 76 % 1002,8 hPa 0,0 l/m 21,4 km/h (4 Bft) W-SW 248 0 min 0,000 mm 0,0 UV-I 0 W/m -1,0 C -6,6 C 30,6 km/h (5 Bft) 100,00 %
11.02.2016 01:17 2,8 C 76 % 1002,8 hPa 0,0 l/m 18,5 km/h (3 Bft) SW 235 0 min 0,000 mm 0,0 UV-I 0 W/m -1,0 C -5,4 C 24,1 km/h (4 Bft) 95,83 %
11.02.2016 01:18 2,8 C 76 % 1002,7 hPa 0,0 l/m 21,7 km/h (4 Bft) SW 234 0 min 0,000 mm 0,0 UV-I 0 W/m -1,0 C -6,7 C 33,8 km/h (5 Bft) 100,00 %
11.02.2016 01:19 2,8 C 76 % 1002,7 hPa 0,0 l/m 20,3 km/h (4 Bft) SW 236 0 min 0,000 mm 0,0 UV-I 0 W/m -1,0 C -6,1 C 27,4 km/h (4 Bft) 100,00 %
11.02.2016 01:20 2,8 C 76 % 1002,7 hPa 0,0 l/m 16,6 km/h (3 Bft) SW 236 0 min 0,000 mm 0,0 UV-I 0 W/m -1,0 C -4,4 C 24,1 km/h (4 Bft) 100,00 %
11.02.2016 01:21 2,8 C 76 % 1002,7 hPa 0,0 l/m 23,4 km/h (4 Bft) SW 225 0 min 0,000 mm 0,0 UV-I 0 W/m -1,0 C -7,4 C 33,8 km/h (5 Bft) 100,00 %
11.02.2016 01:22 2,8 C 76 % 1002,7 hPa 0,0 l/m 23,7 km/h (4 Bft) W 264 0 min 0,000 mm 0,0 UV-I 0 W/m -1,0 C -7,5 C 30,6 km/h (5 Bft) 95,83 %
11.02.2016 01:23 2,8 C 76 % 1002,7 hPa 0,0 l/m 25,1 km/h (4 Bft) W 263 0 min 0,000 mm 0,0 UV-I 0 W/m -1,0 C -8,0 C 37,0 km/h (5 Bft) 91,30 %
11.02.2016 01:24 2,8 C 76 % 1002,7 hPa 0,0 l/m 22,9 km/h (4 Bft) W 268 0 min 0,000 mm 0,0 UV-I 0 W/m -1,0 C -7,2 C 32,2 km/h (5 Bft) 100,00 %
11.02.2016 01:25 2,8 C 76 % 1002,7 hPa 0,0 l/m 26,1 km/h (4 Bft) S-SW 207 0 min 0,000 mm 0,0 UV-I 0 W/m -1,0 C -8,3 C 33,8 km/h (5 Bft) 100,00 %
11.02.2016 01:26 2,8 C 76 % 1002,8 hPa 0,0 l/m 24,0 km/h (4 Bft) W-SW 244 0 min 0,000 mm 0,0 UV-I 0 W/m -1,0 C -7,6 C 33,8 km/h (5 Bft) 100,00 %
11.02.2016 01:27 2,8 C 76 % 1002,8 hPa 0,0 l/m 22,4 km/h (4 Bft) SW 236 0 min 0,000 mm 0,0 UV-I 0 W/m -1,0 C -7,0 C 29,0 km/h (5 Bft) 100,00 %
11.02.2016 01:28 2,8 C 76 % 1002,8 hPa 0,0 l/m 19,3 km/h (3 Bft) W-SW 244 0 min 0,000 mm 0,0 UV-I 0 W/m -1,0 C -5,7 C 30,6 km/h (5 Bft) 100,00 %
11.02.2016 01:29 2,8 C 75 % 1002,9 hPa 0,0 l/m 24,9 km/h (4 Bft) SW 231 0 min 0,000 mm 0,0 UV-I 0 W/m -1,2 C -7,9 C 33,8 km/h (5 Bft) 95,65 %
11.02.2016 01:30 2,8 C 75 % 1002,8 hPa 0,0 l/m 22,1 km/h (4 Bft) W-SW 252 0 min 0,000 mm 0,0 UV-I 0 W/m -1,2 C -6,9 C 30,6 km/h (5 Bft) 100,00 %
11.02.2016 01:31 2,8 C 75 % 1002,8 hPa 0,0 l/m 25,3 km/h (4 Bft) W-SW 248 0 min 0,000 mm 0,0 UV-I 0 W/m -1,2 C -8,0 C 38,6 km/h (5 Bft) 100,00 %
11.02.2016 01:32 2,9 C 75 % 1002,8 hPa 0,0 l/m 31,4 km/h (5 Bft) W-SW 238 0 min 0,000 mm 0,0 UV-I 0 W/m -1,1 C -9,7 C 41,8 km/h (6 Bft) 95,83 %
11.02.2016 01:33 2,9 C 75 % 1002,8 hPa 0,0 l/m 20,9 km/h (4 Bft) W-SW 241 0 min 0,000 mm 0,0 UV-I 0 W/m -1,1 C -6,3 C 35,4 km/h (5 Bft) 100,00 %
11.02.2016 01:34 2,9 C 75 % 1002,9 hPa 0,0 l/m 18,8 km/h (3 Bft) SW 217 0 min 0,000 mm 0,0 UV-I 0 W/m -1,1 C -5,4 C 24,1 km/h (4 Bft) 95,83 %
11.02.2016 01:35 2,8 C 75 % 1002,9 hPa 0,0 l/m 25,3 km/h (4 Bft) SW 224 0 min 0,000 mm 0,0 UV-I 0 W/m -1,2 C -8,0 C 37,0 km/h (5 Bft) 100,00 %
11.02.2016 01:36 2,9 C 75 % 1002,8 hPa 0,0 l/m 22,6 km/h (4 Bft) W-SW 244 0 min 0,000 mm 0,0 UV-I 0 W/m -1,1 C -6,9 C 35,4 km/h (5 Bft) 100,00 %
11.02.2016 01:37 2,9 C 75 % 1002,9 hPa 0,0 l/m 18,4 km/h (3 Bft) W-SW 237 0 min 0,000 mm 0,0 UV-I 0 W/m -1,1 C -5,2 C 27,4 km/h (4 Bft) 100,00 %
11.02.2016 01:38 2,9 C 75 % 1002,8 hPa 0,0 l/m 17,9 km/h (3 Bft) SW 229 0 min 0,000 mm 0,0 UV-I 0 W/m -1,1 C -4,9 C 27,4 km/h (4 Bft) 100,00 %
11.02.2016 01:39 2,8 C 75 % 1002,9 hPa 0,0 l/m 25,7 km/h (4 Bft) W-SW 254 0 min 0,000 mm 0,0 UV-I 0 W/m -1,2 C -8,2 C 37,0 km/h (5 Bft) 100,00 %
11.02.2016 01:40 2,8 C 75 % 1002,8 hPa 0,0 l/m 21,1 km/h (4 Bft) SW 229 0 min 0,000 mm 0,0 UV-I 0 W/m -1,2 C -6,5 C 30,6 km/h (5 Bft) 95,83 %
11.02.2016 01:41 2,8 C 75 % 1002,8 hPa 0,0 l/m 23,7 km/h (4 Bft) SW 232 0 min 0,000 mm 0,0 UV-I 0 W/m -1,2 C -7,5 C 29,0 km/h (5 Bft) 100,00 %
11.02.2016 01:42 2,8 C 74 % 1002,9 hPa 0,0 l/m 27,4 km/h (4 Bft) W-SW 247 0 min 0,000 mm 0,0 UV-I 0 W/m -1,4 C -8,7 C 37,0 km/h (5 Bft) 100,00 %
11.02.2016 01:43 2,9 C 75 % 1002,9 hPa 0,0 l/m 23,0 km/h (4 Bft) SW 234 0 min 0,000 mm 0,0 UV-I 0 W/m -1,1 C -7,1 C 30,6 km/h (5 Bft) 96,15 %
11.02.2016 01:44 2,9 C 75 % 1003,0 hPa 0,0 l/m 17,5 km/h (3 Bft) W-SW 251 0 min 0,000 mm 0,0 UV-I 0 W/m -1,1 C -4,8 C 29,0 km/h (5 Bft) 100,00 %
11.02.2016 01:45 2,9 C 75 % 1003,0 hPa 0,0 l/m 18,4 km/h (3 Bft) W-SW 243 0 min 0,000 mm 0,0 UV-I 0 W/m -1,1 C -5,2 C 24,1 km/h (4 Bft) 100,00 %
11.02.2016 01:46 2,9 C 74 % 1002,9 hPa 0,0 l/m 25,3 km/h (4 Bft) W-SW 242 0 min 0,000 mm 0,0 UV-I 0 W/m -1,3 C -7,9 C 41,8 km/h (6 Bft) 95,65 %
11.02.2016 01:47 2,9 C 73 % 1003,0 hPa 0,0 l/m 19,5 km/h (3 Bft) W-SW 253 0 min 0,000 mm 0,0 UV-I 0 W/m -1,5 C -5,7 C 41,8 km/h (6 Bft) 100,00 %
11.02.2016 01:48 2,9 C 74 % 1003,0 hPa 0,0 l/m 23,0 km/h (4 Bft) W-SW 239 0 min 0,000 mm 0,0 UV-I 0 W/m -1,3 C -7,1 C 29,0 km/h (5 Bft) 95,65 %
11.02.2016 01:49 2,9 C 74 % 1003,0 hPa 0,0 l/m 24,0 km/h (4 Bft) W-SW 248 0 min 0,000 mm 0,0 UV-I 0 W/m -1,3 C -7,4 C 32,2 km/h (5 Bft) 100,00 %
11.02.2016 01:50 2,9 C 73 % 1003,0 hPa 0,0 l/m 20,6 km/h (4 Bft) SW 233 0 min 0,000 mm 0,0 UV-I 0 W/m -1,5 C -6,1 C 29,0 km/h (5 Bft) 95,65 %
11.02.2016 01:51 2,9 C 73 % 1003,1 hPa 0,0 l/m 19,7 km/h (3 Bft) S-SW 198 0 min 0,000 mm 0,0 UV-I 0 W/m -1,5 C -5,8 C 24,1 km/h (4 Bft) 95,83 %
11.02.2016 01:52 3,0 C 73 % 1003,0 hPa 0,0 l/m 19,6 km/h (3 Bft) W-SW 246 0 min 0,000 mm 0,0 UV-I 0 W/m -1,4 C -5,6 C 30,6 km/h (5 Bft) 95,65 %
11.02.2016 01:53 3,0 C 73 % 1003,0 hPa 0,0 l/m 29,0 km/h (5 Bft) SW 229 0 min 0,000 mm 0,0 UV-I 0 W/m -1,4 C -8,9 C 45,1 km/h (6 Bft) 100,00 %
11.02.2016 01:54 3,0 C 73 % 1003,0 hPa 0,0 l/m 21,8 km/h (4 Bft) W-SW 258 0 min 0,000 mm 0,0 UV-I 0 W/m -1,4 C -6,5 C 29,0 km/h (5 Bft) 91,30 %
11.02.2016 01:55 3,0 C 73 % 1002,9 hPa 0,0 l/m 22,5 km/h (4 Bft) SW 235 0 min 0,000 mm 0,0 UV-I 0 W/m -1,4 C -6,8 C 40,2 km/h (6 Bft) 100,00 %
11.02.2016 01:56 3,0 C 73 % 1003,1 hPa 0,0 l/m 25,4 km/h (4 Bft) W 274 0 min 0,000 mm 0,0 UV-I 0 W/m -1,4 C -7,8 C 37,0 km/h (5 Bft) 100,00 %
11.02.2016 01:57 3,0 C 73 % 1003,1 hPa 0,0 l/m 21,4 km/h (4 Bft) W-SW 245 0 min 0,000 mm 0,0 UV-I 0 W/m -1,4 C -6,3 C 27,4 km/h (4 Bft) 100,00 %
11.02.2016 01:58 3,0 C 73 % 1003,1 hPa 0,0 l/m 24,0 km/h (4 Bft) W-SW 248 0 min 0,000 mm 0,0 UV-I 0 W/m -1,4 C -7,3 C 37,0 km/h (5 Bft) 100,00 %
11.02.2016 01:59 3,1 C 73 % 1003,1 hPa 0,0 l/m 25,5 km/h (4 Bft) W-SW 257 0 min 0,000 mm 0,0 UV-I 0 W/m -1,3 C -7,7 C 33,8 km/h (5 Bft) 100,00 %
11.02.2016 02:00 3,1 C 72 % 1003,0 hPa 0,0 l/m 25,4 km/h (4 Bft) W-SW 258 0 min 0,051 mm 0,0 UV-I 0 W/m -1,4 C -7,7 C 40,2 km/h (6 Bft) 100,00 %
11.02.2016 02:01 3,1 C 72 % 1003,1 hPa 0,0 l/m 29,2 km/h (5 Bft) W-SW 249 0 min 0,000 mm 0,0 UV-I 0 W/m -1,4 C -8,8 C 40,2 km/h (6 Bft) 100,00 %
11.02.2016 02:02 3,1 C 72 % 1003,1 hPa 0,0 l/m 21,3 km/h (4 Bft) SW 235 0 min 0,000 mm 0,0 UV-I 0 W/m -1,4 C -6,2 C 27,4 km/h (4 Bft) 100,00 %
11.02.2016 02:03 3,1 C 72 % 1003,1 hPa 0,0 l/m 23,5 km/h (4 Bft) W-SW 252 0 min 0,000 mm 0,0 UV-I 0 W/m -1,4 C -7,0 C 37,0 km/h (5 Bft) 100,00 %
11.02.2016 02:04 3,1 C 72 % 1003,3 hPa 0,0 l/m 19,8 km/h (3 Bft) W 261 0 min 0,000 mm 0,0 UV-I 0 W/m -1,4 C -5,5 C 25,7 km/h (4 Bft) 100,00 %
11.02.2016 02:05 3,1 C 72 % 1003,3 hPa 0,0 l/m 21,6 km/h (4 Bft) W 263 0 min 0,000 mm 0,0 UV-I 0 W/m -1,4 C -6,3 C 29,0 km/h (5 Bft) 100,00 %
11.02.2016 02:06 3,1 C 72 % 1003,2 hPa 0,0 l/m 21,7 km/h (4 Bft) SW 218 0 min 0,000 mm 0,0 UV-I 0 W/m -1,4 C -6,3 C 29,0 km/h (5 Bft) 100,00 %
11.02.2016 02:07 3,1 C 72 % 1003,1 hPa 0,0 l/m 21,3 km/h (4 Bft) SW 222 0 min 0,000 mm 0,0 UV-I 0 W/m -1,4 C -6,2 C 27,4 km/h (4 Bft) 100,00 %
11.02.2016 02:08 3,1 C 72 % 1003,3 hPa 0,0 l/m 18,1 km/h (3 Bft) W-SW 248 0 min 0,000 mm 0,0 UV-I 0 W/m -1,4 C -4,8 C 24,1 km/h (4 Bft) 100,00 %
11.02.2016 02:09 3,1 C 72 % 1003,3 hPa 0,0 l/m 20,5 km/h (4 Bft) SW 234 0 min 0,000 mm 0,0 UV-I 0 W/m -1,4 C -5,8 C 25,7 km/h (4 Bft) 92,31 %
11.02.2016 02:10 3,1 C 72 % 1003,3 hPa 0,0 l/m 29,1 km/h (5 Bft) W-SW 255 0 min 0,000 mm 0,0 UV-I 0 W/m -1,4 C -8,8 C 38,6 km/h (5 Bft) 100,00 %
11.02.2016 02:11 3,2 C 71 % 1003,3 hPa 0,0 l/m 26,7 km/h (4 Bft) W-SW 246 0 min 0,000 mm 0,0 UV-I 0 W/m -1,5 C -7,9 C 40,2 km/h (6 Bft) 100,00 %
11.02.2016 02:12 3,2 C 71 % 1003,3 hPa 0,0 l/m 23,1 km/h (4 Bft) W-SW 248 0 min 0,000 mm 0,0 UV-I 0 W/m -1,5 C -6,7 C 33,8 km/h (5 Bft) 95,83 %
11.02.2016 02:13 3,2 C 71 % 1003,3 hPa 0,0 l/m 21,7 km/h (4 Bft) W-SW 256 0 min 0,000 mm 0,0 UV-I 0 W/m -1,5 C -6,2 C 27,4 km/h (4 Bft) 95,65 %
11.02.2016 02:14 3,2 C 71 % 1003,4 hPa 0,0 l/m 18,8 km/h (3 Bft) SW 219 0 min 0,000 mm 0,0 UV-I 0 W/m -1,5 C -5,0 C 33,8 km/h (5 Bft) 100,00 %
11.02.2016 02:15 3,2 C 71 % 1003,3 hPa 0,0 l/m 16,0 km/h (3 Bft) W-SW 240 0 min 0,000 mm 0,0 UV-I 0 W/m -1,5 C -3,6 C 24,1 km/h (4 Bft) 95,65 %
11.02.2016 02:16 3,2 C 71 % 1003,4 hPa 0,0 l/m 21,5 km/h (4 Bft) W 267 0 min 0,000 mm 0,0 UV-I 0 W/m -1,5 C -6,1 C 27,4 km/h (4 Bft) 100,00 %
11.02.2016 02:17 3,2 C 71 % 1003,3 hPa 0,0 l/m 17,5 km/h (3 Bft) SW 230 0 min 0,000 mm 0,0 UV-I 0 W/m -1,5 C -4,4 C 27,4 km/h (4 Bft) 100,00 %
11.02.2016 02:18 3,2 C 71 % 1003,4 hPa 0,0 l/m 18,7 km/h (3 Bft) SW 229 0 min 0,000 mm 0,0 UV-I 0 W/m -1,5 C -4,9 C 25,7 km/h (4 Bft) 100,00 %
11.02.2016 02:19 3,2 C 71 % 1003,4 hPa 0,0 l/m 20,9 km/h (4 Bft) W 266 0 min 0,000 mm 0,0 UV-I 0 W/m -1,5 C -5,9 C 27,4 km/h (4 Bft) 100,00 %
11.02.2016 02:20 3,2 C 71 % 1003,4 hPa 0,0 l/m 16,5 km/h (3 Bft) W 270 0 min 0,000 mm 0,0 UV-I 0 W/m -1,5 C -3,9 C 20,9 km/h (4 Bft) 91,67 %
11.02.2016 02:21 3,2 C 71 % 1003,4 hPa 0,0 l/m 15,5 km/h (3 Bft) SW 232 0 min 0,000 mm 0,0 UV-I 0 W/m -1,5 C -3,4 C 19,3 km/h (3 Bft) 100,00 %
11.02.2016 02:22 3,2 C 71 % 1003,4 hPa 0,0 l/m 19,4 km/h (3 Bft) W-SW 237 0 min 0,000 mm 0,0 UV-I 0 W/m -1,5 C -5,2 C 27,4 km/h (4 Bft) 100,00 %
11.02.2016 02:23 3,2 C 71 % 1003,5 hPa 0,0 l/m 23,7 km/h (4 Bft) W-SW 255 0 min 0,000 mm 0,0 UV-I 0 W/m -1,5 C -6,9 C 33,8 km/h (5 Bft) 100,00 %
11.02.2016 02:24 3,2 C 70 % 1003,4 hPa 0,0 l/m 24,2 km/h (4 Bft) W 269 0 min 0,000 mm 0,0 UV-I 0 W/m -1,7 C -7,1 C 32,2 km/h (5 Bft) 100,00 %
11.02.2016 02:25 3,2 C 70 % 1003,5 hPa 0,0 l/m 21,1 km/h (4 Bft) W-SW 239 0 min 0,000 mm 0,0 UV-I 0 W/m -1,7 C -5,9 C 27,4 km/h (4 Bft) 100,00 %
11.02.2016 02:26 3,2 C 70 % 1003,4 hPa 0,0 l/m 24,7 km/h (4 Bft) W-SW 241 0 min 0,000 mm 0,0 UV-I 0 W/m -1,7 C -7,3 C 37,0 km/h (5 Bft) 100,00 %
11.02.2016 02:27 3,3 C 70 % 1003,5 hPa 0,0 l/m 22,4 km/h (4 Bft) W 271 0 min 0,000 mm 0,0 UV-I 0 W/m -1,6 C -6,3 C 33,8 km/h (5 Bft) 100,00 %
11.02.2016 02:28 3,3 C 70 % 1003,5 hPa 0,0 l/m 20,3 km/h (4 Bft) W-SW 250 0 min 0,000 mm 0,0 UV-I 0 W/m -1,6 C -5,5 C 35,4 km/h (5 Bft) 95,65 %
11.02.2016 02:29 3,3 C 70 % 1003,6 hPa 0,0 l/m 20,8 km/h (4 Bft) SW 235 0 min 0,000 mm 0,0 UV-I 0 W/m -1,6 C -5,7 C 35,4 km/h (5 Bft) 100,00 %
11.02.2016 02:30 3,3 C 70 % 1003,6 hPa 0,0 l/m 25,1 km/h (4 Bft) W-SW 240 0 min 0,000 mm 0,0 UV-I 0 W/m -1,6 C -7,3 C 33,8 km/h (5 Bft) 100,00 %
11.02.2016 02:31 3,3 C 70 % 1003,5 hPa 0,0 l/m 28,0 km/h (4 Bft) W-SW 253 0 min 0,000 mm 0,0 UV-I 0 W/m -1,6 C -8,2 C 38,6 km/h (5 Bft) 95,83 %
11.02.2016 02:32 3,3 C 70 % 1003,5 hPa 0,0 l/m 30,2 km/h (5 Bft) W 259 0 min 0,000 mm 0,0 UV-I 0 W/m -1,6 C -8,8 C 40,2 km/h (6 Bft) 95,65 %
11.02.2016 02:33 3,3 C 70 % 1003,6 hPa 0,0 l/m 28,5 km/h (4 Bft) W-SW 241 0 min 0,000 mm 0,0 UV-I 0 W/m -1,6 C -8,3 C 35,4 km/h (5 Bft) 100,00 %
11.02.2016 02:34 3,3 C 70 % 1003,6 hPa 0,0 l/m 23,5 km/h (4 Bft) W-SW 255 0 min 0,000 mm 0,0 UV-I 0 W/m -1,6 C -6,7 C 32,2 km/h (5 Bft) 91,30 %
11.02.2016 02:35 3,3 C 70 % 1003,7 hPa 0,0 l/m 21,1 km/h (4 Bft) W-NW 286 0 min 0,000 mm 0,0 UV-I 0 W/m -1,6 C -5,8 C 27,4 km/h (4 Bft) 100,00 %
11.02.2016 02:36 3,3 C 70 % 1003,7 hPa 0,0 l/m 21,5 km/h (4 Bft) S-SW 204 0 min 0,000 mm 0,0 UV-I 0 W/m -1,6 C -6,0 C 27,4 km/h (4 Bft) 100,00 %
11.02.2016 02:37 3,3 C 70 % 1003,6 hPa 0,0 l/m 20,9 km/h (4 Bft) W-SW 257 0 min 0,000 mm 0,0 UV-I 0 W/m -1,6 C -5,7 C 30,6 km/h (5 Bft) 100,00 %
11.02.2016 02:38 3,3 C 70 % 1003,7 hPa 0,0 l/m 24,7 km/h (4 Bft) W-SW 253 0 min 0,000 mm 0,0 UV-I 0 W/m -1,6 C -7,1 C 48,3 km/h (6 Bft) 100,00 %
11.02.2016 02:39 3,3 C 70 % 1003,7 hPa 0,0 l/m 28,0 km/h (4 Bft) W-SW 256 0 min 0,000 mm 0,0 UV-I 0 W/m -1,6 C -8,2 C 38,6 km/h (5 Bft) 100,00 %
11.02.2016 02:40 3,3 C 70 % 1003,7 hPa 0,0 l/m 25,5 km/h (4 Bft) SW 229 0 min 0,000 mm 0,0 UV-I 0 W/m -1,6 C -7,4 C 40,2 km/h (6 Bft) 100,00 %
11.02.2016 02:41 3,3 C 71 % 1003,7 hPa 0,0 l/m 30,8 km/h (5 Bft) W-SW 250 0 min 0,000 mm 0,0 UV-I 0 W/m -1,4 C -9,0 C 43,5 km/h (6 Bft) 100,00 %
11.02.2016 02:42 3,3 C 71 % 1003,8 hPa 0,0 l/m 19,5 km/h (3 Bft) W 268 0 min 0,000 mm 0,0 UV-I 0 W/m -1,4 C -5,2 C 29,0 km/h (5 Bft) 95,83 %
11.02.2016 02:43 3,3 C 71 % 1003,7 hPa 0,0 l/m 23,1 km/h (4 Bft) W 259 0 min 0,000 mm 0,0 UV-I 0 W/m -1,4 C -6,6 C 33,8 km/h (5 Bft) 100,00 %
11.02.2016 02:44 3,3 C 72 % 1003,8 hPa 0,0 l/m 20,4 km/h (4 Bft) W 270 0 min 0,000 mm 0,0 UV-I 0 W/m -1,3 C -5,5 C 27,4 km/h (4 Bft) 95,83 %
11.02.2016 02:45 3,2 C 72 % 1003,8 hPa 0,0 l/m 21,5 km/h (4 Bft) W-SW 242 0 min 0,000 mm 0,0 UV-I 0 W/m -1,3 C -6,1 C 29,0 km/h (5 Bft) 100,00 %
11.02.2016 02:46 3,2 C 72 % 1003,8 hPa 0,0 l/m 21,7 km/h (4 Bft) W-SW 237 0 min 0,000 mm 0,0 UV-I 0 W/m -1,3 C -6,2 C 32,2 km/h (5 Bft) 92,59 %
11.02.2016 02:47 3,2 C 72 % 1004,0 hPa 0,0 l/m 22,3 km/h (4 Bft) W 269 0 min 0,000 mm 0,0 UV-I 0 W/m -1,3 C -6,4 C 30,6 km/h (5 Bft) 96,15 %
11.02.2016 02:48 3,2 C 71 % 1004,0 hPa 0,0 l/m 23,8 km/h (4 Bft) W 264 0 min 0,000 mm 0,0 UV-I 0 W/m -1,5 C -7,0 C 35,4 km/h (5 Bft) 100,00 %
11.02.2016 02:49 3,2 C 72 % 1003,9 hPa 0,0 l/m 23,1 km/h (4 Bft) W 260 0 min 0,000 mm 0,0 UV-I 0 W/m -1,3 C -6,7 C 29,0 km/h (5 Bft) 86,96 %
11.02.2016 02:50 3,2 C 72 % 1004,0 hPa 0,0 l/m 22,7 km/h (4 Bft) W-SW 257 0 min 0,000 mm 0,0 UV-I 0 W/m -1,3 C -6,6 C 29,0 km/h (5 Bft) 100,00 %
11.02.2016 02:51 3,2 C 72 % 1004,0 hPa 0,0 l/m 25,0 km/h (4 Bft) SW 217 0 min 0,000 mm 0,0 UV-I 0 W/m -1,3 C -7,4 C 35,4 km/h (5 Bft) 96,15 %
11.02.2016 02:52 3,2 C 72 % 1004,1 hPa 0,0 l/m 21,1 km/h (4 Bft) W-SW 257 0 min 0,000 mm 0,0 UV-I 0 W/m -1,3 C -5,9 C 27,4 km/h (4 Bft) 100,00 %
11.02.2016 02:53 3,1 C 72 % 1004,1 hPa 0,0 l/m 25,7 km/h (4 Bft) W-SW 237 0 min 0,000 mm 0,0 UV-I 0 W/m -1,4 C -7,8 C 37,0 km/h (5 Bft) 97,14 %
11.02.2016 02:54 3,1 C 72 % 1004,1 hPa 0,0 l/m 21,6 km/h (4 Bft) W-SW 251 0 min 0,000 mm 0,0 UV-I 0 W/m -1,4 C -6,3 C 27,4 km/h (4 Bft) 100,00 %
11.02.2016 02:55 3,1 C 73 % 1004,1 hPa 0,0 l/m 19,5 km/h (3 Bft) W-SW 244 0 min 0,000 mm 0,0 UV-I 0 W/m -1,3 C -5,4 C 29,0 km/h (5 Bft) 86,96 %
11.02.2016 02:56 3,1 C 73 % 1004,1 hPa 0,0 l/m 20,4 km/h (4 Bft) W-SW 253 0 min 0,000 mm 0,0 UV-I 0 W/m -1,3 C -5,8 C 24,1 km/h (4 Bft) 100,00 %
11.02.2016 02:57 3,1 C 73 % 1004,2 hPa 0,0 l/m 21,3 km/h (4 Bft) W-SW 250 0 min 0,000 mm 0,0 UV-I 0 W/m -1,3 C -6,2 C 29,0 km/h (5 Bft) 95,83 %
11.02.2016 02:58 3,1 C 73 % 1004,2 hPa 0,0 l/m 24,1 km/h (4 Bft) W 277 0 min 0,000 mm 0,0 UV-I 0 W/m -1,3 C -7,2 C 37,0 km/h (5 Bft) 100,00 %
11.02.2016 02:59 3,1 C 73 % 1004,3 hPa 0,0 l/m 24,3 km/h (4 Bft) W 263 0 min 0,000 mm 0,0 UV-I 0 W/m -1,3 C -7,3 C 33,8 km/h (5 Bft) 95,83 %
11.02.2016 03:00 3,1 C 74 % 1004,3 hPa 0,0 l/m 19,8 km/h (3 Bft) W-SW 246 0 min 0,051 mm 0,0 UV-I 0 W/m -1,1 C -5,5 C 30,6 km/h (5 Bft) 95,65 %
11.02.2016 03:01 3,1 C 74 % 1004,3 hPa 0,0 l/m 21,3 km/h (4 Bft) W-SW 250 0 min 0,000 mm 0,0 UV-I 0 W/m -1,1 C -6,2 C 30,6 km/h (5 Bft) 100,00 %
11.02.2016 03:02 3,0 C 75 % 1004,3 hPa 0,0 l/m 22,7 km/h (4 Bft) W 281 0 min 0,000 mm 0,0 UV-I 0 W/m -1,0 C -6,8 C 30,6 km/h (5 Bft) 95,65 %
11.02.2016 03:03 2,9 C 76 % 1004,3 hPa 0,0 l/m 23,5 km/h (4 Bft) W-SW 254 0 min 0,000 mm 0,0 UV-I 0 W/m -0,9 C -7,3 C 30,6 km/h (5 Bft) 100,00 %
11.02.2016 03:04 2,9 C 78 % 1004,4 hPa 0,0 l/m 18,7 km/h (3 Bft) W-SW 244 0 min 0,000 mm 0,0 UV-I 0 W/m -0,5 C -5,3 C 24,1 km/h (4 Bft) 95,65 %
11.02.2016 03:05 2,8 C 79 % 1004,3 hPa 0,0 l/m 18,1 km/h (3 Bft) W-SW 250 0 min 0,000 mm 0,0 UV-I 0 W/m -0,5 C -5,2 C 27,4 km/h (4 Bft) 100,00 %
11.02.2016 03:06 2,7 C 80 % 1004,3 hPa 0,0 l/m 21,1 km/h (4 Bft) W-SW 252 0 min 0,000 mm 0,0 UV-I 0 W/m -0,4 C -6,6 C 29,0 km/h (5 Bft) 95,65 %
11.02.2016 03:07 2,6 C 80 % 1004,2 hPa 0,0 l/m 19,7 km/h (3 Bft) SW 232 0 min 0,000 mm 0,0 UV-I 0 W/m -0,5 C -6,1 C 25,7 km/h (4 Bft) 96,30 %
11.02.2016 03:08 2,4 C 81 % 1004,2 hPa 0,0 l/m 14,2 km/h (3 Bft) W-SW 241 0 min 0,000 mm 0,0 UV-I 0 W/m -0,5 C -3,6 C 19,3 km/h (3 Bft) 100,00 %
11.02.2016 03:09 2,4 C 82 % 1004,2 hPa 0,0 l/m 17,9 km/h (3 Bft) W-SW 254 0 min 0,000 mm 0,0 UV-I 0 W/m -0,4 C -5,6 C 25,7 km/h (4 Bft) 91,67 %
11.02.2016 03:10 2,3 C 82 % 1004,2 hPa 0,0 l/m 15,1 km/h (3 Bft) SW 221 0 min 0,000 mm 0,0 UV-I 0 W/m -0,4 C -4,3 C 20,9 km/h (4 Bft) 100,00 %
11.02.2016 03:11 2,2 C 82 % 1004,2 hPa 0,0 l/m 15,2 km/h (3 Bft) W 262 0 min 0,000 mm 0,0 UV-I 0 W/m -0,5 C -4,4 C 17,7 km/h (3 Bft) 95,83 %
11.02.2016 03:12 2,2 C 82 % 1004,3 hPa 0,0 l/m 19,7 km/h (3 Bft) SW 225 0 min 0,000 mm 0,0 UV-I 0 W/m -0,5 C -6,7 C 24,1 km/h (4 Bft) 95,65 %
11.02.2016 03:13 2,1 C 82 % 1004,2 hPa 0,0 l/m 16,9 km/h (3 Bft) W-SW 238 0 min 0,000 mm 0,0 UV-I 0 W/m -0,6 C -5,5 C 24,1 km/h (4 Bft) 91,67 %
11.02.2016 03:14 2,1 C 81 % 1004,3 hPa 0,0 l/m 23,2 km/h (4 Bft) W-SW 257 0 min 0,000 mm 0,0 UV-I 0 W/m -0,8 C -8,2 C 41,8 km/h (6 Bft) 100,00 %
11.02.2016 03:15 2,1 C 81 % 1004,2 hPa 0,0 l/m 23,3 km/h (4 Bft) SW 229 0 min 0,000 mm 0,0 UV-I 0 W/m -0,8 C -8,3 C 37,0 km/h (5 Bft) 95,83 %
11.02.2016 03:16 2,2 C 81 % 1004,3 hPa 0,0 l/m 22,3 km/h (4 Bft) W 263 0 min 0,000 mm 0,0 UV-I 0 W/m -0,7 C -7,7 C 33,8 km/h (5 Bft) 96,15 %
11.02.2016 03:17 2,2 C 80 % 1004,3 hPa 0,0 l/m 21,3 km/h (4 Bft) SW 225 0 min 0,000 mm 0,0 UV-I 0 W/m -0,9 C -7,3 C 30,6 km/h (5 Bft) 100,00 %
11.02.2016 03:18 2,2 C 80 % 1004,2 hPa 0,0 l/m 27,0 km/h (4 Bft) W-SW 237 0 min 0,000 mm 0,0 UV-I 0 W/m -0,9 C -9,4 C 33,8 km/h (5 Bft) 96,15 %
11.02.2016 03:19 2,2 C 80 % 1004,3 hPa 0,0 l/m 24,9 km/h (4 Bft) W-SW 258 0 min 0,000 mm 0,0 UV-I 0 W/m -0,9 C -8,7 C 33,8 km/h (5 Bft) 100,00 %
11.02.2016 03:20 2,3 C 80 % 1004,2 hPa 0,0 l/m 23,0 km/h (4 Bft) W 262 0 min 0,000 mm 0,0 UV-I 0 W/m -0,8 C -7,9 C 32,2 km/h (5 Bft) 93,33 %
11.02.2016 03:21 2,3 C 80 % 1004,3 hPa 0,0 l/m 20,0 km/h (4 Bft) W-SW 250 0 min 0,000 mm 0,0 UV-I 0 W/m -0,8 C -6,7 C 24,1 km/h (4 Bft) 95,83 %
11.02.2016 03:22 2,3 C 80 % 1004,3 hPa 0,0 l/m 16,7 km/h (3 Bft) W-SW 251 0 min 0,000 mm 0,0 UV-I 0 W/m -0,8 C -5,1 C 24,1 km/h (4 Bft) 100,00 %
11.02.2016 03:23 2,3 C 81 % 1004,4 hPa 0,0 l/m 17,5 km/h (3 Bft) S-SW 210 0 min 0,000 mm 0,0 UV-I 0 W/m -0,6 C -5,5 C 24,1 km/h (4 Bft) 100,00 %
11.02.2016 03:24 2,3 C 81 % 1004,3 hPa 0,0 l/m 20,7 km/h (4 Bft) SW 217 0 min 0,000 mm 0,0 UV-I 0 W/m -0,6 C -7,0 C 38,6 km/h (5 Bft) 100,00 %
11.02.2016 03:25 2,3 C 80 % 1004,3 hPa 0,0 l/m 26,0 km/h (4 Bft) SW 234 0 min 0,000 mm 0,0 UV-I 0 W/m -0,8 C -8,9 C 40,2 km/h (6 Bft) 100,00 %
11.02.2016 03:26 2,3 C 80 % 1004,3 hPa 0,0 l/m 24,5 km/h (4 Bft) S-SW 205 0 min 0,000 mm 0,0 UV-I 0 W/m -0,8 C -8,4 C 33,8 km/h (5 Bft) 95,83 %
11.02.2016 03:27 2,3 C 81 % 1004,4 hPa 0,0 l/m 20,3 km/h (4 Bft) W-SW 252 0 min 0,000 mm 0,0 UV-I 0 W/m -0,6 C -6,8 C 27,4 km/h (4 Bft) 100,00 %
11.02.2016 03:28 2,3 C 81 % 1004,3 hPa 0,0 l/m 23,2 km/h (4 Bft) S-SW 211 0 min 0,000 mm 0,0 UV-I 0 W/m -0,6 C -8,0 C 32,2 km/h (5 Bft) 100,00 %
11.02.2016 03:29 2,3 C 81 % 1004,4 hPa 0,0 l/m 29,3 km/h (5 Bft) SW 235 0 min 0,000 mm 0,0 UV-I 0 W/m -0,6 C -10,0 C 43,5 km/h (6 Bft) 95,65 %
11.02.2016 03:30 2,3 C 81 % 1004,4 hPa 0,0 l/m 22,6 km/h (4 Bft) W-SW 237 0 min 0,000 mm 0,0 UV-I 0 W/m -0,6 C -7,7 C 37,0 km/h (5 Bft) 100,00 %
11.02.2016 03:31 2,3 C 81 % 1004,5 hPa 0,0 l/m 19,6 km/h (3 Bft) W-SW 250 0 min 0,000 mm 0,0 UV-I 0 W/m -0,6 C -6,5 C 25,7 km/h (4 Bft) 95,65 %
11.02.2016 03:32 2,3 C 81 % 1004,5 hPa 0,0 l/m 22,5 km/h (4 Bft) SW 219 0 min 0,000 mm 0,0 UV-I 0 W/m -0,6 C -7,7 C 30,6 km/h (5 Bft) 100,00 %
11.02.2016 03:33 2,3 C 81 % 1004,4 hPa 0,0 l/m 27,5 km/h (4 Bft) W-SW 246 0 min 0,000 mm 0,0 UV-I 0 W/m -0,6 C -9,4 C 37,0 km/h (5 Bft) 95,65 %
11.02.2016 03:34 2,3 C 81 % 1004,4 hPa 0,0 l/m 30,2 km/h (5 Bft) SW 221 0 min 0,000 mm 0,0 UV-I 0 W/m -0,6 C -10,2 C 43,5 km/h (6 Bft) 100,00 %
11.02.2016 03:35 2,3 C 81 % 1004,5 hPa 0,0 l/m 20,8 km/h (4 Bft) W-SW 242 0 min 0,000 mm 0,0 UV-I 0 W/m -0,6 C -7,0 C 30,6 km/h (5 Bft) 91,67 %
11.02.2016 03:36 2,3 C 82 % 1004,5 hPa 0,0 l/m 18,9 km/h (3 Bft) W-SW 237 0 min 0,000 mm 0,0 UV-I 0 W/m -0,4 C -6,2 C 29,0 km/h (5 Bft) 96,15 %
11.02.2016 03:37 2,2 C 82 % 1004,5 hPa 0,0 l/m 17,6 km/h (3 Bft) W-SW 243 0 min 0,000 mm 0,0 UV-I 0 W/m -0,5 C -5,7 C 25,7 km/h (4 Bft) 95,65 %
11.02.2016 03:38 2,2 C 83 % 1004,6 hPa 0,0 l/m 21,3 km/h (4 Bft) SW 227 0 min 0,000 mm 0,0 UV-I 0 W/m -0,4 C -7,3 C 35,4 km/h (5 Bft) 100,00 %
11.02.2016 03:39 2,2 C 83 % 1004,4 hPa 0,0 l/m 29,5 km/h (5 Bft) SW 236 0 min 0,000 mm 0,0 UV-I 0 W/m -0,4 C -10,2 C 37,0 km/h (5 Bft) 100,00 %
11.02.2016 03:40 2,1 C 83 % 1004,5 hPa 0,0 l/m 28,5 km/h (4 Bft) SW 232 0 min 0,000 mm 0,0 UV-I 0 W/m -0,5 C -10,0 C 40,2 km/h (6 Bft) 100,00 %
11.02.2016 03:41 2,1 C 84 % 1004,5 hPa 0,0 l/m 23,9 km/h (4 Bft) W-SW 238 0 min 0,000 mm 0,0 UV-I 0 W/m -0,3 C -8,5 C 35,4 km/h (5 Bft) 100,00 %
11.02.2016 03:42 2,1 C 84 % 1004,5 hPa 0,0 l/m 29,6 km/h (5 Bft) SW 228 0 min 0,000 mm 0,0 UV-I 0 W/m -0,3 C -10,3 C 35,4 km/h (5 Bft) 100,00 %
11.02.2016 03:43 2,0 C 84 % 1004,6 hPa 0,0 l/m 24,4 km/h (4 Bft) W-SW 246 0 min 0,000 mm 0,0 UV-I 0 W/m -0,4 C -8,8 C 32,2 km/h (5 Bft) 100,00 %
11.02.2016 03:44 1,9 C 85 % 1004,5 hPa 0,0 l/m 29,4 km/h (5 Bft) SW 229 0 min 0,000 mm 0,0 UV-I 0 W/m -0,3 C -10,6 C 38,6 km/h (5 Bft) 100,00 %
11.02.2016 03:45 1,9 C 85 % 1004,5 hPa 0,0 l/m 27,7 km/h (4 Bft) S-SW 209 0 min 0,000 mm 0,0 UV-I 0 W/m -0,3 C -10,0 C 35,4 km/h (5 Bft) 95,83 %
11.02.2016 03:46 1,9 C 85 % 1004,6 hPa 0,0 l/m 22,2 km/h (4 Bft) S-SW 208 0 min 0,000 mm 0,0 UV-I 0 W/m -0,3 C -8,1 C 30,6 km/h (5 Bft) 95,65 %
11.02.2016 03:47 1,8 C 86 % 1004,6 hPa 0,0 l/m 22,0 km/h (4 Bft) S 188 0 min 0,000 mm 0,0 UV-I 0 W/m -0,3 C -8,1 C 32,2 km/h (5 Bft) 95,83 %
11.02.2016 03:48 1,8 C 86 % 1004,6 hPa 0,0 l/m 20,3 km/h (4 Bft) S-SW 212 0 min 0,000 mm 0,0 UV-I 0 W/m -0,3 C -7,4 C 29,0 km/h (5 Bft) 100,00 %
11.02.2016 03:49 1,8 C 86 % 1004,7 hPa 0,0 l/m 22,0 km/h (4 Bft) SW 234 0 min 0,000 mm 0,0 UV-I 0 W/m -0,3 C -8,1 C 30,6 km/h (5 Bft) 100,00 %
11.02.2016 03:50 1,8 C 86 % 1004,7 hPa 0,0 l/m 24,7 km/h (4 Bft) SW 236 0 min 0,000 mm 0,0 UV-I 0 W/m -0,3 C -9,2 C 32,2 km/h (5 Bft) 95,65 %
11.02.2016 03:51 1,8 C 86 % 1004,7 hPa 0,0 l/m 19,4 km/h (3 Bft) W-SW 249 0 min 0,000 mm 0,0 UV-I 0 W/m -0,3 C -7,0 C 29,0 km/h (5 Bft) 100,00 %
11.02.2016 03:52 1,7 C 87 % 1004,7 hPa 0,0 l/m 19,4 km/h (3 Bft) W-SW 241 0 min 0,000 mm 0,0 UV-I 0 W/m -0,2 C -7,2 C 37,0 km/h (5 Bft) 91,30 %
11.02.2016 03:53 1,7 C 87 % 1004,7 hPa 0,0 l/m 19,0 km/h (3 Bft) S-SW 201 0 min 0,000 mm 0,0 UV-I 0 W/m -0,2 C -7,0 C 25,7 km/h (4 Bft) 100,00 %
11.02.2016 03:54 1,7 C 87 % 1004,7 hPa 0,0 l/m 17,4 km/h (3 Bft) S-SW 207 0 min 0,000 mm 0,0 UV-I 0 W/m -0,2 C -6,2 C 32,2 km/h (5 Bft) 100,00 %
11.02.2016 03:55 1,7 C 87 % 1004,8 hPa 0,0 l/m 20,6 km/h (4 Bft) W-SW 238 0 min 0,000 mm 0,0 UV-I 0 W/m -0,2 C -7,7 C 29,0 km/h (5 Bft) 100,00 %
11.02.2016 03:56 1,7 C 87 % 1004,8 hPa 0,0 l/m 21,1 km/h (4 Bft) S-SW 199 0 min 0,000 mm 0,0 UV-I 0 W/m -0,2 C -7,9 C 29,0 km/h (5 Bft) 100,00 %
11.02.2016 03:57 1,7 C 87 % 1004,8 hPa 0,0 l/m 17,6 km/h (3 Bft) W-SW 239 0 min 0,000 mm 0,0 UV-I 0 W/m -0,2 C -6,3 C 35,4 km/h (5 Bft) 95,83 %
11.02.2016 03:58 1,6 C 88 % 1004,8 hPa 0,0 l/m 22,2 km/h (4 Bft) W-SW 254 0 min 0,000 mm 0,0 UV-I 0 W/m -0,2 C -8,5 C 33,8 km/h (5 Bft) 100,00 %
11.02.2016 03:59 1,6 C 87 % 1004,8 hPa 0,0 l/m 21,8 km/h (4 Bft) W-SW 254 0 min 0,000 mm 0,0 UV-I 0 W/m -0,3 C -8,3 C 29,0 km/h (5 Bft) 100,00 %
11.02.2016 04:00 1,6 C 88 % 1004,8 hPa 0,0 l/m 26,4 km/h (4 Bft) SW 223 0 min 0,025 mm 0,0 UV-I 0 W/m -0,2 C -10,0 C 40,2 km/h (6 Bft) 95,83 %
11.02.2016 04:03 1,6 C 88 % 1004,8 hPa 0,0 l/m 22,1 km/h (4 Bft) W-SW 237 0 min 0,000 mm 0,0 UV-I 0 W/m -0,2 C -8,5 C 35,4 km/h (5 Bft) 97,44 %
11.02.2016 04:04 1,6 C 88 % 1004,8 hPa 0,0 l/m 16,3 km/h (3 Bft) S-SW 209 0 min 0,000 mm 0,0 UV-I 0 W/m -0,2 C -5,8 C 25,7 km/h (4 Bft) 100,00 %
11.02.2016 04:05 1,6 C 88 % 1004,8 hPa 0,0 l/m 16,3 km/h (3 Bft) SW 223 0 min 0,000 mm 0,0 UV-I 0 W/m -0,2 C -5,8 C 22,5 km/h (4 Bft) 100,00 %
11.02.2016 04:06 1,5 C 88 % 1004,9 hPa 0,0 l/m 23,1 km/h (4 Bft) SW 227 0 min 0,000 mm 0,0 UV-I 0 W/m -0,3 C -9,0 C 29,0 km/h (5 Bft) 100,00 %
11.02.2016 04:07 1,5 C 89 % 1004,8 hPa 0,0 l/m 19,5 km/h (3 Bft) S-SW 205 0 min 0,000 mm 0,0 UV-I 0 W/m -0,1 C -7,5 C 27,4 km/h (4 Bft) 100,00 %
11.02.2016 04:08 1,5 C 89 % 1004,8 hPa 0,0 l/m 17,6 km/h (3 Bft) S-SW 210 0 min 0,000 mm 0,0 UV-I 0 W/m -0,1 C -6,6 C 24,1 km/h (4 Bft) 100,00 %
11.02.2016 04:09 1,5 C 89 % 1004,9 hPa 0,0 l/m 20,8 km/h (4 Bft) SW 220 0 min 0,000 mm 0,0 UV-I 0 W/m -0,1 C -8,0 C 29,0 km/h (5 Bft) 95,65 %
11.02.2016 04:10 1,5 C 89 % 1004,8 hPa 0,0 l/m 17,3 km/h (3 Bft) W-SW 246 0 min 0,000 mm 0,0 UV-I 0 W/m -0,1 C -6,4 C 25,7 km/h (4 Bft) 100,00 %
11.02.2016 04:11 1,5 C 89 % 1004,9 hPa 0,0 l/m 16,6 km/h (3 Bft) W-SW 237 0 min 0,000 mm 0,0 UV-I 0 W/m -0,1 C -6,0 C 24,1 km/h (4 Bft) 95,65 %
11.02.2016 04:12 1,5 C 89 % 1004,8 hPa 0,0 l/m 20,5 km/h (4 Bft) SW 236 0 min 0,000 mm 0,0 UV-I 0 W/m -0,1 C -7,9 C 27,4 km/h (4 Bft) 95,83 %
11.02.2016 04:13 1,5 C 89 % 1004,9 hPa 0,0 l/m 22,5 km/h (4 Bft) SW 224 0 min 0,000 mm 0,0 UV-I 0 W/m -0,1 C -8,7 C 30,6 km/h (5 Bft) 95,65 %
11.02.2016 04:14 1,5 C 89 % 1004,9 hPa 0,0 l/m 24,5 km/h (4 Bft) SW 231 0 min 0,000 mm 0,0 UV-I 0 W/m -0,1 C -9,5 C 38,6 km/h (5 Bft) 100,00 %
11.02.2016 04:15 1,5 C 89 % 1004,9 hPa 0,0 l/m 26,3 km/h (4 Bft) SW 229 0 min 0,000 mm 0,0 UV-I 0 W/m -0,1 C -10,1 C 32,2 km/h (5 Bft) 95,65 %
11.02.2016 04:16 1,5 C 89 % 1004,9 hPa 0,0 l/m 22,7 km/h (4 Bft) W-SW 239 0 min 0,000 mm 0,0 UV-I 0 W/m -0,1 C -8,8 C 27,4 km/h (4 Bft) 100,00 %
11.02.2016 04:17 1,5 C 89 % 1004,9 hPa 0,0 l/m 21,6 km/h (4 Bft) W-SW 249 0 min 0,000 mm 0,0 UV-I 0 W/m -0,1 C -8,4 C 29,0 km/h (5 Bft) 100,00 %
11.02.2016 04:18 1,5 C 89 % 1004,9 hPa 0,0 l/m 20,4 km/h (4 Bft) SW 216 0 min 0,000 mm 0,0 UV-I 0 W/m -0,1 C -7,9 C 29,0 km/h (5 Bft) 95,83 %
11.02.2016 04:19 1,5 C 89 % 1004,9 hPa 0,0 l/m 22,5 km/h (4 Bft) W-SW 241 0 min 0,000 mm 0,0 UV-I 0 W/m -0,1 C -8,7 C 30,6 km/h (5 Bft) 100,00 %
11.02.2016 04:20 1,5 C 89 % 1004,9 hPa 0,0 l/m 27,4 km/h (4 Bft) S-SW 209 0 min 0,000 mm 0,0 UV-I 0 W/m -0,1 C -10,5 C 35,4 km/h (5 Bft) 100,00 %
11.02.2016 04:21 1,5 C 89 % 1004,9 hPa 0,0 l/m 17,5 km/h (3 Bft) S-SW 205 0 min 0,000 mm 0,0 UV-I 0 W/m -0,1 C -6,5 C 29,0 km/h (5 Bft) 100,00 %
11.02.2016 04:22 1,5 C 89 % 1005,0 hPa 0,0 l/m 19,8 km/h (3 Bft) W-SW 244 0 min 0,000 mm 0,0 UV-I 0 W/m -0,1 C -7,6 C 27,4 km/h (4 Bft) 100,00 %
11.02.2016 04:23 1,5 C 89 % 1005,0 hPa 0,0 l/m 18,8 km/h (3 Bft) W-SW 240 0 min 0,000 mm 0,0 UV-I 0 W/m -0,1 C -7,1 C 29,0 km/h (5 Bft) 100,00 %
11.02.2016 04:24 1,6 C 89 % 1005,0 hPa 0,0 l/m 18,3 km/h (3 Bft) SW 215 0 min 0,000 mm 0,0 UV-I 0 W/m -0,0 C -6,8 C 22,5 km/h (4 Bft) 95,65 %
11.02.2016 04:25 1,5 C 89 % 1005,0 hPa 0,0 l/m 17,1 km/h (3 Bft) SW 225 0 min 0,000 mm 0,0 UV-I 0 W/m -0,1 C -6,3 C 22,5 km/h (4 Bft) 100,00 %
11.02.2016 04:26 1,5 C 89 % 1005,0 hPa 0,0 l/m 25,0 km/h (4 Bft) W-SW 243 0 min 0,000 mm 0,0 UV-I 0 W/m -0,1 C -9,7 C 35,4 km/h (5 Bft) 95,65 %
11.02.2016 04:27 1,6 C 89 % 1005,0 hPa 0,0 l/m 17,4 km/h (3 Bft) SW 221 0 min 0,000 mm 0,0 UV-I 0 W/m -0,0 C -6,3 C 25,7 km/h (4 Bft) 100,00 %
11.02.2016 04:28 1,6 C 89 % 1005,1 hPa 0,0 l/m 23,5 km/h (4 Bft) SW 221 0 min 0,000 mm 0,0 UV-I 0 W/m -0,0 C -9,0 C 29,0 km/h (5 Bft) 95,65 %
11.02.2016 04:29 1,6 C 89 % 1005,1 hPa 0,0 l/m 15,2 km/h (3 Bft) W-SW 252 0 min 0,000 mm 0,0 UV-I 0 W/m -0,0 C -5,2 C 22,5 km/h (4 Bft) 100,00 %
11.02.2016 04:30 1,6 C 89 % 1005,0 hPa 0,0 l/m 20,2 km/h (4 Bft) SW 226 0 min 0,000 mm 0,0 UV-I 0 W/m -0,0 C -7,7 C 29,0 km/h (5 Bft) 95,65 %
11.02.2016 04:31 1,6 C 89 % 1005,1 hPa 0,0 l/m 22,1 km/h (4 Bft) SW 228 0 min 0,000 mm 0,0 UV-I 0 W/m -0,0 C -8,5 C 32,2 km/h (5 Bft) 95,83 %
11.02.2016 04:32 1,6 C 89 % 1005,1 hPa 0,0 l/m 19,2 km/h (3 Bft) SW 215 0 min 0,000 mm 0,0 UV-I 0 W/m -0,0 C -7,2 C 24,1 km/h (4 Bft) 100,00 %
11.02.2016 04:33 1,6 C 89 % 1005,1 hPa 0,0 l/m 19,1 km/h (3 Bft) SW 226 0 min 0,000 mm 0,0 UV-I 0 W/m -0,0 C -7,2 C 25,7 km/h (4 Bft) 100,00 %
11.02.2016 04:34 1,6 C 89 % 1005,1 hPa 0,0 l/m 22,5 km/h (4 Bft) W-SW 246 0 min 0,000 mm 0,0 UV-I 0 W/m -0,0 C -8,6 C 29,0 km/h (5 Bft) 100,00 %
11.02.2016 04:35 1,6 C 89 % 1005,1 hPa 0,0 l/m 26,8 km/h (4 Bft) SW 226 0 min 0,000 mm 0,0 UV-I 0 W/m -0,0 C -10,2 C 40,2 km/h (6 Bft) 100,00 %
11.02.2016 04:36 1,6 C 89 % 1005,1 hPa 0,0 l/m 18,0 km/h (3 Bft) S 191 0 min 0,000 mm 0,0 UV-I 0 W/m -0,0 C -6,6 C 29,0 km/h (5 Bft) 100,00 %
11.02.2016 04:37 1,6 C 88 % 1005,1 hPa 0,0 l/m 14,6 km/h (3 Bft) S 189 0 min 0,000 mm 0,0 UV-I 0 W/m -0,2 C -4,8 C 20,9 km/h (4 Bft) 95,83 %
11.02.2016 04:38 1,6 C 88 % 1005,1 hPa 0,0 l/m 17,4 km/h (3 Bft) W-SW 246 0 min 0,000 mm 0,0 UV-I 0 W/m -0,2 C -6,3 C 29,0 km/h (5 Bft) 100,00 %
11.02.2016 04:39 1,6 C 88 % 1005,2 hPa 0,0 l/m 21,5 km/h (4 Bft) W-SW 250 0 min 0,000 mm 0,0 UV-I 0 W/m -0,2 C -8,2 C 29,0 km/h (5 Bft) 100,00 %
11.02.2016 04:40 1,6 C 88 % 1005,1 hPa 0,0 l/m 20,3 km/h (4 Bft) W-SW 248 0 min 0,000 mm 0,0 UV-I 0 W/m -0,2 C -7,7 C 24,1 km/h (4 Bft) 100,00 %
11.02.2016 04:41 1,6 C 88 % 1005,2 hPa 0,0 l/m 21,1 km/h (4 Bft) W-SW 246 0 min 0,000 mm 0,0 UV-I 0 W/m -0,2 C -8,0 C 30,6 km/h (5 Bft) 100,00 %
11.02.2016 04:42 1,6 C 88 % 1005,2 hPa 0,0 l/m 14,3 km/h (3 Bft) SW 233 0 min 0,000 mm 0,0 UV-I 0 W/m -0,2 C -4,6 C 24,1 km/h (4 Bft) 100,00 %
11.02.2016 04:43 1,6 C 88 % 1005,1 hPa 0,0 l/m 23,8 km/h (4 Bft) SW 224 0 min 0,000 mm 0,0 UV-I 0 W/m -0,2 C -9,1 C 29,0 km/h (5 Bft) 100,00 %
11.02.2016 04:44 1,6 C 88 % 1005,1 hPa 0,0 l/m 24,7 km/h (4 Bft) S-SW 213 0 min 0,000 mm 0,0 UV-I 0 W/m -0,2 C -9,4 C 32,2 km/h (5 Bft) 100,00 %
11.02.2016 04:45 1,6 C 88 % 1005,1 hPa 0,0 l/m 17,2 km/h (3 Bft) W-SW 248 0 min 0,000 mm 0,0 UV-I 0 W/m -0,2 C -6,2 C 22,5 km/h (4 Bft) 95,65 %
11.02.2016 04:46 1,6 C 88 % 1005,2 hPa 0,0 l/m 13,3 km/h (3 Bft) S-SW 209 0 min 0,000 mm 0,0 UV-I 0 W/m -0,2 C -4,0 C 20,9 km/h (4 Bft) 100,00 %
11.02.2016 04:47 1,7 C 88 % 1005,2 hPa 0,0 l/m 20,6 km/h (4 Bft) S-SW 210 0 min 0,000 mm 0,0 UV-I 0 W/m -0,1 C -7,7 C 29,0 km/h (5 Bft) 100,00 %
11.02.2016 04:48 1,7 C 88 % 1005,1 hPa 0,0 l/m 24,1 km/h (4 Bft) SW 217 0 min 0,000 mm 0,0 UV-I 0 W/m -0,1 C -9,1 C 33,8 km/h (5 Bft) 100,00 %
11.02.2016 04:49 1,7 C 88 % 1005,1 hPa 0,0 l/m 20,0 km/h (4 Bft) W-SW 240 0 min 0,000 mm 0,0 UV-I 0 W/m -0,1 C -7,4 C 27,4 km/h (4 Bft) 96,15 %
11.02.2016 04:50 1,7 C 88 % 1005,1 hPa 0,0 l/m 23,7 km/h (4 Bft) W-SW 250 0 min 0,000 mm 0,0 UV-I 0 W/m -0,1 C -8,9 C 32,2 km/h (5 Bft) 95,83 %
11.02.2016 04:51 1,7 C 88 % 1005,1 hPa 0,0 l/m 25,7 km/h (4 Bft) S-SW 200 0 min 0,000 mm 0,0 UV-I 0 W/m -0,1 C -9,7 C 32,2 km/h (5 Bft) 85,71 %
11.02.2016 04:52 1,7 C 87 % 1005,1 hPa 0,0 l/m 19,5 km/h (3 Bft) SW 228 0 min 0,000 mm 0,0 UV-I 0 W/m -0,2 C -7,2 C 27,4 km/h (4 Bft) 100,00 %
11.02.2016 04:53 1,7 C 87 % 1005,2 hPa 0,0 l/m 25,3 km/h (4 Bft) W-SW 252 0 min 0,000 mm 0,0 UV-I 0 W/m -0,2 C -9,5 C 30,6 km/h (5 Bft) 95,65 %
11.02.2016 04:54 1,7 C 87 % 1005,2 hPa 0,0 l/m 16,6 km/h (3 Bft) SW 222 0 min 0,000 mm 0,0 UV-I 0 W/m -0,2 C -5,8 C 27,4 km/h (4 Bft) 100,00 %
11.02.2016 04:55 1,7 C 87 % 1005,2 hPa 0,0 l/m 21,0 km/h (4 Bft) SW 217 0 min 0,000 mm 0,0 UV-I 0 W/m -0,2 C -7,9 C 30,6 km/h (5 Bft) 91,30 %
11.02.2016 04:56 1,7 C 87 % 1005,2 hPa 0,0 l/m 20,0 km/h (4 Bft) W-SW 244 0 min 0,000 mm 0,0 UV-I 0 W/m -0,2 C -7,4 C 24,1 km/h (4 Bft) 100,00 %
11.02.2016 04:57 1,7 C 87 % 1005,2 hPa 0,0 l/m 15,6 km/h (3 Bft) W-SW 250 0 min 0,000 mm 0,0 UV-I 0 W/m -0,2 C -5,3 C 20,9 km/h (4 Bft) 91,30 %
11.02.2016 04:58 1,7 C 87 % 1005,2 hPa 0,0 l/m 16,4 km/h (3 Bft) SW 225 0 min 0,000 mm 0,0 UV-I 0 W/m -0,2 C -5,7 C 22,5 km/h (4 Bft) 95,83 %
11.02.2016 04:59 1,7 C 87 % 1005,2 hPa 0,0 l/m 21,8 km/h (4 Bft) SW 232 0 min 0,000 mm 0,0 UV-I 0 W/m -0,2 C -8,2 C 32,2 km/h (5 Bft) 95,83 %
11.02.2016 05:00 1,8 C 87 % 1005,3 hPa 0,0 l/m 26,7 km/h (4 Bft) S-SW 208 0 min 0,026 mm 0,0 UV-I 0 W/m -0,1 C -9,9 C 38,6 km/h (5 Bft) 91,30 %
11.02.2016 05:01 1,8 C 86 % 1005,3 hPa 0,0 l/m 21,1 km/h (4 Bft) SW 225 0 min 0,000 mm 0,0 UV-I 0 W/m -0,3 C -7,8 C 29,0 km/h (5 Bft) 100,00 %
11.02.2016 05:02 1,8 C 86 % 1005,3 hPa 0,0 l/m 24,1 km/h (4 Bft) SW 228 0 min 0,000 mm 0,0 UV-I 0 W/m -0,3 C -9,0 C 33,8 km/h (5 Bft) 91,30 %
11.02.2016 05:03 1,8 C 86 % 1005,3 hPa 0,0 l/m 19,8 km/h (3 Bft) S-SW 192 0 min 0,000 mm 0,0 UV-I 0 W/m -0,3 C -7,2 C 27,4 km/h (4 Bft) 100,00 %
11.02.2016 05:04 1,8 C 86 % 1005,3 hPa 0,0 l/m 18,3 km/h (3 Bft) W-SW 240 0 min 0,000 mm 0,0 UV-I 0 W/m -0,3 C -6,5 C 25,7 km/h (4 Bft) 95,65 %
11.02.2016 05:05 1,8 C 86 % 1005,3 hPa 0,0 l/m 24,3 km/h (4 Bft) W-SW 245 0 min 0,000 mm 0,0 UV-I 0 W/m -0,3 C -9,0 C 30,6 km/h (5 Bft) 100,00 %
11.02.2016 05:06 1,8 C 86 % 1005,3 hPa 0,0 l/m 21,5 km/h (4 Bft) S-SW 213 0 min 0,000 mm 0,0 UV-I 0 W/m -0,3 C -7,9 C 29,0 km/h (5 Bft) 91,30 %
11.02.2016 05:07 1,8 C 86 % 1005,3 hPa 0,0 l/m 21,2 km/h (4 Bft) S-SW 213 0 min 0,000 mm 0,0 UV-I 0 W/m -0,3 C -7,8 C 32,2 km/h (5 Bft) 96,30 %
11.02.2016 05:08 1,9 C 86 % 1005,4 hPa 0,0 l/m 17,5 km/h (3 Bft) W 271 0 min 0,000 mm 0,0 UV-I 0 W/m -0,2 C -6,0 C 27,4 km/h (4 Bft) 100,00 %
11.02.2016 05:09 1,9 C 85 % 1005,4 hPa 0,0 l/m 22,7 km/h (4 Bft) W-SW 240 0 min 0,000 mm 0,0 UV-I 0 W/m -0,3 C -8,3 C 37,0 km/h (5 Bft) 95,83 %
11.02.2016 05:10 1,9 C 85 % 1005,4 hPa 0,0 l/m 23,2 km/h (4 Bft) S 191 0 min 0,000 mm 0,0 UV-I 0 W/m -0,3 C -8,5 C 29,0 km/h (5 Bft) 100,00 %
11.02.2016 05:11 1,9 C 85 % 1005,4 hPa 0,0 l/m 21,5 km/h (4 Bft) W-SW 252 0 min 0,000 mm 0,0 UV-I 0 W/m -0,3 C -7,8 C 29,0 km/h (5 Bft) 95,83 %
11.02.2016 05:12 1,9 C 85 % 1005,4 hPa 0,0 l/m 18,2 km/h (3 Bft) W-SW 241 0 min 0,000 mm 0,0 UV-I 0 W/m -0,3 C -6,4 C 30,6 km/h (5 Bft) 100,00 %
11.02.2016 05:13 1,9 C 85 % 1005,4 hPa 0,0 l/m 20,6 km/h (4 Bft) SW 234 0 min 0,000 mm 0,0 UV-I 0 W/m -0,3 C -7,4 C 29,0 km/h (5 Bft) 95,83 %
11.02.2016 05:14 1,9 C 85 % 1005,5 hPa 0,0 l/m 15,8 km/h (3 Bft) SW 236 0 min 0,000 mm 0,0 UV-I 0 W/m -0,3 C -5,1 C 22,5 km/h (4 Bft) 100,00 %
11.02.2016 05:15 1,9 C 85 % 1005,5 hPa 0,0 l/m 15,8 km/h (3 Bft) SW 232 0 min 0,000 mm 0,0 UV-I 0 W/m -0,3 C -5,1 C 27,4 km/h (4 Bft) 95,83 %
11.02.2016 05:16 1,9 C 85 % 1005,5 hPa 0,0 l/m 19,8 km/h (3 Bft) SW 235 0 min 0,000 mm 0,0 UV-I 0 W/m -0,3 C -7,1 C 25,7 km/h (4 Bft) 95,65 %
11.02.2016 05:17 2,0 C 85 % 1005,5 hPa 0,0 l/m 20,9 km/h (4 Bft) SW 229 0 min 0,000 mm 0,0 UV-I 0 W/m -0,3 C -7,4 C 30,6 km/h (5 Bft) 95,83 %
11.02.2016 05:18 2,0 C 85 % 1005,4 hPa 0,0 l/m 24,7 km/h (4 Bft) W-SW 246 0 min 0,000 mm 0,0 UV-I 0 W/m -0,3 C -8,9 C 32,2 km/h (5 Bft) 95,65 %
11.02.2016 05:19 2,0 C 85 % 1005,5 hPa 0,0 l/m 17,4 km/h (3 Bft) W-SW 257 0 min 0,000 mm 0,0 UV-I 0 W/m -0,3 C -5,8 C 22,5 km/h (4 Bft) 100,00 %
11.02.2016 05:20 2,0 C 85 % 1005,5 hPa 0,0 l/m 15,2 km/h (3 Bft) SW 218 0 min 0,000 mm 0,0 UV-I 0 W/m -0,3 C -4,7 C 20,9 km/h (4 Bft) 91,30 %
11.02.2016 05:21 2,0 C 85 % 1005,5 hPa 0,0 l/m 18,6 km/h (3 Bft) W-SW 248 0 min 0,000 mm 0,0 UV-I 0 W/m -0,3 C -6,4 C 27,4 km/h (4 Bft) 100,00 %
11.02.2016 05:22 2,0 C 84 % 1005,5 hPa 0,0 l/m 28,4 km/h (4 Bft) S-SW 211 0 min 0,000 mm 0,0 UV-I 0 W/m -0,4 C -10,1 C 40,2 km/h (6 Bft) 91,67 %
11.02.2016 05:23 2,0 C 84 % 1005,5 hPa 0,0 l/m 21,8 km/h (4 Bft) W-SW 257 0 min 0,000 mm 0,0 UV-I 0 W/m -0,4 C -7,8 C 27,4 km/h (4 Bft) 100,00 %
11.02.2016 05:24 2,0 C 84 % 1005,5 hPa 0,0 l/m 21,6 km/h (4 Bft) S 183 0 min 0,000 mm 0,0 UV-I 0 W/m -0,4 C -7,7 C 30,6 km/h (5 Bft) 95,83 %
11.02.2016 05:25 2,1 C 84 % 1005,5 hPa 0,0 l/m 25,6 km/h (4 Bft) W-SW 242 0 min 0,000 mm 0,0 UV-I 0 W/m -0,3 C -9,1 C 32,2 km/h (5 Bft) 95,65 %
11.02.2016 05:26 2,1 C 84 % 1005,5 hPa 0,0 l/m 14,6 km/h (3 Bft) SW 223 0 min 0,000 mm 0,0 UV-I 0 W/m -0,3 C -4,2 C 20,9 km/h (4 Bft) 95,83 %
11.02.2016 05:27 2,1 C 84 % 1005,5 hPa 0,0 l/m 19,2 km/h (3 Bft) SW 216 0 min 0,000 mm 0,0 UV-I 0 W/m -0,3 C -6,6 C 30,6 km/h (5 Bft) 100,00 %
11.02.2016 05:28 2,1 C 84 % 1005,5 hPa 0,0 l/m 17,1 km/h (3 Bft) S 176 0 min 0,000 mm 0,0 UV-I 0 W/m -0,3 C -5,6 C 24,1 km/h (4 Bft) 100,00 %
11.02.2016 05:29 2,1 C 84 % 1005,6 hPa 0,0 l/m 19,4 km/h (3 Bft) W-SW 257 0 min 0,000 mm 0,0 UV-I 0 W/m -0,3 C -6,7 C 25,7 km/h (4 Bft) 100,00 %
11.02.2016 05:30 2,1 C 84 % 1005,5 hPa 0,0 l/m 17,8 km/h (3 Bft) SW 228 0 min 0,000 mm 0,0 UV-I 0 W/m -0,3 C -5,9 C 30,6 km/h (5 Bft) 100,00 %
11.02.2016 05:31 2,1 C 84 % 1005,5 hPa 0,0 l/m 22,5 km/h (4 Bft) SW 227 0 min 0,000 mm 0,0 UV-I 0 W/m -0,3 C -8,0 C 32,2 km/h (5 Bft) 100,00 %
11.02.2016 05:32 2,1 C 84 % 1005,5 hPa 0,0 l/m 15,6 km/h (3 Bft) SW 220 0 min 0,000 mm 0,0 UV-I 0 W/m -0,3 C -4,8 C 25,7 km/h (4 Bft) 100,00 %
11.02.2016 05:33 2,1 C 84 % 1005,5 hPa 0,0 l/m 13,3 km/h (3 Bft) SW 234 0 min 0,000 mm 0,0 UV-I 0 W/m -0,3 C -3,4 C 17,7 km/h (3 Bft) 100,00 %
11.02.2016 05:34 2,1 C 84 % 1005,5 hPa 0,0 l/m 14,1 km/h (3 Bft) W-SW 237 0 min 0,000 mm 0,0 UV-I 0 W/m -0,3 C -3,9 C 22,5 km/h (4 Bft) 95,83 %
11.02.2016 05:35 2,1 C 84 % 1005,5 hPa 0,0 l/m 15,9 km/h (3 Bft) S-SW 196 0 min 0,000 mm 0,0 UV-I 0 W/m -0,3 C -4,9 C 24,1 km/h (4 Bft) 100,00 %
11.02.2016 05:36 2,1 C 84 % 1005,5 hPa 0,0 l/m 17,0 km/h (3 Bft) SW 225 0 min 0,000 mm 0,0 UV-I 0 W/m -0,3 C -5,5 C 24,1 km/h (4 Bft) 100,00 %
11.02.2016 05:37 2,1 C 84 % 1005,5 hPa 0,0 l/m 15,2 km/h (3 Bft) W 262 0 min 0,000 mm 0,0 UV-I 0 W/m -0,3 C -4,5 C 20,9 km/h (4 Bft) 95,65 %
11.02.2016 05:38 2,1 C 83 % 1005,5 hPa 0,0 l/m 24,9 km/h (4 Bft) W-SW 247 0 min 0,000 mm 0,0 UV-I 0 W/m -0,5 C -8,8 C 33,8 km/h (5 Bft) 95,83 %
11.02.2016 05:39 2,1 C 83 % 1005,4 hPa 0,0 l/m 22,5 km/h (4 Bft) W-SW 257 0 min 0,000 mm 0,0 UV-I 0 W/m -0,5 C -8,0 C 30,6 km/h (5 Bft) 95,83 %
11.02.2016 05:40 2,1 C 83 % 1005,5 hPa 0,0 l/m 18,0 km/h (3 Bft) W-SW 240 0 min 0,000 mm 0,0 UV-I 0 W/m -0,5 C -6,0 C 22,5 km/h (4 Bft) 100,00 %
11.02.2016 05:41 2,1 C 83 % 1005,5 hPa 0,0 l/m 19,0 km/h (3 Bft) SW 224 0 min 0,000 mm 0,0 UV-I 0 W/m -0,5 C -6,5 C 22,5 km/h (4 Bft) 100,00 %
11.02.2016 05:42 2,1 C 83 % 1005,4 hPa 0,0 l/m 19,0 km/h (3 Bft) W-SW 242 0 min 0,000 mm 0,0 UV-I 0 W/m -0,5 C -6,5 C 29,0 km/h (5 Bft) 100,00 %
11.02.2016 05:43 2,1 C 83 % 1005,4 hPa 0,0 l/m 16,2 km/h (3 Bft) W-SW 240 0 min 0,000 mm 0,0 UV-I 0 W/m -0,5 C -5,1 C 22,5 km/h (4 Bft) 100,00 %
11.02.2016 05:44 2,1 C 83 % 1005,5 hPa 0,0 l/m 18,8 km/h (3 Bft) W-SW 247 0 min 0,000 mm 0,0 UV-I 0 W/m -0,5 C -6,4 C 30,6 km/h (5 Bft) 96,15 %
11.02.2016 05:45 2,1 C 83 % 1005,5 hPa 0,0 l/m 31,0 km/h (5 Bft) S-SO 153 0 min 0,000 mm 0,0 UV-I 0 W/m -0,5 C -10,7 C 40,2 km/h (6 Bft) 100,00 %
11.02.2016 05:46 2,2 C 83 % 1005,4 hPa 0,0 l/m 23,1 km/h (4 Bft) W-SW 250 0 min 0,000 mm 0,0 UV-I 0 W/m -0,4 C -8,0 C 32,2 km/h (5 Bft) 100,00 %
11.02.2016 05:47 2,2 C 82 % 1005,5 hPa 0,0 l/m 18,0 km/h (3 Bft) W-SW 240 0 min 0,000 mm 0,0 UV-I 0 W/m -0,5 C -5,9 C 24,1 km/h (4 Bft) 100,00 %
11.02.2016 05:48 2,2 C 83 % 1005,5 hPa 0,0 l/m 21,1 km/h (4 Bft) S-SW 208 0 min 0,000 mm 0,0 UV-I 0 W/m -0,4 C -7,3 C 35,4 km/h (5 Bft) 100,00 %
11.02.2016 05:49 2,2 C 82 % 1005,4 hPa 0,0 l/m 25,0 km/h (4 Bft) W-SW 255 0 min 0,000 mm 0,0 UV-I 0 W/m -0,5 C -8,7 C 41,8 km/h (6 Bft) 100,00 %
11.02.2016 05:50 2,2 C 82 % 1005,5 hPa 0,0 l/m 21,0 km/h (4 Bft) SW 233 0 min 0,000 mm 0,0 UV-I 0 W/m -0,5 C -7,2 C 30,6 km/h (5 Bft) 100,00 %
11.02.2016 05:51 2,2 C 82 % 1005,5 hPa 0,0 l/m 28,2 km/h (4 Bft) SW 215 0 min 0,000 mm 0,0 UV-I 0 W/m -0,5 C -9,8 C 43,5 km/h (6 Bft) 100,00 %
11.02.2016 05:52 2,2 C 82 % 1005,5 hPa 0,0 l/m 25,2 km/h (4 Bft) W-SW 257 0 min 0,000 mm 0,0 UV-I 0 W/m -0,5 C -8,8 C 37,0 km/h (5 Bft) 100,00 %
11.02.2016 05:53 2,2 C 82 % 1005,4 hPa 0,0 l/m 24,3 km/h (4 Bft) SW 225 0 min 0,000 mm 0,0 UV-I 0 W/m -0,5 C -8,5 C 37,0 km/h (5 Bft) 96,30 %
11.02.2016 05:54 2,2 C 82 % 1005,4 hPa 0,0 l/m 24,2 km/h (4 Bft) W-SW 242 0 min 0,000 mm 0,0 UV-I 0 W/m -0,5 C -8,5 C 37,0 km/h (5 Bft) 100,00 %
11.02.2016 05:55 2,2 C 82 % 1005,4 hPa 0,0 l/m 21,8 km/h (4 Bft) S-SW 213 0 min 0,000 mm 0,0 UV-I 0 W/m -0,5 C -7,5 C 27,4 km/h (4 Bft) 100,00 %
11.02.2016 05:56 2,2 C 82 % 1005,4 hPa 0,0 l/m 18,0 km/h (3 Bft) W-SW 238 0 min 0,000 mm 0,0 UV-I 0 W/m -0,5 C -5,9 C 35,4 km/h (5 Bft) 100,00 %
11.02.2016 05:57 2,2 C 82 % 1005,4 hPa 0,0 l/m 24,8 km/h (4 Bft) S-SW 197 0 min 0,000 mm 0,0 UV-I 0 W/m -0,5 C -8,7 C 30,6 km/h (5 Bft) 100,00 %
11.02.2016 05:58 2,2 C 82 % 1005,4 hPa 0,0 l/m 27,3 km/h (4 Bft) SW 235 0 min 0,000 mm 0,0 UV-I 0 W/m -0,5 C -9,5 C 33,8 km/h (5 Bft) 100,00 %
11.02.2016 05:59 2,2 C 82 % 1005,4 hPa 0,0 l/m 21,9 km/h (4 Bft) SW 236 0 min 0,000 mm 0,0 UV-I 0 W/m -0,5 C -7,6 C 29,0 km/h (5 Bft) 100,00 %
11.02.2016 06:00 2,2 C 82 % 1005,4 hPa 0,0 l/m 19,2 km/h (3 Bft) SW 229 0 min 0,000 mm 0,0 UV-I 0 W/m -0,5 C -6,4 C 27,4 km/h (4 Bft) 95,65 %
11.02.2016 06:01 2,2 C 82 % 1005,4 hPa 0,0 l/m 15,6 km/h (3 Bft) SW 219 0 min 0,025 mm 0,0 UV-I 0 W/m -0,5 C -4,6 C 20,9 km/h (4 Bft) 95,83 %
11.02.2016 06:02 2,2 C 82 % 1005,4 hPa 0,0 l/m 20,1 km/h (4 Bft) W-SW 240 0 min 0,000 mm 0,0 UV-I 0 W/m -0,5 C -6,8 C 35,4 km/h (5 Bft) 95,65 %
11.02.2016 06:03 2,2 C 82 % 1005,4 hPa 0,0 l/m 26,2 km/h (4 Bft) W-SW 247 0 min 0,000 mm 0,0 UV-I 0 W/m -0,5 C -9,1 C 38,6 km/h (5 Bft) 100,00 %
11.02.2016 06:04 2,2 C 82 % 1005,4 hPa 0,0 l/m 23,8 km/h (4 Bft) SW 234 0 min 0,000 mm 0,0 UV-I 0 W/m -0,5 C -8,3 C 32,2 km/h (5 Bft) 100,00 %
11.02.2016 06:05 2,2 C 82 % 1005,5 hPa 0,0 l/m 19,8 km/h (3 Bft) W-SW 252 0 min 0,000 mm 0,0 UV-I 0 W/m -0,5 C -6,7 C 25,7 km/h (4 Bft) 100,00 %
11.02.2016 06:06 2,2 C 82 % 1005,5 hPa 0,0 l/m 20,0 km/h (4 Bft) W-SW 254 0 min 0,000 mm 0,0 UV-I 0 W/m -0,5 C -6,8 C 27,4 km/h (4 Bft) 100,00 %
11.02.2016 06:07 2,2 C 82 % 1005,5 hPa 0,0 l/m 25,9 km/h (4 Bft) W-SW 240 0 min 0,000 mm 0,0 UV-I 0 W/m -0,5 C -9,0 C 37,0 km/h (5 Bft) 100,00 %
11.02.2016 06:08 2,2 C 82 % 1005,5 hPa 0,0 l/m 20,0 km/h (4 Bft) W-SW 246 0 min 0,000 mm 0,0 UV-I 0 W/m -0,5 C -6,8 C 27,4 km/h (4 Bft) 100,00 %
11.02.2016 06:09 2,2 C 82 % 1005,5 hPa 0,0 l/m 20,5 km/h (4 Bft) W-SW 249 0 min 0,000 mm 0,0 UV-I 0 W/m -0,5 C -7,0 C 33,8 km/h (5 Bft) 100,00 %
11.02.2016 06:10 2,2 C 82 % 1005,5 hPa 0,0 l/m 27,1 km/h (4 Bft) SW 220 0 min 0,000 mm 0,0 UV-I 0 W/m -0,5 C -9,4 C 40,2 km/h (6 Bft) 95,83 %
11.02.2016 06:11 2,2 C 82 % 1005,5 hPa 0,0 l/m 28,3 km/h (4 Bft) W-SW 252 0 min 0,000 mm 0,0 UV-I 0 W/m -0,5 C -9,8 C 41,8 km/h (6 Bft) 100,00 %
11.02.2016 06:12 2,2 C 82 % 1005,6 hPa 0,0 l/m 20,5 km/h (4 Bft) SW 224 0 min 0,000 mm 0,0 UV-I 0 W/m -0,5 C -7,0 C 30,6 km/h (5 Bft) 95,83 %
11.02.2016 06:13 2,2 C 82 % 1005,6 hPa 0,0 l/m 22,9 km/h (4 Bft) SW 234 0 min 0,000 mm 0,0 UV-I 0 W/m -0,5 C -8,0 C 35,4 km/h (5 Bft) 95,65 %
11.02.2016 06:14 2,2 C 82 % 1005,6 hPa 0,0 l/m 24,2 km/h (4 Bft) W-SW 244 0 min 0,000 mm 0,0 UV-I 0 W/m -0,5 C -8,5 C 30,6 km/h (5 Bft) 100,00 %
11.02.2016 06:15 2,2 C 82 % 1005,6 hPa 0,0 l/m 24,1 km/h (4 Bft) W-SW 246 0 min 0,000 mm 0,0 UV-I 0 W/m -0,5 C -8,4 C 32,2 km/h (5 Bft) 100,00 %
11.02.2016 06:16 2,2 C 82 % 1005,5 hPa 0,0 l/m 21,3 km/h (4 Bft) W-SW 240 0 min 0,000 mm 0,0 UV-I 0 W/m -0,5 C -7,3 C 27,4 km/h (4 Bft) 100,00 %
11.02.2016 06:17 2,2 C 82 % 1005,5 hPa 0,0 l/m 20,7 km/h (4 Bft) SW 221 0 min 0,000 mm 0,0 UV-I 0 W/m -0,5 C -7,1 C 30,6 km/h (5 Bft) 100,00 %
11.02.2016 06:18 2,2 C 82 % 1005,5 hPa 0,0 l/m 22,7 km/h (4 Bft) W-SW 258 0 min 0,000 mm 0,0 UV-I 0 W/m -0,5 C -7,9 C 40,2 km/h (6 Bft) 95,83 %
11.02.2016 06:19 2,2 C 82 % 1005,5 hPa 0,0 l/m 22,5 km/h (4 Bft) S 184 0 min 0,000 mm 0,0 UV-I 0 W/m -0,5 C -7,8 C 32,2 km/h (5 Bft) 100,00 %
11.02.2016 06:20 2,2 C 82 % 1005,6 hPa 0,0 l/m 20,5 km/h (4 Bft) W-SW 238 0 min 0,000 mm 0,0 UV-I 0 W/m -0,5 C -7,0 C 33,8 km/h (5 Bft) 100,00 %
11.02.2016 06:21 2,2 C 82 % 1005,6 hPa 0,0 l/m 19,0 km/h (3 Bft) SW 223 0 min 0,000 mm 0,0 UV-I 0 W/m -0,5 C -6,3 C 25,7 km/h (4 Bft) 100,00 %
11.02.2016 06:22 2,2 C 82 % 1005,5 hPa 0,0 l/m 23,3 km/h (4 Bft) S-SW 201 0 min 0,000 mm 0,0 UV-I 0 W/m -0,5 C -8,1 C 37,0 km/h (5 Bft) 95,65 %
11.02.2016 06:23 2,2 C 82 % 1005,5 hPa 0,0 l/m 21,6 km/h (4 Bft) W-SW 241 0 min 0,000 mm 0,0 UV-I 0 W/m -0,5 C -7,5 C 29,0 km/h (5 Bft) 100,00 %
11.02.2016 06:24 2,2 C 82 % 1005,5 hPa 0,0 l/m 17,0 km/h (3 Bft) W 264 0 min 0,000 mm 0,0 UV-I 0 W/m -0,5 C -5,4 C 27,4 km/h (4 Bft) 91,30 %
11.02.2016 06:25 2,2 C 82 % 1005,5 hPa 0,0 l/m 18,6 km/h (3 Bft) S-SW 213 0 min 0,000 mm 0,0 UV-I 0 W/m -0,5 C -6,2 C 24,1 km/h (4 Bft) 95,83 %
11.02.2016 06:26 2,2 C 82 % 1005,6 hPa 0,0 l/m 25,5 km/h (4 Bft) W-SW 258 0 min 0,000 mm 0,0 UV-I 0 W/m -0,5 C -8,9 C 32,2 km/h (5 Bft) 95,65 %
11.02.2016 06:27 2,2 C 82 % 1005,6 hPa 0,0 l/m 24,5 km/h (4 Bft) SW 230 0 min 0,000 mm 0,0 UV-I 0 W/m -0,5 C -8,6 C 41,8 km/h (6 Bft) 100,00 %
11.02.2016 06:28 2,2 C 81 % 1005,6 hPa 0,0 l/m 21,5 km/h (4 Bft) S-SW 211 0 min 0,000 mm 0,0 UV-I 0 W/m -0,7 C -7,4 C 32,2 km/h (5 Bft) 100,00 %
11.02.2016 06:29 2,3 C 81 % 1005,6 hPa 0,0 l/m 19,4 km/h (3 Bft) S-SW 207 0 min 0,000 mm 0,0 UV-I 0 W/m -0,6 C -6,4 C 33,8 km/h (5 Bft) 100,00 %
11.02.2016 06:30 2,3 C 81 % 1005,6 hPa 0,0 l/m 29,0 km/h (5 Bft) SW 215 0 min 0,000 mm 0,0 UV-I 0 W/m -0,6 C -9,9 C 38,6 km/h (5 Bft) 100,00 %
11.02.2016 06:31 2,3 C 81 % 1005,6 hPa 0,0 l/m 26,1 km/h (4 Bft) SW 223 0 min 0,000 mm 0,0 UV-I 0 W/m -0,6 C -9,0 C 40,2 km/h (6 Bft) 95,83 %
11.02.2016 06:32 2,3 C 81 % 1005,6 hPa 0,0 l/m 27,2 km/h (4 Bft) W-SW 240 0 min 0,000 mm 0,0 UV-I 0 W/m -0,6 C -9,3 C 38,6 km/h (5 Bft) 100,00 %
11.02.2016 06:33 2,3 C 81 % 1005,7 hPa 0,0 l/m 22,1 km/h (4 Bft) W-SW 238 0 min 0,000 mm 0,0 UV-I 0 W/m -0,6 C -7,5 C 30,6 km/h (5 Bft) 100,00 %
11.02.2016 06:34 2,3 C 81 % 1005,7 hPa 0,0 l/m 26,9 km/h (4 Bft) W-SW 239 0 min 0,000 mm 0,0 UV-I 0 W/m -0,6 C -9,2 C 38,6 km/h (5 Bft) 100,00 %
11.02.2016 06:35 2,3 C 81 % 1005,6 hPa 0,0 l/m 21,6 km/h (4 Bft) W-SW 247 0 min 0,000 mm 0,0 UV-I 0 W/m -0,6 C -7,3 C 30,6 km/h (5 Bft) 100,00 %
11.02.2016 06:36 2,3 C 81 % 1005,7 hPa 0,0 l/m 26,8 km/h (4 Bft) SW 234 0 min 0,000 mm 0,0 UV-I 0 W/m -0,6 C -9,2 C 35,4 km/h (5 Bft) 100,00 %
11.02.2016 06:37 2,3 C 81 % 1005,7 hPa 0,0 l/m 19,0 km/h (3 Bft) SW 236 0 min 0,000 mm 0,0 UV-I 0 W/m -0,6 C -6,2 C 29,0 km/h (5 Bft) 95,83 %
11.02.2016 06:38 2,3 C 81 % 1005,7 hPa 0,0 l/m 18,8 km/h (3 Bft) W-SW 247 0 min 0,000 mm 0,0 UV-I 0 W/m -0,6 C -6,1 C 24,1 km/h (4 Bft) 100,00 %
11.02.2016 06:39 2,3 C 81 % 1005,7 hPa 0,0 l/m 20,9 km/h (4 Bft) SW 214 0 min 0,000 mm 0,0 UV-I 0 W/m -0,6 C -7,0 C 32,2 km/h (5 Bft) 100,00 %
11.02.2016 06:40 2,3 C 81 % 1005,7 hPa 0,0 l/m 20,3 km/h (4 Bft) SW 217 0 min 0,000 mm 0,0 UV-I 0 W/m -0,6 C -6,8 C 30,6 km/h (5 Bft) 100,00 %
11.02.2016 06:41 2,3 C 81 % 1005,7 hPa 0,0 l/m 23,5 km/h (4 Bft) SW 216 0 min 0,000 mm 0,0 UV-I 0 W/m -0,6 C -8,1 C 35,4 km/h (5 Bft) 95,65 %
11.02.2016 06:42 2,3 C 81 % 1005,7 hPa 0,0 l/m 23,6 km/h (4 Bft) SW 233 0 min 0,000 mm 0,0 UV-I 0 W/m -0,6 C -8,1 C 33,8 km/h (5 Bft) 100,00 %
11.02.2016 06:43 2,3 C 81 % 1005,7 hPa 0,0 l/m 20,0 km/h (4 Bft) W-SW 238 0 min 0,000 mm 0,0 UV-I 0 W/m -0,6 C -6,7 C 25,7 km/h (4 Bft) 100,00 %
11.02.2016 06:44 2,3 C 81 % 1005,7 hPa 0,0 l/m 24,3 km/h (4 Bft) W-SW 248 0 min 0,000 mm 0,0 UV-I 0 W/m -0,6 C -8,4 C 29,0 km/h (5 Bft) 100,00 %
11.02.2016 06:45 2,3 C 81 % 1005,7 hPa 0,0 l/m 19,1 km/h (3 Bft) S-SW 212 0 min 0,000 mm 0,0 UV-I 0 W/m -0,6 C -6,3 C 27,4 km/h (4 Bft) 100,00 %
11.02.2016 06:46 2,3 C 81 % 1005,7 hPa 0,0 l/m 20,3 km/h (4 Bft) W-SW 257 0 min 0,000 mm 0,0 UV-I 0 W/m -0,6 C -6,8 C 27,4 km/h (4 Bft) 100,00 %
11.02.2016 06:47 2,3 C 81 % 1005,7 hPa 0,0 l/m 21,9 km/h (4 Bft) W-SW 252 0 min 0,000 mm 0,0 UV-I 0 W/m -0,6 C -7,4 C 37,0 km/h (5 Bft) 100,00 %
11.02.2016 06:48 2,3 C 81 % 1005,8 hPa 0,0 l/m 21,4 km/h (4 Bft) W-SW 240 0 min 0,000 mm 0,0 UV-I 0 W/m -0,6 C -7,2 C 29,0 km/h (5 Bft) 100,00 %
11.02.2016 06:49 2,3 C 81 % 1005,8 hPa 0,0 l/m 24,0 km/h (4 Bft) SW 216 0 min 0,000 mm 0,0 UV-I 0 W/m -0,6 C -8,2 C 33,8 km/h (5 Bft) 96,15 %
11.02.2016 06:50 2,3 C 81 % 1005,8 hPa 0,0 l/m 21,4 km/h (4 Bft) SW 225 0 min 0,000 mm 0,0 UV-I 0 W/m -0,6 C -7,2 C 29,0 km/h (5 Bft) 100,00 %
11.02.2016 06:51 2,3 C 81 % 1005,8 hPa 0,0 l/m 18,9 km/h (3 Bft) SW 218 0 min 0,000 mm 0,0 UV-I 0 W/m -0,6 C -6,2 C 24,1 km/h (4 Bft) 95,65 %
11.02.2016 06:52 2,3 C 81 % 1005,9 hPa 0,0 l/m 22,1 km/h (4 Bft) SW 219 0 min 0,000 mm 0,0 UV-I 0 W/m -0,6 C -7,5 C 41,8 km/h (6 Bft) 100,00 %
11.02.2016 06:53 2,3 C 80 % 1005,9 hPa 0,0 l/m 29,5 km/h (5 Bft) SW 235 0 min 0,000 mm 0,0 UV-I 0 W/m -0,8 C -10,0 C 40,2 km/h (6 Bft) 100,00 %
11.02.2016 06:54 2,3 C 80 % 1005,9 hPa 0,0 l/m 21,9 km/h (4 Bft) W-SW 244 0 min 0,000 mm 0,0 UV-I 0 W/m -0,8 C -7,4 C 30,6 km/h (5 Bft) 100,00 %
11.02.2016 06:55 2,3 C 80 % 1005,8 hPa 0,0 l/m 25,0 km/h (4 Bft) W-SW 258 0 min 0,000 mm 0,0 UV-I 0 W/m -0,8 C -8,6 C 35,4 km/h (5 Bft) 100,00 %
11.02.2016 06:56 2,3 C 80 % 1005,9 hPa 0,0 l/m 22,2 km/h (4 Bft) S-SW 207 0 min 0,000 mm 0,0 UV-I 0 W/m -0,8 C -7,6 C 30,6 km/h (5 Bft) 91,67 %
11.02.2016 06:57 2,3 C 80 % 1005,9 hPa 0,0 l/m 23,7 km/h (4 Bft) S-SW 207 0 min 0,000 mm 0,0 UV-I 0 W/m -0,8 C -8,1 C 30,6 km/h (5 Bft) 95,65 %
11.02.2016 06:58 2,3 C 81 % 1005,9 hPa 0,0 l/m 19,8 km/h (3 Bft) W-SW 239 0 min 0,000 mm 0,0 UV-I 0 W/m -0,6 C -6,6 C 25,7 km/h (4 Bft) 100,00 %
11.02.2016 06:59 2,3 C 81 % 1005,9 hPa 0,0 l/m 17,6 km/h (3 Bft) W 273 0 min 0,000 mm 0,0 UV-I 0 W/m -0,6 C -5,6 C 27,4 km/h (4 Bft) 95,65 %
11.02.2016 07:00 2,3 C 81 % 1006,0 hPa 0,0 l/m 17,6 km/h (3 Bft) SW 232 0 min 0,026 mm 0,0 UV-I 0 W/m -0,6 C -5,6 C 22,5 km/h (4 Bft) 95,83 %
11.02.2016 07:01 2,3 C 81 % 1006,0 hPa 0,0 l/m 19,9 km/h (4 Bft) W-SW 241 0 min 0,000 mm 0,0 UV-I 0 W/m -0,6 C -6,6 C 29,0 km/h (5 Bft) 100,00 %
11.02.2016 07:02 2,3 C 81 % 1006,1 hPa 0,0 l/m 22,5 km/h (4 Bft) W 265 0 min 0,000 mm 0,0 UV-I 0 W/m -0,6 C -7,7 C 33,8 km/h (5 Bft) 95,65 %
11.02.2016 07:03 2,3 C 81 % 1006,0 hPa 0,0 l/m 24,5 km/h (4 Bft) W 265 0 min 0,000 mm 0,0 UV-I 0 W/m -0,6 C -8,4 C 37,0 km/h (5 Bft) 100,00 %
11.02.2016 07:04 2,3 C 81 % 1006,1 hPa 0,0 l/m 29,4 km/h (5 Bft) W-SW 247 0 min 0,000 mm 0,0 UV-I 0 W/m -0,6 C -10,0 C 40,2 km/h (6 Bft) 95,65 %
11.02.2016 07:05 2,3 C 81 % 1006,1 hPa 0,0 l/m 29,0 km/h (5 Bft) W-SW 250 0 min 0,000 mm 0,0 UV-I 0 W/m -0,6 C -9,9 C 40,2 km/h (6 Bft) 100,00 %
11.02.2016 07:06 2,3 C 81 % 1006,1 hPa 0,0 l/m 28,6 km/h (4 Bft) W-SW 248 0 min 0,000 mm 0,0 UV-I 0 W/m -0,6 C -9,8 C 40,2 km/h (6 Bft) 95,65 %
11.02.2016 07:07 2,3 C 81 % 1006,1 hPa 0,0 l/m 24,1 km/h (4 Bft) SW 225 0 min 0,000 mm 0,0 UV-I 0 W/m -0,6 C -8,3 C 35,4 km/h (5 Bft) 91,67 %
11.02.2016 07:08 2,3 C 82 % 1006,1 hPa 0,0 l/m 19,3 km/h (3 Bft) S-SW 205 0 min 0,000 mm 0,0 UV-I 0 W/m -0,4 C -6,4 C 33,8 km/h (5 Bft) 95,65 %
11.02.2016 07:09 2,2 C 82 % 1006,1 hPa 0,0 l/m 17,8 km/h (3 Bft) SW 233 0 min 0,000 mm 0,0 UV-I 0 W/m -0,5 C -5,8 C 22,5 km/h (4 Bft) 95,83 %
11.02.2016 07:10 2,2 C 82 % 1006,2 hPa 0,0 l/m 23,1 km/h (4 Bft) W-SW 256 0 min 0,000 mm 0,0 UV-I 0 W/m -0,5 C -8,0 C 37,0 km/h (5 Bft) 100,00 %
11.02.2016 07:11 2,2 C 82 % 1006,2 hPa 0,0 l/m 25,7 km/h (4 Bft) SW 215 0 min 0,000 mm 0,0 UV-I 0 W/m -0,5 C -9,0 C 35,4 km/h (5 Bft) 95,83 %
11.02.2016 07:12 2,2 C 83 % 1006,2 hPa 0,0 l/m 27,6 km/h (4 Bft) W-SW 244 0 min 0,000 mm 0,0 UV-I 0 W/m -0,4 C -9,6 C 35,4 km/h (5 Bft) 95,65 %
11.02.2016 07:13 2,2 C 83 % 1006,2 hPa 0,0 l/m 23,6 km/h (4 Bft) SW 232 0 min 0,000 mm 0,0 UV-I 0 W/m -0,4 C -8,2 C 35,4 km/h (5 Bft) 91,67 %
11.02.2016 07:14 2,1 C 83 % 1006,3 hPa 0,0 l/m 23,0 km/h (4 Bft) SW 225 0 min 0,000 mm 0,0 UV-I 0 W/m -0,5 C -8,1 C 30,6 km/h (5 Bft) 96,15 %
11.02.2016 07:15 2,1 C 83 % 1006,3 hPa 0,0 l/m 26,2 km/h (4 Bft) W-SW 252 0 min 0,000 mm 0,0 UV-I 0 W/m -0,5 C -9,3 C 37,0 km/h (5 Bft) 95,83 %
11.02.2016 07:16 2,1 C 84 % 1006,3 hPa 0,0 l/m 22,7 km/h (4 Bft) SW 219 0 min 0,000 mm 0,0 UV-I 0 W/m -0,3 C -8,0 C 29,0 km/h (5 Bft) 100,00 %
11.02.2016 07:17 2,0 C 84 % 1006,3 hPa 0,0 l/m 21,6 km/h (4 Bft) W 272 0 min 0,000 mm 0,0 UV-I 0 W/m -0,4 C -7,7 C 29,0 km/h (5 Bft) 96,30 %
11.02.2016 07:18 2,0 C 85 % 1006,5 hPa 0,0 l/m 22,0 km/h (4 Bft) W-SW 250 0 min 0,000 mm 0,0 UV-I 0 W/m -0,3 C -7,9 C 27,4 km/h (4 Bft) 91,67 %
11.02.2016 07:19 1,9 C 85 % 1006,5 hPa 0,0 l/m 19,6 km/h (3 Bft) W-SW 238 0 min 0,000 mm 0,0 UV-I 0 W/m -0,3 C -7,0 C 33,8 km/h (5 Bft) 96,15 %
11.02.2016 07:20 1,9 C 85 % 1006,7 hPa 0,0 l/m 21,1 km/h (4 Bft) W-SW 245 0 min 0,000 mm 0,0 UV-I 0 W/m -0,3 C -7,6 C 32,2 km/h (5 Bft) 100,00 %
11.02.2016 07:21 1,8 C 85 % 1006,5 hPa 0,0 l/m 19,6 km/h (3 Bft) S-SW 213 0 min 0,000 mm 0,0 UV-I 0 W/m -0,4 C -7,1 C 27,4 km/h (4 Bft) 97,37 %
11.02.2016 07:22 1,8 C 86 % 1006,5 hPa 0,0 l/m 24,3 km/h (4 Bft) W 261 0 min 0,000 mm 0,0 UV-I 0 W/m -0,3 C -9,0 C 30,6 km/h (5 Bft) 95,83 %
11.02.2016 07:23 1,7 C 86 % 1006,6 hPa 0,0 l/m 21,2 km/h (4 Bft) W-SW 254 0 min 0,000 mm 0,0 UV-I 0 W/m -0,4 C -8,0 C 27,4 km/h (4 Bft) 100,00 %
11.02.2016 07:24 1,7 C 86 % 1006,6 hPa 0,0 l/m 19,1 km/h (3 Bft) W-SW 254 0 min 0,000 mm 0,0 UV-I 0 W/m -0,4 C -7,0 C 27,4 km/h (4 Bft) 95,83 %
11.02.2016 07:25 1,7 C 87 % 1006,5 hPa 0,0 l/m 19,0 km/h (3 Bft) W 261 0 min 0,000 mm 0,0 UV-I 0 W/m -0,2 C -7,0 C 27,4 km/h (4 Bft) 100,00 %
11.02.2016 07:26 1,6 C 87 % 1006,5 hPa 0,0 l/m 24,3 km/h (4 Bft) W-SW 254 0 min 0,000 mm 0,0 UV-I 0 W/m -0,3 C -9,3 C 37,0 km/h (5 Bft) 91,67 %
11.02.2016 07:27 1,6 C 87 % 1006,4 hPa 0,0 l/m 21,6 km/h (4 Bft) S-SW 211 0 min 0,000 mm 0,0 UV-I 0 W/m -0,3 C -8,2 C 29,0 km/h (5 Bft) 95,65 %
11.02.2016 07:28 1,5 C 88 % 1006,5 hPa 0,0 l/m 22,0 km/h (4 Bft) W 266 0 min 0,000 mm 0,0 UV-I 0 W/m -0,3 C -8,5 C 29,0 km/h (5 Bft) 95,83 %
11.02.2016 07:29 1,5 C 88 % 1006,5 hPa 0,0 l/m 17,4 km/h (3 Bft) W 264 0 min 0,000 mm 0,0 UV-I 0 W/m -0,3 C -6,5 C 25,7 km/h (4 Bft) 93,10 %
11.02.2016 07:30 1,4 C 88 % 1006,5 hPa 0,0 l/m 17,0 km/h (3 Bft) W-SW 240 0 min 0,000 mm 0,0 UV-I 0 W/m -0,4 C -6,4 C 27,4 km/h (4 Bft) 100,00 %
11.02.2016 07:31 1,4 C 89 % 1006,5 hPa 0,0 l/m 15,8 km/h (3 Bft) SW 226 0 min 0,000 mm 0,0 UV-I 0 W/m -0,2 C -5,7 C 22,5 km/h (4 Bft) 95,65 %
11.02.2016 07:32 1,3 C 89 % 1006,5 hPa 0,0 l/m 14,5 km/h (3 Bft) W-SW 249 0 min 0,000 mm 0,0 UV-I 0 W/m -0,3 C -5,1 C 19,3 km/h (3 Bft) 100,00 %
11.02.2016 07:33 1,3 C 89 % 1006,4 hPa 0,0 l/m 17,0 km/h (3 Bft) W-SW 240 0 min 0,000 mm 0,0 UV-I 3 W/m -0,3 C -6,5 C 25,7 km/h (4 Bft) 92,86 %
11.02.2016 07:34 1,3 C 89 % 1006,4 hPa 0,0 l/m 23,7 km/h (4 Bft) SW 236 0 min 0,000 mm 0,0 UV-I 5 W/m -0,3 C -9,5 C 29,0 km/h (5 Bft) 100,00 %
11.02.2016 07:35 1,3 C 89 % 1006,4 hPa 0,0 l/m 18,2 km/h (3 Bft) W-SW 239 0 min 0,000 mm 0,0 UV-I 5 W/m -0,3 C -7,1 C 25,7 km/h (4 Bft) 100,00 %
11.02.2016 07:36 1,2 C 89 % 1006,5 hPa 0,0 l/m 14,3 km/h (3 Bft) SW 219 0 min 0,000 mm 0,0 UV-I 5 W/m -0,4 C -5,1 C 20,9 km/h (4 Bft) 100,00 %
11.02.2016 07:37 1,2 C 89 % 1006,5 hPa 0,0 l/m 16,6 km/h (3 Bft) W-SW 256 0 min 0,000 mm 0,0 UV-I 5 W/m -0,4 C -6,4 C 22,5 km/h (4 Bft) 100,00 %
11.02.2016 07:38 1,2 C 90 % 1006,5 hPa 0,0 l/m 17,7 km/h (3 Bft) SW 215 0 min 0,000 mm 0,0 UV-I 7 W/m -0,3 C -7,0 C 25,7 km/h (4 Bft) 100,00 %
11.02.2016 07:39 1,2 C 90 % 1006,5 hPa 0,0 l/m 17,6 km/h (3 Bft) W-SW 253 0 min 0,000 mm 0,0 UV-I 7 W/m -0,3 C -6,9 C 25,7 km/h (4 Bft) 95,83 %
11.02.2016 07:40 1,2 C 90 % 1006,5 hPa 0,0 l/m 21,1 km/h (4 Bft) SW 236 0 min 0,000 mm 0,0 UV-I 7 W/m -0,3 C -8,6 C 27,4 km/h (4 Bft) 95,65 %
11.02.2016 07:41 1,2 C 90 % 1006,5 hPa 0,0 l/m 16,3 km/h (3 Bft) SW 231 0 min 0,000 mm 0,0 UV-I 9 W/m -0,3 C -6,3 C 20,9 km/h (4 Bft) 95,83 %
11.02.2016 07:42 1,2 C 90 % 1006,5 hPa 0,0 l/m 18,3 km/h (3 Bft) W-SW 255 0 min 0,000 mm 0,0 UV-I 9 W/m -0,3 C -7,3 C 27,4 km/h (4 Bft) 100,00 %
11.02.2016 07:43 1,2 C 90 % 1006,5 hPa 0,0 l/m 20,4 km/h (4 Bft) W-SW 253 0 min 0,000 mm 0,0 UV-I 9 W/m -0,3 C -8,3 C 27,4 km/h (4 Bft) 100,00 %
11.02.2016 07:44 1,2 C 90 % 1006,5 hPa 0,0 l/m 18,7 km/h (3 Bft) W-SW 240 0 min 0,000 mm 0,0 UV-I 9 W/m -0,3 C -7,5 C 25,7 km/h (4 Bft) 95,65 %
11.02.2016 07:45 1,2 C 90 % 1006,5 hPa 0,0 l/m 19,8 km/h (3 Bft) W-SW 244 0 min 0,000 mm 0,0 UV-I 10 W/m -0,3 C -8,0 C 22,5 km/h (4 Bft) 100,00 %
11.02.2016 07:46 1,2 C 90 % 1006,5 hPa 0,0 l/m 24,7 km/h (4 Bft) SW 221 0 min 0,000 mm 0,0 UV-I 11 W/m -0,3 C -10,0 C 37,0 km/h (5 Bft) 100,00 %
11.02.2016 07:47 1,3 C 89 % 1006,4 hPa 0,0 l/m 22,6 km/h (4 Bft) SW 225 0 min 0,000 mm 0,0 UV-I 11 W/m -0,3 C -9,1 C 35,4 km/h (5 Bft) 100,00 %
11.02.2016 07:48 1,3 C 89 % 1006,5 hPa 0,0 l/m 19,4 km/h (3 Bft) W-SW 248 0 min 0,000 mm 0,0 UV-I 11 W/m -0,3 C -7,7 C 27,4 km/h (4 Bft) 95,65 %
11.02.2016 07:49 1,3 C 89 % 1006,5 hPa 0,0 l/m 23,2 km/h (4 Bft) W-SW 238 0 min 0,000 mm 0,0 UV-I 11 W/m -0,3 C -9,3 C 33,8 km/h (5 Bft) 100,00 %
11.02.2016 07:50 1,3 C 89 % 1006,4 hPa 0,0 l/m 20,9 km/h (4 Bft) W-SW 244 0 min 0,000 mm 0,0 UV-I 11 W/m -0,3 C -8,3 C 29,0 km/h (5 Bft) 95,65 %
11.02.2016 07:51 1,3 C 89 % 1006,4 hPa 0,0 l/m 19,4 km/h (3 Bft) W 277 0 min 0,000 mm 0,0 UV-I 10 W/m -0,3 C -7,7 C 27,4 km/h (4 Bft) 100,00 %
11.02.2016 07:52 1,3 C 89 % 1006,5 hPa 0,0 l/m 16,9 km/h (3 Bft) S-SW 213 0 min 0,000 mm 0,0 UV-I 9 W/m -0,3 C -6,5 C 22,5 km/h (4 Bft) 100,00 %
11.02.2016 07:53 1,3 C 89 % 1006,5 hPa 0,0 l/m 16,0 km/h (3 Bft) W 260 0 min 0,000 mm 0,0 UV-I 9 W/m -0,3 C -6,0 C 22,5 km/h (4 Bft) 100,00 %
11.02.2016 07:54 1,3 C 89 % 1006,5 hPa 0,0 l/m 19,4 km/h (3 Bft) W-SW 240 0 min 0,000 mm 0,0 UV-I 9 W/m -0,3 C -7,7 C 27,4 km/h (4 Bft) 100,00 %
11.02.2016 07:55 1,3 C 89 % 1006,6 hPa 0,0 l/m 19,6 km/h (3 Bft) W 259 0 min 0,000 mm 0,0 UV-I 9 W/m -0,3 C -7,8 C 25,7 km/h (4 Bft) 100,00 %
11.02.2016 07:56 1,3 C 89 % 1006,6 hPa 0,0 l/m 20,0 km/h (4 Bft) W-SW 238 0 min 0,000 mm 0,0 UV-I 9 W/m -0,3 C -8,0 C 27,4 km/h (4 Bft) 100,00 %
11.02.2016 07:57 1,3 C 89 % 1006,6 hPa 0,0 l/m 22,4 km/h (4 Bft) W-SW 238 0 min 0,000 mm 0,0 UV-I 9 W/m -0,3 C -9,0 C 30,6 km/h (5 Bft) 100,00 %
11.02.2016 07:58 1,3 C 89 % 1006,6 hPa 0,0 l/m 22,9 km/h (4 Bft) W-SW 240 0 min 0,000 mm 0,0 UV-I 10 W/m -0,3 C -9,2 C 27,4 km/h (4 Bft) 100,00 %
11.02.2016 07:59 1,3 C 89 % 1006,6 hPa 0,0 l/m 22,5 km/h (4 Bft) W-SW 252 0 min 0,000 mm 0,0 UV-I 11 W/m -0,3 C -9,0 C 29,0 km/h (5 Bft) 91,67 %
11.02.2016 08:00 1,3 C 89 % 1006,6 hPa 0,2 l/m 24,6 km/h (4 Bft) W-SW 244 0 min 0,000 mm 0,0 UV-I 11 W/m -0,3 C -9,8 C 33,8 km/h (5 Bft) 100,00 %
11.02.2016 08:01 1,3 C 89 % 1006,6 hPa 0,0 l/m 16,8 km/h (3 Bft) W-SW 248 0 min 0,025 mm 0,0 UV-I 12 W/m -0,3 C -6,4 C 24,1 km/h (4 Bft) 100,00 %
11.02.2016 08:02 1,3 C 89 % 1006,6 hPa 0,0 l/m 23,1 km/h (4 Bft) W-SW 239 0 min 0,000 mm 0,0 UV-I 13 W/m -0,3 C -9,2 C 35,4 km/h (5 Bft) 96,15 %
11.02.2016 08:03 1,3 C 89 % 1006,8 hPa 0,0 l/m 16,6 km/h (3 Bft) SW 235 0 min 0,000 mm 0,0 UV-I 14 W/m -0,3 C -6,3 C 24,1 km/h (4 Bft) 95,83 %
11.02.2016 08:04 1,3 C 89 % 1006,7 hPa 0,0 l/m 16,0 km/h (3 Bft) SW 218 0 min 0,000 mm 0,0 UV-I 16 W/m -0,3 C -6,0 C 22,5 km/h (4 Bft) 95,83 %
11.02.2016 08:05 1,3 C 89 % 1006,7 hPa 0,0 l/m 23,4 km/h (4 Bft) W-SW 245 0 min 0,000 mm 0,0 UV-I 16 W/m -0,3 C -9,4 C 30,6 km/h (5 Bft) 100,00 %
11.02.2016 08:06 1,3 C 89 % 1006,7 hPa 0,0 l/m 16,4 km/h (3 Bft) W 267 0 min 0,000 mm 0,0 UV-I 18 W/m -0,3 C -6,2 C 20,9 km/h (4 Bft) 100,00 %
11.02.2016 08:07 1,3 C 89 % 1006,6 hPa 0,0 l/m 17,2 km/h (3 Bft) W-SW 250 0 min 0,000 mm 0,0 UV-I 18 W/m -0,3 C -6,6 C 22,5 km/h (4 Bft) 95,65 %
11.02.2016 08:08 1,3 C 89 % 1006,7 hPa 0,0 l/m 23,0 km/h (4 Bft) SW 220 0 min 0,000 mm 0,0 UV-I 18 W/m -0,3 C -9,2 C 29,0 km/h (5 Bft) 100,00 %
11.02.2016 08:09 1,3 C 89 % 1006,7 hPa 0,0 l/m 18,7 km/h (3 Bft) SW 234 0 min 0,000 mm 0,0 UV-I 18 W/m -0,3 C -7,4 C 22,5 km/h (4 Bft) 100,00 %
11.02.2016 08:10 1,3 C 89 % 1006,7 hPa 0,0 l/m 19,6 km/h (3 Bft) W-SW 237 0 min 0,000 mm 0,0 UV-I 19 W/m -0,3 C -7,8 C 25,7 km/h (4 Bft) 100,00 %
11.02.2016 08:11 1,3 C 89 % 1006,7 hPa 0,0 l/m 20,7 km/h (4 Bft) W-SW 250 0 min 0,000 mm 0,0 UV-I 19 W/m -0,3 C -8,3 C 24,1 km/h (4 Bft) 100,00 %
11.02.2016 08:12 1,3 C 89 % 1006,7 hPa 0,0 l/m 19,6 km/h (3 Bft) SW 234 0 min 0,000 mm 0,0 UV-I 19 W/m -0,3 C -7,8 C 27,4 km/h (4 Bft) 100,00 %
11.02.2016 08:13 1,3 C 89 % 1006,7 hPa 0,0 l/m 15,8 km/h (3 Bft) SW 234 0 min 0,000 mm 0,0 UV-I 21 W/m -0,3 C -5,9 C 22,5 km/h (4 Bft) 100,00 %
11.02.2016 08:14 1,3 C 90 % 1006,7 hPa 0,0 l/m 20,9 km/h (4 Bft) SW 220 0 min 0,000 mm 0,0 UV-I 22 W/m -0,2 C -8,3 C 25,7 km/h (4 Bft) 100,00 %
11.02.2016 08:15 1,3 C 89 % 1006,7 hPa 0,0 l/m 23,4 km/h (4 Bft) W-SW 251 0 min 0,000 mm 0,0 UV-I 24 W/m -0,3 C -9,4 C 37,0 km/h (5 Bft) 100,00 %
11.02.2016 08:16 1,3 C 89 % 1006,7 hPa 0,0 l/m 25,5 km/h (4 Bft) W-SW 254 0 min 0,000 mm 0,0 UV-I 27 W/m -0,3 C -10,1 C 35,4 km/h (5 Bft) 100,00 %
11.02.2016 08:17 1,3 C 89 % 1006,7 hPa 0,0 l/m 19,0 km/h (3 Bft) W-SW 237 0 min 0,000 mm 0,0 UV-I 30 W/m -0,3 C -7,5 C 24,1 km/h (4 Bft) 91,67 %
11.02.2016 08:18 1,3 C 89 % 1006,7 hPa 0,0 l/m 21,3 km/h (4 Bft) W-SW 238 0 min 0,000 mm 0,0 UV-I 33 W/m -0,3 C -8,5 C 35,4 km/h (5 Bft) 100,00 %
11.02.2016 08:19 1,3 C 89 % 1006,7 hPa 0,0 l/m 18,0 km/h (3 Bft) W-SW 258 0 min 0,000 mm 0,0 UV-I 36 W/m -0,3 C -7,0 C 24,1 km/h (4 Bft) 100,00 %
11.02.2016 08:20 1,3 C 89 % 1006,7 hPa 0,0 l/m 19,2 km/h (3 Bft) SW 217 0 min 0,000 mm 0,0 UV-I 39 W/m -0,3 C -7,6 C 30,6 km/h (5 Bft) 92,31 %
11.02.2016 08:21 1,4 C 89 % 1006,7 hPa 0,0 l/m 22,3 km/h (4 Bft) W-SW 241 0 min 0,000 mm 0,0 UV-I 39 W/m -0,2 C -8,8 C 29,0 km/h (5 Bft) 100,00 %
11.02.2016 08:22 1,4 C 89 % 1006,7 hPa 0,0 l/m 20,1 km/h (4 Bft) W-SW 239 0 min 0,000 mm 0,0 UV-I 40 W/m -0,2 C -7,9 C 27,4 km/h (4 Bft) 95,65 %
11.02.2016 08:23 1,4 C 89 % 1006,8 hPa 0,0 l/m 15,2 km/h (3 Bft) W-SW 255 0 min 0,000 mm 0,0 UV-I 40 W/m -0,2 C -5,4 C 19,3 km/h (3 Bft) 95,83 %
11.02.2016 08:24 1,4 C 89 % 1006,8 hPa 0,0 l/m 16,2 km/h (3 Bft) SW 232 0 min 0,000 mm 0,0 UV-I 39 W/m -0,2 C -6,0 C 25,7 km/h (4 Bft) 95,65 %
11.02.2016 08:25 1,4 C 89 % 1006,7 hPa 0,0 l/m 21,2 km/h (4 Bft) W 280 0 min 0,000 mm 0,0 UV-I 37 W/m -0,2 C -8,3 C 30,6 km/h (5 Bft) 100,00 %
11.02.2016 08:26 1,4 C 89 % 1006,8 hPa 0,0 l/m 21,5 km/h (4 Bft) W-SW 255 0 min 0,000 mm 0,0 UV-I 34 W/m -0,2 C -8,5 C 32,2 km/h (5 Bft) 100,00 %
11.02.2016 08:27 1,4 C 89 % 1006,7 hPa 0,0 l/m 22,2 km/h (4 Bft) W 277 0 min 0,000 mm 0,0 UV-I 33 W/m -0,2 C -8,8 C 30,6 km/h (5 Bft) 100,00 %
11.02.2016 08:28 1,4 C 89 % 1006,7 hPa 0,0 l/m 27,4 km/h (4 Bft) W-SW 245 0 min 0,000 mm 0,0 UV-I 32 W/m -0,2 C -10,6 C 35,4 km/h (5 Bft) 100,00 %
11.02.2016 08:29 1,4 C 89 % 1006,7 hPa 0,0 l/m 20,5 km/h (4 Bft) W-SW 246 0 min 0,000 mm 0,0 UV-I 33 W/m -0,2 C -8,0 C 32,2 km/h (5 Bft) 100,00 %
11.02.2016 08:30 1,4 C 89 % 1006,8 hPa 0,0 l/m 21,3 km/h (4 Bft) W-SW 246 0 min 0,000 mm 0,0 UV-I 33 W/m -0,2 C -8,4 C 32,2 km/h (5 Bft) 95,65 %
11.02.2016 08:31 1,4 C 89 % 1006,7 hPa 0,0 l/m 22,0 km/h (4 Bft) S-SW 211 0 min 0,000 mm 0,0 UV-I 35 W/m -0,2 C -8,7 C 29,0 km/h (5 Bft) 95,83 %
11.02.2016 08:32 1,4 C 89 % 1006,7 hPa 0,0 l/m 18,0 km/h (3 Bft) W-SW 248 0 min 0,000 mm 0,0 UV-I 39 W/m -0,2 C -6,9 C 25,7 km/h (4 Bft) 96,55 %
11.02.2016 08:33 1,4 C 89 % 1006,7 hPa 0,0 l/m 21,5 km/h (4 Bft) SW 217 0 min 0,000 mm 0,0 UV-I 44 W/m -0,2 C -8,5 C 29,0 km/h (5 Bft) 100,00 %
11.02.2016 08:34 1,4 C 89 % 1006,8 hPa 0,0 l/m 15,8 km/h (3 Bft) W 269 0 min 0,000 mm 0,0 UV-I 50 W/m -0,2 C -5,7 C 27,4 km/h (4 Bft) 100,00 %
11.02.2016 08:35 1,4 C 89 % 1006,8 hPa 0,0 l/m 15,5 km/h (3 Bft) W-SW 252 0 min 0,000 mm 0,0 UV-I 57 W/m -0,2 C -5,6 C 20,9 km/h (4 Bft) 95,83 %
11.02.2016 08:36 1,5 C 89 % 1006,8 hPa 0,0 l/m 21,8 km/h (4 Bft) W-SW 238 0 min 0,000 mm 0,0 UV-I 64 W/m -0,1 C -8,5 C 35,4 km/h (5 Bft) 100,00 %
11.02.2016 08:37 1,5 C 88 % 1006,7 hPa 0,0 l/m 17,4 km/h (3 Bft) SW 234 0 min 0,000 mm 0,0 UV-I 68 W/m -0,3 C -6,5 C 29,0 km/h (5 Bft) 100,00 %
11.02.2016 08:38 1,6 C 88 % 1006,8 hPa 0,0 l/m 19,6 km/h (3 Bft) SW 228 0 min 0,000 mm 0,0 UV-I 73 W/m -0,2 C -7,4 C 24,1 km/h (4 Bft) 95,83 %
11.02.2016 08:39 1,6 C 88 % 1006,8 hPa 0,0 l/m 21,4 km/h (4 Bft) SW 226 0 min 0,000 mm 0,0 UV-I 78 W/m -0,2 C -8,2 C 27,4 km/h (4 Bft) 100,00 %
11.02.2016 08:40 1,6 C 87 % 1006,8 hPa 0,0 l/m 19,4 km/h (3 Bft) W-SW 256 0 min 0,000 mm 0,0 UV-I 84 W/m -0,3 C -7,3 C 29,0 km/h (5 Bft) 96,30 %
11.02.2016 08:41 1,7 C 87 % 1006,7 hPa 0,0 l/m 21,8 km/h (4 Bft) SW 235 0 min 0,000 mm 0,0 UV-I 84 W/m -0,2 C -8,2 C 35,4 km/h (5 Bft) 96,15 %
11.02.2016 08:42 1,7 C 87 % 1006,8 hPa 0,0 l/m 23,7 km/h (4 Bft) W-SW 242 0 min 0,000 mm 0,0 UV-I 84 W/m -0,2 C -8,9 C 32,2 km/h (5 Bft) 100,00 %
11.02.2016 08:43 1,7 C 87 % 1006,9 hPa 0,0 l/m 18,3 km/h (3 Bft) W 262 0 min 0,000 mm 0,0 UV-I 83 W/m -0,2 C -6,7 C 27,4 km/h (4 Bft) 91,30 %
11.02.2016 08:44 1,8 C 87 % 1006,8 hPa 0,0 l/m 19,1 km/h (3 Bft) SW 231 0 min 0,000 mm 0,0 UV-I 80 W/m -0,1 C -6,9 C 27,4 km/h (4 Bft) 100,00 %
11.02.2016 08:45 1,8 C 87 % 1006,8 hPa 0,0 l/m 18,2 km/h (3 Bft) W-SW 242 0 min 0,000 mm 0,0 UV-I 79 W/m -0,1 C -6,5 C 25,7 km/h (4 Bft) 100,00 %
11.02.2016 08:46 1,8 C 86 % 1006,8 hPa 0,0 l/m 20,9 km/h (4 Bft) W-SW 255 0 min 0,000 mm 0,0 UV-I 74 W/m -0,3 C -7,7 C 27,4 km/h (4 Bft) 100,00 %
11.02.2016 08:47 1,8 C 86 % 1006,9 hPa 0,0 l/m 18,6 km/h (3 Bft) SW 217 0 min 0,000 mm 0,0 UV-I 66 W/m -0,3 C -6,7 C 29,0 km/h (5 Bft) 100,00 %
11.02.2016 08:48 1,8 C 86 % 1006,9 hPa 0,0 l/m 23,9 km/h (4 Bft) W 264 0 min 0,000 mm 0,0 UV-I 61 W/m -0,3 C -8,9 C 32,2 km/h (5 Bft) 100,00 %
11.02.2016 08:49 1,8 C 86 % 1006,9 hPa 0,0 l/m 17,4 km/h (3 Bft) W-SW 246 0 min 0,000 mm 0,0 UV-I 60 W/m -0,3 C -6,1 C 24,1 km/h (4 Bft) 100,00 %
11.02.2016 08:50 1,8 C 86 % 1007,0 hPa 0,0 l/m 19,5 km/h (3 Bft) W-SW 256 0 min 0,000 mm 0,0 UV-I 64 W/m -0,3 C -7,1 C 24,1 km/h (4 Bft) 100,00 %
11.02.2016 08:51 1,9 C 87 % 1006,9 hPa 0,0 l/m 23,8 km/h (4 Bft) W-SW 254 0 min 0,000 mm 0,0 UV-I 71 W/m -0,0 C -8,7 C 35,4 km/h (5 Bft) 100,00 %
11.02.2016 08:52 1,9 C 86 % 1006,9 hPa 0,0 l/m 19,6 km/h (3 Bft) SW 227 0 min 0,000 mm 0,0 UV-I 72 W/m -0,2 C -7,0 C 27,4 km/h (4 Bft) 100,00 %
11.02.2016 08:53 1,9 C 86 % 1006,9 hPa 0,0 l/m 18,5 km/h (3 Bft) W-SW 246 0 min 0,000 mm 0,0 UV-I 77 W/m -0,2 C -6,5 C 24,1 km/h (4 Bft) 100,00 %
11.02.2016 08:54 1,9 C 87 % 1007,0 hPa 0,0 l/m 19,0 km/h (3 Bft) SW 236 0 min 0,000 mm 0,0 UV-I 80 W/m -0,0 C -6,7 C 25,7 km/h (4 Bft) 100,00 %
11.02.2016 08:55 1,9 C 86 % 1007,0 hPa 0,0 l/m 16,3 km/h (3 Bft) S-SW 199 0 min 0,000 mm 0,0 UV-I 83 W/m -0,2 C -5,4 C 24,1 km/h (4 Bft) 100,00 %
11.02.2016 08:56 1,9 C 86 % 1006,9 hPa 0,0 l/m 23,5 km/h (4 Bft) W 271 0 min 0,000 mm 0,0 UV-I 84 W/m -0,2 C -8,6 C 32,2 km/h (5 Bft) 100,00 %
11.02.2016 08:57 1,9 C 86 % 1007,0 hPa 0,0 l/m 22,2 km/h (4 Bft) W-SW 251 0 min 0,000 mm 0,0 UV-I 86 W/m -0,2 C -8,1 C 30,6 km/h (5 Bft) 91,30 %
11.02.2016 08:58 1,9 C 86 % 1007,0 hPa 0,0 l/m 21,9 km/h (4 Bft) W-SW 240 0 min 0,000 mm 0,0 UV-I 90 W/m -0,2 C -8,0 C 32,2 km/h (5 Bft) 100,00 %
11.02.2016 08:59 1,9 C 86 % 1007,0 hPa 0,0 l/m 22,9 km/h (4 Bft) W-SW 241 0 min 0,000 mm 0,0 UV-I 91 W/m -0,2 C -8,4 C 33,8 km/h (5 Bft) 100,00 %
11.02.2016 09:00 2,0 C 86 % 1007,0 hPa 0,0 l/m 21,2 km/h (4 Bft) W 263 0 min 0,025 mm 0,0 UV-I 96 W/m -0,1 C -7,6 C 33,8 km/h (5 Bft) 100,00 %
11.02.2016 09:01 2,0 C 86 % 1007,1 hPa 0,0 l/m 20,0 km/h (4 Bft) W-SW 242 0 min 0,000 mm 0,0 UV-I 105 W/m -0,1 C -7,0 C 29,0 km/h (5 Bft) 95,83 %
11.02.2016 09:02 2,1 C 86 % 1007,1 hPa 0,0 l/m 19,4 km/h (3 Bft) S 190 0 min 0,000 mm 0,0 UV-I 119 W/m 0,0 C -6,7 C 32,2 km/h (5 Bft) 95,65 %
11.02.2016 09:03 2,1 C 86 % 1007,0 hPa 0,0 l/m 18,8 km/h (3 Bft) W-SW 240 0 min 0,000 mm 0,0 UV-I 129 W/m 0,0 C -6,4 C 29,0 km/h (5 Bft) 95,83 %
11.02.2016 09:04 2,1 C 86 % 1007,0 hPa 0,0 l/m 14,8 km/h (3 Bft) SW 234 1 min 0,000 mm 0,0 UV-I 142 W/m 0,0 C -4,3 C 22,5 km/h (4 Bft) 86,96 %
11.02.2016 09:05 2,1 C 86 % 1007,0 hPa 0,0 l/m 20,3 km/h (4 Bft) SW 215 1 min 0,000 mm 0,0 UV-I 149 W/m 0,0 C -7,0 C 32,2 km/h (5 Bft) 100,00 %
11.02.2016 09:06 2,1 C 86 % 1007,1 hPa 0,0 l/m 18,6 km/h (3 Bft) W-SW 254 1 min 0,000 mm 0,0 UV-I 151 W/m 0,0 C -6,3 C 29,0 km/h (5 Bft) 95,65 %
11.02.2016 09:07 2,2 C 86 % 1007,0 hPa 0,0 l/m 22,1 km/h (4 Bft) W 271 1 min 0,000 mm 0,0 UV-I 149 W/m 0,1 C -7,7 C 29,0 km/h (5 Bft) 95,83 %
11.02.2016 09:08 2,2 C 85 % 1007,0 hPa 0,0 l/m 20,1 km/h (4 Bft) SW 217 0 min 0,000 mm 0,0 UV-I 139 W/m -0,1 C -6,8 C 29,0 km/h (5 Bft) 95,65 %
11.02.2016 09:09 2,2 C 85 % 1007,1 hPa 0,0 l/m 18,1 km/h (3 Bft) W-SW 237 0 min 0,000 mm 0,0 UV-I 128 W/m -0,1 C -5,9 C 24,1 km/h (4 Bft) 95,83 %
11.02.2016 09:10 2,2 C 85 % 1007,1 hPa 0,0 l/m 18,2 km/h (3 Bft) W 261 0 min 0,000 mm 0,0 UV-I 117 W/m -0,1 C -6,0 C 27,4 km/h (4 Bft) 100,00 %
11.02.2016 09:11 2,3 C 85 % 1007,1 hPa 0,0 l/m 17,2 km/h (3 Bft) W-SW 240 0 min 0,000 mm 0,0 UV-I 112 W/m 0,0 C -5,4 C 25,7 km/h (4 Bft) 95,83 %
11.02.2016 09:12 2,3 C 85 % 1007,1 hPa 0,0 l/m 23,5 km/h (4 Bft) W-SW 254 0 min 0,000 mm 0,0 UV-I 108 W/m 0,0 C -8,1 C 30,6 km/h (5 Bft) 95,65 %
11.02.2016 09:13 2,3 C 84 % 1007,1 hPa 0,0 l/m 24,4 km/h (4 Bft) SW 223 0 min 0,000 mm 0,0 UV-I 104 W/m -0,1 C -8,4 C 35,4 km/h (5 Bft) 95,83 %
11.02.2016 09:14 2,3 C 84 % 1007,1 hPa 0,0 l/m 26,9 km/h (4 Bft) SW 234 0 min 0,000 mm 0,0 UV-I 105 W/m -0,1 C -9,2 C 38,6 km/h (5 Bft) 100,00 %
11.02.2016 09:15 2,3 C 84 % 1007,1 hPa 0,0 l/m 30,4 km/h (5 Bft) W-SW 241 0 min 0,000 mm 0,0 UV-I 105 W/m -0,1 C -10,3 C 40,2 km/h (6 Bft) 91,67 %
11.02.2016 09:16 2,3 C 84 % 1007,1 hPa 0,0 l/m 28,8 km/h (4 Bft) W-SW 244 0 min 0,000 mm 0,0 UV-I 110 W/m -0,1 C -9,8 C 38,6 km/h (5 Bft) 91,30 %
11.02.2016 09:17 2,3 C 84 % 1007,2 hPa 0,0 l/m 19,6 km/h (3 Bft) W-SW 252 0 min 0,000 mm 0,0 UV-I 104 W/m -0,1 C -6,5 C 24,1 km/h (4 Bft) 95,83 %
11.02.2016 09:18 2,3 C 85 % 1007,2 hPa 0,0 l/m 21,3 km/h (4 Bft) SW 229 0 min 0,000 mm 0,0 UV-I 101 W/m 0,0 C -7,2 C 29,0 km/h (5 Bft) 91,30 %
11.02.2016 09:19 2,2 C 85 % 1007,2 hPa 0,0 l/m 24,3 km/h (4 Bft) W-SW 241 0 min 0,000 mm 0,0 UV-I 101 W/m -0,1 C -8,5 C 30,6 km/h (5 Bft) 100,00 %
11.02.2016 09:20 2,2 C 85 % 1007,2 hPa 0,0 l/m 13,0 km/h (3 Bft) SW 219 0 min 0,000 mm 0,0 UV-I 98 W/m -0,1 C -3,1 C 20,9 km/h (4 Bft) 95,83 %
11.02.2016 09:21 2,2 C 85 % 1007,2 hPa 0,0 l/m 18,3 km/h (3 Bft) W-SW 244 0 min 0,000 mm 0,0 UV-I 97 W/m -0,1 C -6,0 C 25,7 km/h (4 Bft) 100,00 %
11.02.2016 09:22 2,2 C 85 % 1007,2 hPa 0,0 l/m 21,1 km/h (4 Bft) SW 236 0 min 0,000 mm 0,0 UV-I 98 W/m -0,1 C -7,3 C 30,6 km/h (5 Bft) 95,83 %
11.02.2016 09:23 2,2 C 85 % 1007,2 hPa 0,0 l/m 20,5 km/h (4 Bft) SW 223 0 min 0,000 mm 0,0 UV-I 99 W/m -0,1 C -7,0 C 25,7 km/h (4 Bft) 100,00 %
11.02.2016 09:24 2,3 C 85 % 1007,3 hPa 0,0 l/m 18,6 km/h (3 Bft) W 265 0 min 0,000 mm 0,0 UV-I 95 W/m 0,0 C -6,0 C 30,6 km/h (5 Bft) 95,83 %
11.02.2016 09:25 2,3 C 85 % 1007,3 hPa 0,0 l/m 20,1 km/h (4 Bft) W 275 0 min 0,000 mm 0,0 UV-I 87 W/m 0,0 C -6,7 C 32,2 km/h (5 Bft) 100,00 %
11.02.2016 09:26 2,3 C 85 % 1007,3 hPa 0,0 l/m 24,2 km/h (4 Bft) W-SW 245 0 min 0,000 mm 0,0 UV-I 79 W/m 0,0 C -8,3 C 30,6 km/h (5 Bft) 95,83 %
11.02.2016 09:27 2,3 C 84 % 1007,3 hPa 0,0 l/m 23,5 km/h (4 Bft) SW 229 0 min 0,000 mm 0,0 UV-I 74 W/m -0,1 C -8,1 C 30,6 km/h (5 Bft) 95,65 %
11.02.2016 09:28 2,3 C 84 % 1007,3 hPa 0,0 l/m 22,2 km/h (4 Bft) W-SW 244 0 min 0,000 mm 0,0 UV-I 77 W/m -0,1 C -7,6 C 32,2 km/h (5 Bft) 100,00 %
11.02.2016 09:29 2,3 C 84 % 1007,3 hPa 0,0 l/m 20,3 km/h (4 Bft) W 259 0 min 0,000 mm 0,0 UV-I 81 W/m -0,1 C -6,8 C 29,0 km/h (5 Bft) 95,65 %
11.02.2016 09:30 2,3 C 84 % 1007,3 hPa 0,0 l/m 17,3 km/h (3 Bft) W-SW 240 0 min 0,000 mm 0,0 UV-I 89 W/m -0,1 C -5,4 C 22,5 km/h (4 Bft) 100,00 %
11.02.2016 09:31 2,3 C 85 % 1007,3 hPa 0,0 l/m 23,3 km/h (4 Bft) W-SW 251 0 min 0,000 mm 0,0 UV-I 103 W/m 0,0 C -8,0 C 30,6 km/h (5 Bft) 96,15 %
11.02.2016 09:32 2,3 C 84 % 1007,3 hPa 0,0 l/m 20,3 km/h (4 Bft) W-SW 241 0 min 0,000 mm 0,0 UV-I 117 W/m -0,1 C -6,8 C 29,0 km/h (5 Bft) 100,00 %
11.02.2016 09:33 2,3 C 84 % 1007,4 hPa 0,0 l/m 18,1 km/h (3 Bft) SW 226 0 min 0,000 mm 0,0 UV-I 120 W/m -0,1 C -5,8 C 24,1 km/h (4 Bft) 95,65 %
11.02.2016 09:34 2,3 C 84 % 1007,5 hPa 0,0 l/m 17,1 km/h (3 Bft) SW 234 0 min 0,000 mm 0,0 UV-I 123 W/m -0,1 C -5,3 C 27,4 km/h (4 Bft) 95,83 %
11.02.2016 09:35 2,3 C 85 % 1007,4 hPa 0,0 l/m 22,1 km/h (4 Bft) SW 222 0 min 0,000 mm 0,0 UV-I 114 W/m 0,0 C -7,5 C 33,8 km/h (5 Bft) 100,00 %
11.02.2016 09:36 2,3 C 85 % 1007,4 hPa 0,0 l/m 22,2 km/h (4 Bft) SW 228 0 min 0,000 mm 0,0 UV-I 111 W/m 0,0 C -7,6 C 27,4 km/h (4 Bft) 91,30 %
11.02.2016 09:37 2,4 C 85 % 1007,5 hPa 0,0 l/m 19,9 km/h (4 Bft) W-SW 251 0 min 0,000 mm 0,0 UV-I 112 W/m 0,1 C -6,5 C 38,6 km/h (5 Bft) 95,83 %
11.02.2016 09:38 2,3 C 84 % 1007,5 hPa 0,0 l/m 21,8 km/h (4 Bft) SW 218 0 min 0,000 mm 0,0 UV-I 119 W/m -0,1 C -7,4 C 32,2 km/h (5 Bft) 95,65 %
11.02.2016 09:39 2,3 C 84 % 1007,4 hPa 0,0 l/m 22,1 km/h (4 Bft) SW 228 0 min 0,000 mm 0,0 UV-I 120 W/m -0,1 C -7,5 C 33,8 km/h (5 Bft) 100,00 %
11.02.2016 09:40 2,3 C 84 % 1007,5 hPa 0,0 l/m 19,2 km/h (3 Bft) W 265 0 min 0,000 mm 0,0 UV-I 111 W/m -0,1 C -6,3 C 29,0 km/h (5 Bft) 100,00 %
11.02.2016 09:41 2,3 C 85 % 1007,5 hPa 0,0 l/m 21,1 km/h (4 Bft) W-SW 250 0 min 0,000 mm 0,0 UV-I 104 W/m 0,0 C -7,1 C 27,4 km/h (4 Bft) 100,00 %
11.02.2016 09:42 2,3 C 85 % 1007,5 hPa 0,0 l/m 22,3 km/h (4 Bft) SW 229 0 min 0,000 mm 0,0 UV-I 102 W/m 0,0 C -7,6 C 32,2 km/h (5 Bft) 100,00 %
11.02.2016 09:43 2,3 C 85 % 1007,5 hPa 0,0 l/m 21,2 km/h (4 Bft) W-SW 245 0 min 0,000 mm 0,0 UV-I 100 W/m 0,0 C -7,2 C 30,6 km/h (5 Bft) 100,00 %
11.02.2016 09:44 2,3 C 85 % 1007,6 hPa 0,0 l/m 22,9 km/h (4 Bft) W 275 0 min 0,000 mm 0,0 UV-I 93 W/m 0,0 C -7,8 C 38,6 km/h (5 Bft) 95,65 %
11.02.2016 09:45 2,3 C 85 % 1007,6 hPa 0,0 l/m 23,5 km/h (4 Bft) SW 227 0 min 0,000 mm 0,0 UV-I 88 W/m 0,0 C -8,1 C 32,2 km/h (5 Bft) 96,30 %
11.02.2016 09:46 2,3 C 84 % 1007,5 hPa 0,0 l/m 24,8 km/h (4 Bft) W-SW 248 0 min 0,000 mm 0,0 UV-I 86 W/m -0,1 C -8,5 C 33,8 km/h (5 Bft) 95,65 %
11.02.2016 09:47 2,3 C 85 % 1007,5 hPa 0,0 l/m 24,1 km/h (4 Bft) W-SW 243 0 min 0,000 mm 0,0 UV-I 86 W/m 0,0 C -8,3 C 33,8 km/h (5 Bft) 100,00 %
11.02.2016 09:48 2,3 C 85 % 1007,5 hPa 0,0 l/m 26,6 km/h (4 Bft) W-SW 244 0 min 0,000 mm 0,0 UV-I 93 W/m 0,0 C -9,1 C 33,8 km/h (5 Bft) 100,00 %
11.02.2016 09:49 2,2 C 85 % 1007,5 hPa 0,0 l/m 23,2 km/h (4 Bft) W-SW 243 0 min 0,000 mm 0,0 UV-I 105 W/m -0,1 C -8,1 C 33,8 km/h (5 Bft) 100,00 %
11.02.2016 09:50 2,2 C 85 % 1007,6 hPa 0,0 l/m 21,1 km/h (4 Bft) W-SW 240 0 min 0,000 mm 0,0 UV-I 121 W/m -0,1 C -7,3 C 25,7 km/h (4 Bft) 95,65 %
11.02.2016 09:51 2,2 C 85 % 1007,6 hPa 0,0 l/m 15,0 km/h (3 Bft) SW 234 0 min 0,000 mm 0,0 UV-I 136 W/m -0,1 C -4,3 C 20,9 km/h (4 Bft) 100,00 %
11.02.2016 09:52 2,2 C 86 % 1007,6 hPa 0,0 l/m 20,1 km/h (4 Bft) W-SW 250 0 min 0,000 mm 0,0 UV-I 145 W/m 0,1 C -6,8 C 25,7 km/h (4 Bft) 95,65 %
11.02.2016 09:53 2,2 C 86 % 1007,6 hPa 0,0 l/m 21,5 km/h (4 Bft) W-SW 246 0 min 0,000 mm 0,0 UV-I 150 W/m 0,1 C -7,4 C 30,6 km/h (5 Bft) 100,00 %
11.02.2016 09:54 2,2 C 85 % 1007,6 hPa 0,0 l/m 20,7 km/h (4 Bft) W-SW 256 0 min 0,000 mm 0,0 UV-I 153 W/m -0,1 C -7,1 C 30,6 km/h (5 Bft) 100,00 %
11.02.2016 09:55 2,2 C 85 % 1007,6 hPa 0,0 l/m 22,7 km/h (4 Bft) W-SW 258 0 min 0,000 mm 0,0 UV-I 143 W/m -0,1 C -7,9 C 33,8 km/h (5 Bft) 100,00 %
11.02.2016 09:56 2,2 C 86 % 1007,6 hPa 0,0 l/m 23,5 km/h (4 Bft) W-SW 250 0 min 0,000 mm 0,0 UV-I 125 W/m 0,1 C -8,2 C 30,6 km/h (5 Bft) 95,65 %
11.02.2016 09:57 2,2 C 86 % 1007,6 hPa 0,0 l/m 24,1 km/h (4 Bft) W-SW 249 0 min 0,000 mm 0,0 UV-I 104 W/m 0,1 C -8,4 C 33,8 km/h (5 Bft) 100,00 %
11.02.2016 09:58 2,2 C 86 % 1007,7 hPa 0,0 l/m 19,5 km/h (3 Bft) SW 236 0 min 0,000 mm 0,0 UV-I 95 W/m 0,1 C -6,6 C 27,4 km/h (4 Bft) 96,15 %
11.02.2016 09:59 2,2 C 86 % 1007,7 hPa 0,0 l/m 17,1 km/h (3 Bft) W-SW 252 0 min 0,000 mm 0,0 UV-I 93 W/m 0,1 C -5,4 C 24,1 km/h (4 Bft) 100,00 %
11.02.2016 10:00 2,1 C 86 % 1007,8 hPa 0,0 l/m 21,2 km/h (4 Bft) SW 235 0 min 0,000 mm 0,0 UV-I 91 W/m 0,0 C -7,4 C 32,2 km/h (5 Bft) 100,00 %
11.02.2016 10:01 2,1 C 86 % 1007,7 hPa 0,0 l/m 15,9 km/h (3 Bft) W-SW 238 0 min 0,077 mm 0,0 UV-I 97 W/m 0,0 C -4,9 C 24,1 km/h (4 Bft) 100,00 %
11.02.2016 10:02 2,1 C 86 % 1007,8 hPa 0,0 l/m 15,8 km/h (3 Bft) SW 232 0 min 0,000 mm 0,0 UV-I 104 W/m 0,0 C -4,9 C 20,9 km/h (4 Bft) 100,00 %
11.02.2016 10:03 2,1 C 87 % 1007,8 hPa 0,0 l/m 15,4 km/h (3 Bft) W-SW 240 0 min 0,000 mm 0,0 UV-I 103 W/m 0,2 C -4,7 C 24,1 km/h (4 Bft) 100,00 %
11.02.2016 10:04 2,1 C 87 % 1007,8 hPa 0,0 l/m 22,2 km/h (4 Bft) SW 217 0 min 0,000 mm 0,0 UV-I 94 W/m 0,2 C -7,8 C 32,2 km/h (5 Bft) 100,00 %
11.02.2016 10:05 2,1 C 86 % 1007,8 hPa 0,0 l/m 21,0 km/h (4 Bft) W-SW 254 0 min 0,000 mm 0,0 UV-I 86 W/m 0,0 C -7,3 C 30,6 km/h (5 Bft) 100,00 %
11.02.2016 10:06 2,1 C 86 % 1007,8 hPa 0,0 l/m 23,8 km/h (4 Bft) W 274 0 min 0,000 mm 0,0 UV-I 82 W/m 0,0 C -8,4 C 29,0 km/h (5 Bft) 95,83 %
11.02.2016 10:07 2,1 C 86 % 1007,8 hPa 0,0 l/m 21,9 km/h (4 Bft) W-SW 250 0 min 0,000 mm 0,0 UV-I 81 W/m 0,0 C -7,7 C 29,0 km/h (5 Bft) 100,00 %
11.02.2016 10:08 2,1 C 86 % 1007,8 hPa 0,0 l/m 17,8 km/h (3 Bft) SW 215 0 min 0,000 mm 0,0 UV-I 86 W/m 0,0 C -5,9 C 22,5 km/h (4 Bft) 100,00 %
11.02.2016 10:09 2,1 C 86 % 1007,9 hPa 0,0 l/m 16,3 km/h (3 Bft) W 272 0 min 0,000 mm 0,0 UV-I 93 W/m 0,0 C -5,1 C 24,1 km/h (4 Bft) 100,00 %
11.02.2016 10:10 2,1 C 86 % 1007,8 hPa 0,0 l/m 15,1 km/h (3 Bft) W 261 0 min 0,000 mm 0,0 UV-I 92 W/m 0,0 C -4,5 C 20,9 km/h (4 Bft) 100,00 %
11.02.2016 10:11 2,1 C 86 % 1007,8 hPa 0,0 l/m 21,7 km/h (4 Bft) S-SW 203 0 min 0,000 mm 0,0 UV-I 88 W/m 0,0 C -7,6 C 35,4 km/h (5 Bft) 95,65 %
11.02.2016 10:12 2,2 C 86 % 1007,9 hPa 0,0 l/m 18,5 km/h (3 Bft) W 261 0 min 0,000 mm 0,0 UV-I 85 W/m 0,1 C -6,1 C 25,7 km/h (4 Bft) 100,00 %
11.02.2016 10:13 2,1 C 86 % 1007,9 hPa 0,0 l/m 15,0 km/h (3 Bft) W-SW 243 0 min 0,000 mm 0,0 UV-I 86 W/m 0,0 C -4,4 C 22,5 km/h (4 Bft) 95,65 %
11.02.2016 10:14 2,1 C 86 % 1007,9 hPa 0,0 l/m 16,8 km/h (3 Bft) SW 221 0 min 0,000 mm 0,0 UV-I 85 W/m 0,0 C -5,4 C 25,7 km/h (4 Bft) 100,00 %
11.02.2016 10:15 2,1 C 86 % 1007,9 hPa 0,0 l/m 21,7 km/h (4 Bft) S-SW 205 0 min 0,000 mm 0,0 UV-I 79 W/m 0,0 C -7,6 C 25,7 km/h (4 Bft) 100,00 %
11.02.2016 10:16 2,1 C 86 % 1007,9 hPa 0,0 l/m 18,2 km/h (3 Bft) W-SW 241 0 min 0,000 mm 0,0 UV-I 75 W/m 0,0 C -6,1 C 25,7 km/h (4 Bft) 100,00 %
11.02.2016 10:17 2,1 C 86 % 1008,0 hPa 0,0 l/m 21,5 km/h (4 Bft) W 267 0 min 0,000 mm 0,0 UV-I 72 W/m 0,0 C -7,6 C 25,7 km/h (4 Bft) 100,00 %
11.02.2016 10:18 2,1 C 87 % 1007,9 hPa 0,0 l/m 18,6 km/h (3 Bft) W-SW 246 0 min 0,000 mm 0,0 UV-I 71 W/m 0,2 C -6,3 C 25,7 km/h (4 Bft) 96,15 %
11.02.2016 10:19 2,0 C 87 % 1007,9 hPa 0,0 l/m 19,8 km/h (3 Bft) SW 225 0 min 0,000 mm 0,0 UV-I 72 W/m 0,1 C -7,0 C 25,7 km/h (4 Bft) 100,00 %
11.02.2016 10:20 2,0 C 87 % 1007,9 hPa 0,0 l/m 22,7 km/h (4 Bft) SW 221 0 min 0,000 mm 0,0 UV-I 77 W/m 0,1 C -8,2 C 30,6 km/h (5 Bft) 100,00 %
11.02.2016 10:21 2,0 C 87 % 1008,0 hPa 0,0 l/m 17,6 km/h (3 Bft) W-SW 246 0 min 0,000 mm 0,0 UV-I 84 W/m 0,1 C -5,9 C 22,5 km/h (4 Bft) 95,83 %
11.02.2016 10:22 2,0 C 87 % 1008,0 hPa 0,0 l/m 15,5 km/h (3 Bft) W-SW 246 0 min 0,000 mm 0,0 UV-I 88 W/m 0,1 C -4,8 C 22,5 km/h (4 Bft) 100,00 %
11.02.2016 10:23 2,0 C 88 % 1008,0 hPa 0,0 l/m 17,1 km/h (3 Bft) W-SW 258 0 min 0,000 mm 0,0 UV-I 91 W/m 0,2 C -5,7 C 24,1 km/h (4 Bft) 100,00 %
11.02.2016 10:24 2,0 C 88 % 1008,0 hPa 0,0 l/m 19,6 km/h (3 Bft) SW 232 0 min 0,000 mm 0,0 UV-I 91 W/m 0,2 C -6,9 C 25,7 km/h (4 Bft) 100,00 %
11.02.2016 10:25 1,9 C 88 % 1008,0 hPa 0,0 l/m 15,6 km/h (3 Bft) SW 217 0 min 0,000 mm 0,0 UV-I 91 W/m 0,1 C -5,0 C 24,1 km/h (4 Bft) 100,00 %
11.02.2016 10:26 1,9 C 88 % 1008,1 hPa 0,0 l/m 18,7 km/h (3 Bft) W 263 0 min 0,000 mm 0,0 UV-I 90 W/m 0,1 C -6,6 C 27,4 km/h (4 Bft) 95,65 %
11.02.2016 10:27 1,9 C 88 % 1008,1 hPa 0,0 l/m 17,4 km/h (3 Bft) W-SW 242 0 min 0,000 mm 0,0 UV-I 93 W/m 0,1 C -6,0 C 24,1 km/h (4 Bft) 100,00 %
11.02.2016 10:28 1,9 C 88 % 1008,1 hPa 0,0 l/m 12,4 km/h (3 Bft) W-SW 238 0 min 0,000 mm 0,0 UV-I 98 W/m 0,1 C -3,1 C 17,7 km/h (3 Bft) 95,65 %
11.02.2016 10:29 1,9 C 88 % 1008,1 hPa 0,0 l/m 13,3 km/h (3 Bft) W 269 0 min 0,000 mm 0,0 UV-I 97 W/m 0,1 C -3,7 C 19,3 km/h (3 Bft) 100,00 %
11.02.2016 10:30 1,9 C 88 % 1008,1 hPa 0,0 l/m 13,8 km/h (3 Bft) W 264 0 min 0,000 mm 0,0 UV-I 94 W/m 0,1 C -4,0 C 22,5 km/h (4 Bft) 100,00 %
11.02.2016 10:31 1,9 C 88 % 1008,0 hPa 0,0 l/m 15,4 km/h (3 Bft) W-SW 243 0 min 0,000 mm 0,0 UV-I 87 W/m 0,1 C -4,9 C 22,5 km/h (4 Bft) 100,00 %
11.02.2016 10:32 2,0 C 88 % 1008,1 hPa 0,0 l/m 14,7 km/h (3 Bft) SW 235 0 min 0,000 mm 0,0 UV-I 79 W/m 0,2 C -4,4 C 20,9 km/h (4 Bft) 100,00 %
11.02.2016 10:33 2,0 C 88 % 1008,1 hPa 0,0 l/m 15,8 km/h (3 Bft) W-SW 248 0 min 0,000 mm 0,0 UV-I 81 W/m 0,2 C -5,0 C 22,5 km/h (4 Bft) 95,83 %
11.02.2016 10:34 2,0 C 88 % 1008,1 hPa 0,0 l/m 16,6 km/h (3 Bft) SW 221 0 min 0,000 mm 0,0 UV-I 87 W/m 0,2 C -5,4 C 22,5 km/h (4 Bft) 100,00 %
11.02.2016 10:35 2,0 C 88 % 1008,1 hPa 0,0 l/m 15,4 km/h (3 Bft) W-SW 254 0 min 0,000 mm 0,0 UV-I 92 W/m 0,2 C -4,8 C 22,5 km/h (4 Bft) 100,00 %
11.02.2016 10:36 2,0 C 88 % 1008,1 hPa 0,0 l/m 16,8 km/h (3 Bft) W-SW 242 0 min 0,000 mm 0,0 UV-I 102 W/m 0,2 C -5,5 C 25,7 km/h (4 Bft) 100,00 %
11.02.2016 10:37 2,0 C 88 % 1008,1 hPa 0,0 l/m 16,6 km/h (3 Bft) W-SW 242 0 min 0,000 mm 0,0 UV-I 108 W/m 0,2 C -5,4 C 24,1 km/h (4 Bft) 95,83 %
11.02.2016 10:38 2,0 C 88 % 1008,1 hPa 0,0 l/m 11,0 km/h (2 Bft) SW 234 0 min 0,000 mm 0,0 UV-I 113 W/m 0,2 C -2,0 C 17,7 km/h (3 Bft) 100,00 %
11.02.2016 10:39 2,0 C 88 % 1008,2 hPa 0,0 l/m 18,8 km/h (3 Bft) W-SW 240 0 min 0,000 mm 0,5 UV-I 111 W/m 0,2 C -6,5 C 24,1 km/h (4 Bft) 95,83 %
11.02.2016 10:40 2,0 C 88 % 1008,2 hPa 0,0 l/m 18,2 km/h (3 Bft) W-SW 239 0 min 0,000 mm 0,5 UV-I 106 W/m 0,2 C -6,2 C 25,7 km/h (4 Bft) 100,00 %
11.02.2016 10:41 1,9 C 88 % 1008,1 hPa 0,0 l/m 21,3 km/h (4 Bft) W-SW 251 0 min 0,000 mm 0,3 UV-I 105 W/m 0,1 C -7,7 C 29,0 km/h (5 Bft) 100,00 %
11.02.2016 10:42 1,9 C 88 % 1008,0 hPa 0,0 l/m 27,5 km/h (4 Bft) SW 227 0 min 0,000 mm 0,0 UV-I 106 W/m 0,1 C -10,0 C 37,0 km/h (5 Bft) 100,00 %
11.02.2016 10:43 2,0 C 88 % 1008,1 hPa 0,0 l/m 19,1 km/h (3 Bft) W 260 0 min 0,000 mm 0,4 UV-I 109 W/m 0,2 C -6,6 C 25,7 km/h (4 Bft) 100,00 %
11.02.2016 10:44 2,0 C 89 % 1008,2 hPa 0,0 l/m 24,4 km/h (4 Bft) W-SW 238 0 min 0,000 mm 0,5 UV-I 116 W/m 0,4 C -8,8 C 32,2 km/h (5 Bft) 100,00 %
11.02.2016 10:45 2,0 C 88 % 1008,2 hPa 0,0 l/m 17,1 km/h (3 Bft) W 277 0 min 0,000 mm 0,5 UV-I 120 W/m 0,2 C -5,7 C 27,4 km/h (4 Bft) 100,00 %
11.02.2016 10:46 2,0 C 88 % 1008,2 hPa 0,0 l/m 15,2 km/h (3 Bft) W-SW 246 0 min 0,000 mm 0,5 UV-I 124 W/m 0,2 C -4,7 C 20,9 km/h (4 Bft) 100,00 %
11.02.2016 10:47 2,0 C 89 % 1008,2 hPa 0,0 l/m 16,4 km/h (3 Bft) W-SW 240 0 min 0,000 mm 0,5 UV-I 135 W/m 0,4 C -5,3 C 24,1 km/h (4 Bft) 95,65 %
11.02.2016 10:48 2,0 C 89 % 1008,3 hPa 0,0 l/m 17,0 km/h (3 Bft) W 261 0 min 0,000 mm 0,5 UV-I 154 W/m 0,4 C -5,6 C 22,5 km/h (4 Bft) 100,00 %
11.02.2016 10:49 2,0 C 89 % 1008,3 hPa 0,0 l/m 19,8 km/h (3 Bft) SW 223 0 min 0,000 mm 0,5 UV-I 167 W/m 0,4 C -7,0 C 30,6 km/h (5 Bft) 100,00 %
11.02.2016 10:50 2,1 C 89 % 1008,3 hPa 0,0 l/m 16,8 km/h (3 Bft) SW 229 0 min 0,000 mm 0,6 UV-I 179 W/m 0,5 C -5,4 C 20,9 km/h (4 Bft) 100,00 %
11.02.2016 10:51 2,1 C 90 % 1008,3 hPa 0,0 l/m 17,0 km/h (3 Bft) W 265 0 min 0,000 mm 0,6 UV-I 178 W/m 0,6 C -5,5 C 22,5 km/h (4 Bft) 100,00 %
11.02.2016 10:52 2,1 C 90 % 1008,3 hPa 0,0 l/m 16,4 km/h (3 Bft) SW 232 0 min 0,000 mm 0,5 UV-I 175 W/m 0,6 C -5,2 C 22,5 km/h (4 Bft) 100,00 %
11.02.2016 10:53 2,1 C 90 % 1008,3 hPa 0,0 l/m 13,1 km/h (3 Bft) W 259 0 min 0,000 mm 0,6 UV-I 175 W/m 0,6 C -3,3 C 17,7 km/h (3 Bft) 95,65 %
11.02.2016 10:54 2,1 C 90 % 1008,3 hPa 0,0 l/m 14,8 km/h (3 Bft) SW 214 0 min 0,000 mm 0,5 UV-I 174 W/m 0,6 C -4,3 C 20,9 km/h (4 Bft) 100,00 %
11.02.2016 10:55 2,1 C 89 % 1008,3 hPa 0,0 l/m 13,8 km/h (3 Bft) W-SW 237 0 min 0,000 mm 0,5 UV-I 159 W/m 0,5 C -3,7 C 20,9 km/h (4 Bft) 100,00 %
11.02.2016 10:56 2,1 C 89 % 1008,3 hPa 0,0 l/m 19,4 km/h (3 Bft) SW 222 0 min 0,000 mm 0,5 UV-I 151 W/m 0,5 C -6,7 C 29,0 km/h (5 Bft) 100,00 %
11.02.2016 10:57 2,1 C 90 % 1008,3 hPa 0,0 l/m 14,0 km/h (3 Bft) W 279 0 min 0,000 mm 0,5 UV-I 141 W/m 0,6 C -3,9 C 19,3 km/h (3 Bft) 100,00 %
11.02.2016 10:58 2,1 C 89 % 1008,4 hPa 0,0 l/m 17,0 km/h (3 Bft) W-SW 248 0 min 0,000 mm 0,5 UV-I 132 W/m 0,5 C -5,5 C 24,1 km/h (4 Bft) 100,00 %
11.02.2016 10:59 2,1 C 89 % 1008,3 hPa 0,0 l/m 22,9 km/h (4 Bft) SW 226 0 min 0,000 mm 0,5 UV-I 133 W/m 0,5 C -8,1 C 30,6 km/h (5 Bft) 100,00 %
11.02.2016 11:00 2,1 C 89 % 1008,3 hPa 0,0 l/m 22,0 km/h (4 Bft) SW 231 0 min 0,050 mm 0,5 UV-I 135 W/m 0,5 C -7,8 C 30,6 km/h (5 Bft) 100,00 %
11.02.2016 11:01 2,1 C 89 % 1008,4 hPa 0,0 l/m 19,2 km/h (3 Bft) SW 236 0 min 0,000 mm 0,5 UV-I 146 W/m 0,5 C -6,6 C 30,6 km/h (5 Bft) 100,00 %
11.02.2016 11:02 2,1 C 89 % 1008,3 hPa 0,0 l/m 20,9 km/h (4 Bft) SW 226 0 min 0,000 mm 0,5 UV-I 145 W/m 0,5 C -7,3 C 29,0 km/h (5 Bft) 100,00 %
11.02.2016 11:03 2,1 C 90 % 1008,3 hPa 0,0 l/m 19,6 km/h (3 Bft) SW 223 0 min 0,000 mm 0,5 UV-I 129 W/m 0,6 C -6,7 C 27,4 km/h (4 Bft) 95,83 %
11.02.2016 11:04 2,1 C 90 % 1008,4 hPa 0,0 l/m 22,1 km/h (4 Bft) S-SW 206 0 min 0,000 mm 0,5 UV-I 122 W/m 0,6 C -7,8 C 29,0 km/h (5 Bft) 95,65 %
11.02.2016 11:05 2,1 C 89 % 1008,3 hPa 0,0 l/m 22,0 km/h (4 Bft) S-SW 204 0 min 0,000 mm 0,5 UV-I 119 W/m 0,5 C -7,8 C 32,2 km/h (5 Bft) 95,83 %
11.02.2016 11:06 2,1 C 89 % 1008,3 hPa 0,0 l/m 17,2 km/h (3 Bft) SW 229 0 min 0,000 mm 0,5 UV-I 118 W/m 0,5 C -5,6 C 24,1 km/h (4 Bft) 91,30 %
11.02.2016 11:07 2,1 C 89 % 1008,3 hPa 0,0 l/m 20,5 km/h (4 Bft) S-SW 204 0 min 0,000 mm 0,5 UV-I 116 W/m 0,5 C -7,1 C 27,4 km/h (4 Bft) 100,00 %
11.02.2016 11:08 2,1 C 89 % 1008,4 hPa 0,0 l/m 22,6 km/h (4 Bft) SW 227 0 min 0,000 mm 0,0 UV-I 111 W/m 0,5 C -8,0 C 32,2 km/h (5 Bft) 91,30 %
11.02.2016 11:09 2,2 C 89 % 1008,3 hPa 0,0 l/m 16,3 km/h (3 Bft) S-SW 212 0 min 0,000 mm 0,0 UV-I 104 W/m 0,6 C -5,0 C 30,6 km/h (5 Bft) 95,83 %
11.02.2016 11:10 2,2 C 89 % 1008,3 hPa 0,0 l/m 18,0 km/h (3 Bft) SW 221 0 min 0,000 mm 0,0 UV-I 99 W/m 0,6 C -5,9 C 22,5 km/h (4 Bft) 95,65 %
11.02.2016 11:11 2,2 C 89 % 1008,3 hPa 0,0 l/m 11,8 km/h (2 Bft) W-SW 250 0 min 0,000 mm 0,0 UV-I 92 W/m 0,6 C -2,3 C 24,1 km/h (4 Bft) 100,00 %
11.02.2016 11:12 2,2 C 88 % 1008,3 hPa 0,0 l/m 16,0 km/h (3 Bft) W-SW 252 0 min 0,000 mm 0,0 UV-I 90 W/m 0,4 C -4,9 C 25,7 km/h (4 Bft) 95,65 %
11.02.2016 11:13 2,2 C 89 % 1008,4 hPa 0,0 l/m 12,0 km/h (2 Bft) SW 232 0 min 0,000 mm 0,0 UV-I 93 W/m 0,6 C -2,5 C 19,3 km/h (3 Bft) 95,83 %
11.02.2016 11:14 2,2 C 89 % 1008,4 hPa 0,0 l/m 10,2 km/h (2 Bft) S-SW 202 0 min 0,000 mm 0,0 UV-I 97 W/m 0,6 C -1,2 C 17,7 km/h (3 Bft) 100,00 %
11.02.2016 11:15 2,2 C 89 % 1008,4 hPa 0,0 l/m 19,0 km/h (3 Bft) SW 234 0 min 0,000 mm 0,0 UV-I 98 W/m 0,6 C -6,3 C 27,4 km/h (4 Bft) 95,83 %
11.02.2016 11:16 2,2 C 88 % 1008,4 hPa 0,0 l/m 17,4 km/h (3 Bft) SW 221 0 min 0,000 mm 0,0 UV-I 100 W/m 0,4 C -5,6 C 30,6 km/h (5 Bft) 100,00 %
11.02.2016 11:17 2,2 C 88 % 1008,4 hPa 0,0 l/m 16,0 km/h (3 Bft) S-SW 196 0 min 0,000 mm 0,0 UV-I 98 W/m 0,4 C -4,9 C 25,7 km/h (4 Bft) 95,83 %
11.02.2016 11:18 2,2 C 88 % 1008,4 hPa 0,0 l/m 20,0 km/h (4 Bft) SW 226 0 min 0,000 mm 0,0 UV-I 95 W/m 0,4 C -6,8 C 27,4 km/h (4 Bft) 100,00 %
11.02.2016 11:19 2,2 C 88 % 1008,4 hPa 0,0 l/m 15,9 km/h (3 Bft) S 190 0 min 0,000 mm 0,0 UV-I 95 W/m 0,4 C -4,8 C 22,5 km/h (4 Bft) 95,65 %
11.02.2016 11:20 2,2 C 88 % 1008,4 hPa 0,0 l/m 22,1 km/h (4 Bft) SW 230 0 min 0,000 mm 0,0 UV-I 97 W/m 0,4 C -7,7 C 33,8 km/h (5 Bft) 95,83 %
11.02.2016 11:21 2,2 C 88 % 1008,4 hPa 0,0 l/m 20,0 km/h (4 Bft) SW 232 0 min 0,000 mm 0,0 UV-I 97 W/m 0,4 C -6,8 C 37,0 km/h (5 Bft) 95,65 %
11.02.2016 11:22 2,2 C 88 % 1008,3 hPa 0,0 l/m 26,9 km/h (4 Bft) SW 215 0 min 0,000 mm 0,0 UV-I 94 W/m 0,4 C -9,4 C 33,8 km/h (5 Bft) 95,83 %
11.02.2016 11:23 2,2 C 87 % 1008,4 hPa 0,0 l/m 16,9 km/h (3 Bft) SW 215 0 min 0,000 mm 0,0 UV-I 94 W/m 0,3 C -5,3 C 24,1 km/h (4 Bft) 100,00 %
11.02.2016 11:24 2,2 C 88 % 1008,4 hPa 0,0 l/m 18,6 km/h (3 Bft) SW 225 0 min 0,000 mm 0,0 UV-I 90 W/m 0,4 C -6,2 C 29,0 km/h (5 Bft) 95,83 %
11.02.2016 11:25 2,2 C 88 % 1008,5 hPa 0,0 l/m 19,8 km/h (3 Bft) W-SW 237 0 min 0,000 mm 0,0 UV-I 86 W/m 0,4 C -6,7 C 29,0 km/h (5 Bft) 100,00 %
11.02.2016 11:26 2,2 C 88 % 1008,4 hPa 0,0 l/m 20,4 km/h (4 Bft) W-SW 254 0 min 0,000 mm 0,0 UV-I 84 W/m 0,4 C -7,0 C 27,4 km/h (4 Bft) 95,83 %
11.02.2016 11:27 2,2 C 88 % 1008,4 hPa 0,0 l/m 20,7 km/h (4 Bft) S 190 0 min 0,000 mm 0,0 UV-I 84 W/m 0,4 C -7,1 C 27,4 km/h (4 Bft) 95,65 %
11.02.2016 11:28 2,2 C 88 % 1008,4 hPa 0,0 l/m 11,9 km/h (2 Bft) SW 215 0 min 0,000 mm 0,0 UV-I 82 W/m 0,4 C -2,4 C 17,7 km/h (3 Bft) 95,83 %
11.02.2016 11:29 2,2 C 88 % 1008,4 hPa 0,0 l/m 18,4 km/h (3 Bft) S 186 0 min 0,000 mm 0,0 UV-I 80 W/m 0,4 C -6,1 C 25,7 km/h (4 Bft) 95,65 %
11.02.2016 11:30 2,2 C 87 % 1008,4 hPa 0,0 l/m 19,8 km/h (3 Bft) W-SW 244 0 min 0,000 mm 0,0 UV-I 77 W/m 0,3 C -6,7 C 29,0 km/h (5 Bft) 100,00 %
11.02.2016 11:31 2,2 C 87 % 1008,4 hPa 0,0 l/m 18,9 km/h (3 Bft) S-SW 194 0 min 0,000 mm 0,0 UV-I 81 W/m 0,3 C -6,3 C 27,4 km/h (4 Bft) 96,15 %
11.02.2016 11:32 2,2 C 87 % 1008,5 hPa 0,0 l/m 19,6 km/h (3 Bft) S-SW 211 0 min 0,000 mm 0,0 UV-I 83 W/m 0,3 C -6,6 C 25,7 km/h (4 Bft) 100,00 %
11.02.2016 11:33 2,2 C 87 % 1008,4 hPa 0,0 l/m 22,9 km/h (4 Bft) W-SW 258 0 min 0,000 mm 0,0 UV-I 86 W/m 0,3 C -8,0 C 33,8 km/h (5 Bft) 95,65 %
11.02.2016 11:34 2,3 C 87 % 1008,4 hPa 0,0 l/m 18,9 km/h (3 Bft) SW 227 0 min 0,000 mm 0,0 UV-I 88 W/m 0,4 C -6,2 C 24,1 km/h (4 Bft) 100,00 %
11.02.2016 11:35 2,3 C 87 % 1008,4 hPa 0,0 l/m 13,9 km/h (3 Bft) SW 231 0 min 0,000 mm 0,0 UV-I 93 W/m 0,4 C -3,6 C 19,3 km/h (3 Bft) 93,33 %
11.02.2016 11:36 2,3 C 86 % 1008,4 hPa 0,0 l/m 22,0 km/h (4 Bft) W-SW 247 0 min 0,000 mm 0,0 UV-I 97 W/m 0,2 C -7,5 C 32,2 km/h (5 Bft) 100,00 %
11.02.2016 11:37 2,3 C 86 % 1008,3 hPa 0,0 l/m 21,4 km/h (4 Bft) SW 220 0 min 0,000 mm 0,0 UV-I 108 W/m 0,2 C -7,2 C 29,0 km/h (5 Bft) 95,83 %
11.02.2016 11:38 2,3 C 86 % 1008,4 hPa 0,0 l/m 23,3 km/h (4 Bft) W-SW 239 0 min 0,000 mm 0,1 UV-I 126 W/m 0,2 C -8,0 C 35,4 km/h (5 Bft) 100,00 %
11.02.2016 11:39 2,3 C 86 % 1008,4 hPa 0,0 l/m 20,2 km/h (4 Bft) W-SW 253 0 min 0,000 mm 0,5 UV-I 140 W/m 0,2 C -6,7 C 27,4 km/h (4 Bft) 100,00 %
11.02.2016 11:40 2,3 C 86 % 1008,4 hPa 0,0 l/m 18,6 km/h (3 Bft) SW 219 0 min 0,000 mm 0,5 UV-I 144 W/m 0,2 C -6,0 C 24,1 km/h (4 Bft) 95,65 %
11.02.2016 11:41 2,3 C 86 % 1008,3 hPa 0,0 l/m 21,0 km/h (4 Bft) S-SW 209 0 min 0,000 mm 0,5 UV-I 144 W/m 0,2 C -7,1 C 29,0 km/h (5 Bft) 95,83 %
11.02.2016 11:42 2,4 C 86 % 1008,4 hPa 0,0 l/m 20,8 km/h (4 Bft) SW 227 0 min 0,000 mm 0,5 UV-I 150 W/m 0,3 C -6,9 C 29,0 km/h (5 Bft) 92,31 %
11.02.2016 11:43 2,4 C 86 % 1008,3 hPa 0,0 l/m 18,3 km/h (3 Bft) SW 228 0 min 0,000 mm 0,6 UV-I 167 W/m 0,3 C -5,8 C 27,4 km/h (4 Bft) 100,00 %
11.02.2016 11:44 2,4 C 86 % 1008,3 hPa 0,0 l/m 18,5 km/h (3 Bft) W 261 0 min 0,000 mm 0,7 UV-I 191 W/m 0,3 C -5,9 C 24,1 km/h (4 Bft) 91,30 %
11.02.2016 11:45 2,4 C 85 % 1008,3 hPa 0,0 l/m 22,2 km/h (4 Bft) S 186 0 min 0,000 mm 0,7 UV-I 222 W/m 0,1 C -7,4 C 30,6 km/h (5 Bft) 100,00 %
11.02.2016 11:46 2,4 C 85 % 1008,3 hPa 0,0 l/m 17,3 km/h (3 Bft) SW 221 1 min 0,000 mm 0,8 UV-I 258 W/m 0,1 C -5,3 C 25,7 km/h (4 Bft) 100,00 %
11.02.2016 11:47 2,5 C 86 % 1008,3 hPa 0,0 l/m 20,0 km/h (4 Bft) SW 236 0 min 0,000 mm 0,8 UV-I 251 W/m 0,4 C -6,4 C 29,0 km/h (5 Bft) 95,83 %
11.02.2016 11:48 2,6 C 86 % 1008,3 hPa 0,0 l/m 19,2 km/h (3 Bft) W-SW 237 0 min 0,000 mm 0,8 UV-I 221 W/m 0,5 C -5,9 C 32,2 km/h (5 Bft) 91,30 %
11.02.2016 11:49 2,6 C 86 % 1008,3 hPa 0,0 l/m 23,7 km/h (4 Bft) W-SW 246 0 min 0,000 mm 0,7 UV-I 201 W/m 0,5 C -7,7 C 37,0 km/h (5 Bft) 100,00 %
11.02.2016 11:50 2,6 C 86 % 1008,5 hPa 0,0 l/m 19,6 km/h (3 Bft) W-SW 244 0 min 0,000 mm 0,7 UV-I 190 W/m 0,5 C -6,1 C 30,6 km/h (5 Bft) 100,00 %
11.02.2016 11:51 2,6 C 86 % 1008,3 hPa 0,0 l/m 20,3 km/h (4 Bft) SW 218 0 min 0,000 mm 0,7 UV-I 182 W/m 0,5 C -6,4 C 30,6 km/h (5 Bft) 100,00 %
11.02.2016 11:52 2,6 C 85 % 1008,4 hPa 0,0 l/m 22,9 km/h (4 Bft) S-SW 201 0 min 0,000 mm 0,7 UV-I 175 W/m 0,3 C -7,4 C 30,6 km/h (5 Bft) 100,00 %
11.02.2016 11:53 2,6 C 85 % 1008,4 hPa 0,0 l/m 21,6 km/h (4 Bft) SW 225 0 min 0,000 mm 0,7 UV-I 174 W/m 0,3 C -6,9 C 29,0 km/h (5 Bft) 100,00 %
11.02.2016 11:54 2,6 C 85 % 1008,3 hPa 0,0 l/m 17,4 km/h (3 Bft) S-SW 196 0 min 0,000 mm 0,6 UV-I 174 W/m 0,3 C -5,1 C 22,5 km/h (4 Bft) 100,00 %
11.02.2016 11:55 2,7 C 86 % 1008,3 hPa 0,0 l/m 16,0 km/h (3 Bft) W 262 0 min 0,000 mm 0,6 UV-I 180 W/m 0,6 C -4,2 C 20,9 km/h (4 Bft) 100,00 %
11.02.2016 11:56 2,7 C 86 % 1008,3 hPa 0,0 l/m 16,5 km/h (3 Bft) SW 234 0 min 0,000 mm 0,7 UV-I 185 W/m 0,6 C -4,5 C 22,5 km/h (4 Bft) 100,00 %
11.02.2016 11:57 2,7 C 86 % 1008,3 hPa 0,0 l/m 17,9 km/h (3 Bft) W-SW 242 0 min 0,000 mm 0,6 UV-I 181 W/m 0,6 C -5,2 C 27,4 km/h (4 Bft) 100,00 %
11.02.2016 11:58 2,7 C 86 % 1008,3 hPa 0,0 l/m 20,7 km/h (4 Bft) SW 215 0 min 0,000 mm 0,6 UV-I 179 W/m 0,6 C -6,4 C 32,2 km/h (5 Bft) 95,83 %
11.02.2016 11:59 2,7 C 85 % 1008,3 hPa 0,0 l/m 14,0 km/h (3 Bft) W-SW 255 0 min 0,000 mm 0,6 UV-I 173 W/m 0,4 C -3,1 C 17,7 km/h (3 Bft) 100,00 %
11.02.2016 12:00 2,7 C 85 % 1008,3 hPa 0,0 l/m 21,9 km/h (4 Bft) W-SW 247 0 min 0,000 mm 0,5 UV-I 155 W/m 0,4 C -6,9 C 29,0 km/h (5 Bft) 96,15 %
11.02.2016 12:01 2,7 C 85 % 1008,2 hPa 0,0 l/m 19,5 km/h (3 Bft) SW 225 0 min 0,077 mm 0,5 UV-I 149 W/m 0,4 C -5,9 C 27,4 km/h (4 Bft) 100,00 %
11.02.2016 12:02 2,7 C 85 % 1008,3 hPa 0,0 l/m 15,6 km/h (3 Bft) SW 236 0 min 0,000 mm 0,5 UV-I 148 W/m 0,4 C -4,0 C 22,5 km/h (4 Bft) 95,83 %
11.02.2016 12:03 2,7 C 84 % 1008,2 hPa 0,0 l/m 19,0 km/h (3 Bft) SW 221 0 min 0,000 mm 0,5 UV-I 147 W/m 0,3 C -5,7 C 29,0 km/h (5 Bft) 100,00 %
11.02.2016 12:04 2,7 C 85 % 1008,3 hPa 0,0 l/m 16,7 km/h (3 Bft) W 261 0 min 0,000 mm 0,5 UV-I 141 W/m 0,4 C -4,6 C 22,5 km/h (4 Bft) 100,00 %
11.02.2016 12:05 2,7 C 85 % 1008,2 hPa 0,0 l/m 19,4 km/h (3 Bft) SW 229 0 min 0,000 mm 0,5 UV-I 139 W/m 0,4 C -5,9 C 25,7 km/h (4 Bft) 100,00 %
11.02.2016 12:06 2,7 C 85 % 1008,2 hPa 0,0 l/m 22,7 km/h (4 Bft) SW 236 0 min 0,000 mm 0,6 UV-I 145 W/m 0,4 C -7,2 C 33,8 km/h (5 Bft) 100,00 %
11.02.2016 12:07 2,7 C 85 % 1008,2 hPa 0,0 l/m 20,1 km/h (4 Bft) SW 216 0 min 0,000 mm 0,6 UV-I 151 W/m 0,4 C -6,2 C 29,0 km/h (5 Bft) 95,65 %
11.02.2016 12:08 2,8 C 85 % 1008,2 hPa 0,0 l/m 21,4 km/h (4 Bft) W-SW 246 0 min 0,000 mm 0,6 UV-I 151 W/m 0,5 C -6,6 C 37,0 km/h (5 Bft) 100,00 %
11.02.2016 12:09 2,8 C 84 % 1008,2 hPa 0,0 l/m 23,1 km/h (4 Bft) W-SW 241 0 min 0,000 mm 0,6 UV-I 145 W/m 0,4 C -7,2 C 35,4 km/h (5 Bft) 100,00 %
11.02.2016 12:10 2,7 C 84 % 1008,2 hPa 0,0 l/m 15,4 km/h (3 Bft) W-SW 243 0 min 0,000 mm 0,6 UV-I 133 W/m 0,3 C -3,9 C 22,5 km/h (4 Bft) 100,00 %
11.02.2016 12:11 2,7 C 84 % 1008,2 hPa 0,0 l/m 23,7 km/h (4 Bft) SW 223 0 min 0,000 mm 0,6 UV-I 127 W/m 0,3 C -7,6 C 33,8 km/h (5 Bft) 100,00 %
11.02.2016 12:12 2,7 C 84 % 1008,3 hPa 0,0 l/m 24,7 km/h (4 Bft) SW 236 0 min 0,000 mm 0,6 UV-I 129 W/m 0,3 C -8,0 C 30,6 km/h (5 Bft) 95,83 %
11.02.2016 12:13 2,7 C 84 % 1008,2 hPa 0,0 l/m 20,7 km/h (4 Bft) W 261 0 min 0,000 mm 0,6 UV-I 138 W/m 0,3 C -6,4 C 27,4 km/h (4 Bft) 100,00 %
11.02.2016 12:14 2,7 C 85 % 1008,2 hPa 0,0 l/m 18,4 km/h (3 Bft) W-SW 257 0 min 0,000 mm 0,6 UV-I 150 W/m 0,4 C -5,4 C 22,5 km/h (4 Bft) 95,83 %
11.02.2016 12:15 2,8 C 84 % 1008,2 hPa 0,0 l/m 22,5 km/h (4 Bft) W-SW 240 0 min 0,000 mm 0,6 UV-I 157 W/m 0,4 C -7,0 C 30,6 km/h (5 Bft) 100,00 %
11.02.2016 12:16 2,8 C 84 % 1008,2 hPa 0,0 l/m 19,4 km/h (3 Bft) W-SW 250 0 min 0,000 mm 0,6 UV-I 156 W/m 0,4 C -5,8 C 27,4 km/h (4 Bft) 95,65 %
11.02.2016 12:17 2,8 C 85 % 1008,2 hPa 0,0 l/m 21,7 km/h (4 Bft) SW 236 0 min 0,000 mm 0,6 UV-I 153 W/m 0,5 C -6,7 C 29,0 km/h (5 Bft) 100,00 %
11.02.2016 12:18 2,8 C 85 % 1008,2 hPa 0,0 l/m 16,5 km/h (3 Bft) SW 226 0 min 0,000 mm 0,6 UV-I 153 W/m 0,5 C -4,4 C 20,9 km/h (4 Bft) 100,00 %
11.02.2016 12:19 2,8 C 85 % 1008,2 hPa 0,0 l/m 16,4 km/h (3 Bft) W-SW 257 0 min 0,000 mm 0,6 UV-I 155 W/m 0,5 C -4,3 C 19,3 km/h (3 Bft) 100,00 %
11.02.2016 12:20 2,8 C 85 % 1008,2 hPa 0,0 l/m 17,6 km/h (3 Bft) SW 225 0 min 0,000 mm 0,6 UV-I 151 W/m 0,5 C -4,9 C 25,7 km/h (4 Bft) 100,00 %
11.02.2016 12:21 2,9 C 85 % 1008,2 hPa 0,0 l/m 18,2 km/h (3 Bft) S-SW 203 0 min 0,000 mm 0,5 UV-I 145 W/m 0,6 C -5,1 C 27,4 km/h (4 Bft) 100,00 %
11.02.2016 12:22 2,9 C 85 % 1008,2 hPa 0,0 l/m 20,6 km/h (4 Bft) SW 221 0 min 0,000 mm 0,5 UV-I 144 W/m 0,6 C -6,1 C 25,7 km/h (4 Bft) 95,65 %
11.02.2016 12:23 2,9 C 84 % 1008,2 hPa 0,0 l/m 21,0 km/h (4 Bft) SW 233 0 min 0,000 mm 0,5 UV-I 148 W/m 0,5 C -6,3 C 27,4 km/h (4 Bft) 100,00 %
11.02.2016 12:24 2,9 C 84 % 1008,2 hPa 0,0 l/m 18,0 km/h (3 Bft) W-SW 258 0 min 0,000 mm 0,5 UV-I 148 W/m 0,5 C -5,0 C 22,5 km/h (4 Bft) 100,00 %
11.02.2016 12:25 2,9 C 85 % 1008,2 hPa 0,0 l/m 20,1 km/h (4 Bft) W-SW 246 0 min 0,000 mm 0,5 UV-I 146 W/m 0,6 C -5,9 C 27,4 km/h (4 Bft) 95,83 %
11.02.2016 12:26 2,9 C 85 % 1008,2 hPa 0,0 l/m 20,0 km/h (4 Bft) W-SW 242 0 min 0,000 mm 0,5 UV-I 146 W/m 0,6 C -5,9 C 29,0 km/h (5 Bft) 95,65 %
11.02.2016 12:27 2,9 C 84 % 1008,2 hPa 0,0 l/m 17,6 km/h (3 Bft) W-SW 249 0 min 0,000 mm 0,6 UV-I 148 W/m 0,5 C -4,8 C 25,7 km/h (4 Bft) 100,00 %
11.02.2016 12:28 2,9 C 84 % 1008,1 hPa 0,0 l/m 19,0 km/h (3 Bft) SW 227 0 min 0,000 mm 0,6 UV-I 155 W/m 0,5 C -5,4 C 24,1 km/h (4 Bft) 91,30 %
11.02.2016 12:29 2,9 C 84 % 1008,2 hPa 0,0 l/m 21,3 km/h (4 Bft) W-SW 255 0 min 0,000 mm 0,7 UV-I 171 W/m 0,5 C -6,4 C 32,2 km/h (5 Bft) 100,00 %
11.02.2016 12:30 2,9 C 84 % 1008,2 hPa 0,0 l/m 16,6 km/h (3 Bft) W-NW 292 0 min 0,000 mm 0,7 UV-I 190 W/m 0,5 C -4,3 C 24,1 km/h (4 Bft) 100,00 %
11.02.2016 12:31 3,0 C 84 % 1008,2 hPa 0,0 l/m 18,0 km/h (3 Bft) SW 217 0 min 0,000 mm 0,7 UV-I 199 W/m 0,6 C -4,9 C 25,7 km/h (4 Bft) 100,00 %
11.02.2016 12:32 3,0 C 84 % 1008,1 hPa 0,0 l/m 18,9 km/h (3 Bft) SW 229 0 min 0,000 mm 0,7 UV-I 189 W/m 0,6 C -5,3 C 25,7 km/h (4 Bft) 100,00 %
11.02.2016 12:33 3,1 C 84 % 1008,1 hPa 0,0 l/m 20,3 km/h (4 Bft) W-SW 239 0 min 0,000 mm 0,6 UV-I 180 W/m 0,7 C -5,8 C 27,4 km/h (4 Bft) 100,00 %
11.02.2016 12:34 3,1 C 84 % 1008,1 hPa 0,0 l/m 17,2 km/h (3 Bft) W 273 0 min 0,000 mm 0,6 UV-I 179 W/m 0,7 C -4,4 C 20,9 km/h (4 Bft) 100,00 %
11.02.2016 12:35 3,1 C 84 % 1008,1 hPa 0,0 l/m 16,0 km/h (3 Bft) SW 236 0 min 0,000 mm 0,6 UV-I 178 W/m 0,7 C -3,8 C 22,5 km/h (4 Bft) 100,00 %
11.02.2016 12:36 3,1 C 83 % 1008,1 hPa 0,0 l/m 17,7 km/h (3 Bft) SW 234 0 min 0,000 mm 0,6 UV-I 172 W/m 0,5 C -4,6 C 24,1 km/h (4 Bft) 100,00 %
11.02.2016 12:37 3,1 C 83 % 1008,1 hPa 0,0 l/m 14,6 km/h (3 Bft) SW 234 0 min 0,000 mm 0,5 UV-I 164 W/m 0,5 C -3,0 C 19,3 km/h (3 Bft) 100,00 %
11.02.2016 12:38 3,2 C 83 % 1008,1 hPa 0,0 l/m 19,1 km/h (3 Bft) SW 228 0 min 0,000 mm 0,5 UV-I 160 W/m 0,6 C -5,1 C 22,5 km/h (4 Bft) 100,00 %
11.02.2016 12:39 3,2 C 83 % 1008,1 hPa 0,0 l/m 15,8 km/h (3 Bft) W-SW 241 0 min 0,000 mm 0,5 UV-I 151 W/m 0,6 C -3,5 C 19,3 km/h (3 Bft) 95,83 %
11.02.2016 12:40 3,2 C 83 % 1008,2 hPa 0,0 l/m 14,1 km/h (3 Bft) W-SW 254 0 min 0,000 mm 0,5 UV-I 146 W/m 0,6 C -2,6 C 16,1 km/h (3 Bft) 100,00 %
11.02.2016 12:41 3,2 C 83 % 1008,1 hPa 0,0 l/m 11,2 km/h (2 Bft) W-SW 252 0 min 0,000 mm 0,5 UV-I 137 W/m 0,6 C -0,8 C 17,7 km/h (3 Bft) 100,00 %
11.02.2016 12:42 3,2 C 83 % 1008,1 hPa 0,0 l/m 18,4 km/h (3 Bft) W-SW 240 0 min 0,000 mm 0,5 UV-I 135 W/m 0,6 C -4,8 C 25,7 km/h (4 Bft) 100,00 %
11.02.2016 12:43 3,2 C 83 % 1008,1 hPa 0,0 l/m 17,1 km/h (3 Bft) SW 223 0 min 0,000 mm 0,5 UV-I 140 W/m 0,6 C -4,2 C 25,7 km/h (4 Bft) 100,00 %
11.02.2016 12:44 3,2 C 83 % 1008,1 hPa 0,0 l/m 16,4 km/h (3 Bft) S 178 0 min 0,000 mm 0,5 UV-I 141 W/m 0,6 C -3,8 C 24,1 km/h (4 Bft) 100,00 %
11.02.2016 12:45 3,2 C 82 % 1008,1 hPa 0,0 l/m 16,6 km/h (3 Bft) SW 225 0 min 0,000 mm 0,5 UV-I 139 W/m 0,4 C -3,9 C 30,6 km/h (5 Bft) 100,00 %
11.02.2016 12:46 3,2 C 83 % 1008,1 hPa 0,0 l/m 19,6 km/h (3 Bft) W-SW 247 0 min 0,000 mm 0,5 UV-I 141 W/m 0,6 C -5,3 C 24,1 km/h (4 Bft) 100,00 %
11.02.2016 12:47 3,2 C 83 % 1008,1 hPa 0,0 l/m 14,2 km/h (3 Bft) SW 222 0 min 0,000 mm 0,5 UV-I 140 W/m 0,6 C -2,7 C 19,3 km/h (3 Bft) 100,00 %
11.02.2016 12:48 3,2 C 83 % 1008,1 hPa 0,0 l/m 18,4 km/h (3 Bft) SW 222 0 min 0,000 mm 0,5 UV-I 136 W/m 0,6 C -4,8 C 24,1 km/h (4 Bft) 100,00 %
11.02.2016 12:49 3,3 C 83 % 1008,1 hPa 0,0 l/m 15,8 km/h (3 Bft) S-SO 148 0 min 0,000 mm 0,4 UV-I 133 W/m 0,7 C -3,4 C 22,5 km/h (4 Bft) 95,65 %
11.02.2016 12:50 3,3 C 83 % 1008,1 hPa 0,0 l/m 13,7 km/h (3 Bft) SW 229 0 min 0,000 mm 0,0 UV-I 129 W/m 0,7 C -2,3 C 19,3 km/h (3 Bft) 100,00 %
11.02.2016 12:51 3,3 C 83 % 1008,1 hPa 0,0 l/m 15,2 km/h (3 Bft) SW 232 0 min 0,000 mm 0,0 UV-I 122 W/m 0,7 C -3,1 C 24,1 km/h (4 Bft) 100,00 %
11.02.2016 12:52 3,3 C 82 % 1008,1 hPa 0,0 l/m 16,2 km/h (3 Bft) W-SW 245 0 min 0,000 mm 0,0 UV-I 114 W/m 0,5 C -3,6 C 20,9 km/h (4 Bft) 100,00 %
11.02.2016 12:53 3,3 C 83 % 1008,1 hPa 0,0 l/m 16,8 km/h (3 Bft) W-SW 250 0 min 0,000 mm 0,0 UV-I 101 W/m 0,7 C -3,9 C 24,1 km/h (4 Bft) 95,65 %
11.02.2016 12:54 3,3 C 83 % 1008,1 hPa 0,0 l/m 13,7 km/h (3 Bft) SW 223 0 min 0,000 mm 0,0 UV-I 93 W/m 0,7 C -2,3 C 22,5 km/h (4 Bft) 100,00 %
11.02.2016 12:55 3,3 C 83 % 1008,1 hPa 0,0 l/m 16,6 km/h (3 Bft) W-SW 248 0 min 0,000 mm 0,0 UV-I 86 W/m 0,7 C -3,8 C 29,0 km/h (5 Bft) 100,00 %
11.02.2016 12:56 3,3 C 83 % 1008,1 hPa 0,0 l/m 19,4 km/h (3 Bft) S 191 0 min 0,000 mm 0,0 UV-I 83 W/m 0,7 C -5,1 C 30,6 km/h (5 Bft) 100,00 %
11.02.2016 12:57 3,3 C 83 % 1008,2 hPa 0,0 l/m 17,7 km/h (3 Bft) W 271 0 min 0,000 mm 0,0 UV-I 83 W/m 0,7 C -4,3 C 27,4 km/h (4 Bft) 100,00 %
11.02.2016 12:58 3,3 C 82 % 1008,1 hPa 0,0 l/m 19,0 km/h (3 Bft) W 259 0 min 0,000 mm 0,0 UV-I 81 W/m 0,5 C -4,9 C 25,7 km/h (4 Bft) 95,65 %
11.02.2016 12:59 3,3 C 83 % 1008,1 hPa 0,0 l/m 18,0 km/h (3 Bft) W 267 0 min 0,000 mm 0,0 UV-I 76 W/m 0,7 C -4,5 C 27,4 km/h (4 Bft) 100,00 %
11.02.2016 13:00 3,3 C 82 % 1008,1 hPa 0,0 l/m 18,6 km/h (3 Bft) SW 223 0 min 0,000 mm 0,0 UV-I 70 W/m 0,5 C -4,8 C 30,6 km/h (5 Bft) 100,00 %
11.02.2016 13:01 3,2 C 82 % 1008,2 hPa 0,0 l/m 21,9 km/h (4 Bft) W-SW 246 0 min 0,076 mm 0,0 UV-I 65 W/m 0,4 C -6,3 C 30,6 km/h (5 Bft) 100,00 %
11.02.2016 13:02 3,2 C 81 % 1008,2 hPa 0,0 l/m 20,5 km/h (4 Bft) S-SW 201 0 min 0,000 mm 0,0 UV-I 62 W/m 0,3 C -5,7 C 27,4 km/h (4 Bft) 100,00 %
11.02.2016 13:03 3,2 C 82 % 1008,2 hPa 0,0 l/m 17,7 km/h (3 Bft) SW 224 0 min 0,000 mm 0,0 UV-I 62 W/m 0,4 C -4,5 C 25,7 km/h (4 Bft) 95,83 %
11.02.2016 13:04 3,2 C 82 % 1008,1 hPa 0,0 l/m 22,1 km/h (4 Bft) W-SW 250 0 min 0,000 mm 0,0 UV-I 58 W/m 0,4 C -6,3 C 29,0 km/h (5 Bft) 95,65 %
11.02.2016 13:05 3,1 C 82 % 1008,1 hPa 0,0 l/m 19,2 km/h (3 Bft) W 265 0 min 0,000 mm 0,0 UV-I 60 W/m 0,3 C -5,3 C 25,7 km/h (4 Bft) 100,00 %
11.02.2016 13:06 3,1 C 82 % 1008,2 hPa 0,0 l/m 20,6 km/h (4 Bft) W-SW 246 0 min 0,000 mm 0,0 UV-I 57 W/m 0,3 C -5,9 C 32,2 km/h (5 Bft) 95,65 %
11.02.2016 13:07 3,1 C 83 % 1008,2 hPa 0,0 l/m 20,6 km/h (4 Bft) W-SW 244 0 min 0,000 mm 0,0 UV-I 53 W/m 0,5 C -5,9 C 27,4 km/h (4 Bft) 100,00 %
11.02.2016 13:08 3,0 C 84 % 1008,3 hPa 0,0 l/m 16,9 km/h (3 Bft) S-SW 202 0 min 0,000 mm 0,0 UV-I 61 W/m 0,6 C -4,3 C 27,4 km/h (4 Bft) 96,15 %
11.02.2016 13:09 2,9 C 84 % 1008,2 hPa 0,0 l/m 16,7 km/h (3 Bft) W-SW 245 0 min 0,000 mm 0,0 UV-I 61 W/m 0,5 C -4,4 C 22,5 km/h (4 Bft) 100,00 %
11.02.2016 13:10 2,7 C 85 % 1008,2 hPa 0,0 l/m 13,8 km/h (3 Bft) W-SW 242 0 min 0,000 mm 0,0 UV-I 60 W/m 0,4 C -3,0 C 22,5 km/h (4 Bft) 95,65 %
11.02.2016 13:11 2,6 C 86 % 1008,2 hPa 0,0 l/m 11,7 km/h (2 Bft) S-SW 213 0 min 0,000 mm 0,0 UV-I 70 W/m 0,5 C -1,8 C 16,1 km/h (3 Bft) 95,83 %
11.02.2016 13:12 2,4 C 86 % 1008,2 hPa 0,0 l/m 13,7 km/h (3 Bft) S 190 0 min 0,000 mm 0,0 UV-I 96 W/m 0,3 C -3,3 C 20,9 km/h (4 Bft) 100,00 %
11.02.2016 13:13 2,2 C 88 % 1008,2 hPa 0,0 l/m 13,7 km/h (3 Bft) SW 215 0 min 0,000 mm 0,0 UV-I 124 W/m 0,4 C -3,6 C 17,7 km/h (3 Bft) 91,67 %
11.02.2016 13:14 2,1 C 89 % 1008,2 hPa 0,0 l/m 14,9 km/h (3 Bft) S-SW 213 0 min 0,000 mm 0,0 UV-I 129 W/m 0,5 C -4,4 C 22,5 km/h (4 Bft) 93,33 %
11.02.2016 13:15 2,1 C 89 % 1008,2 hPa 0,0 l/m 15,6 km/h (3 Bft) W-SW 238 0 min 0,000 mm 0,0 UV-I 130 W/m 0,5 C -4,8 C 22,5 km/h (4 Bft) 95,65 %
11.02.2016 13:16 2,0 C 89 % 1008,1 hPa 0,0 l/m 15,2 km/h (3 Bft) S-SW 207 0 min 0,000 mm 0,0 UV-I 133 W/m 0,4 C -4,7 C 19,3 km/h (3 Bft) 100,00 %
11.02.2016 13:17 2,0 C 90 % 1008,1 hPa 0,0 l/m 11,5 km/h (2 Bft) SW 230 0 min 0,000 mm 0,0 UV-I 124 W/m 0,5 C -2,4 C 16,1 km/h (3 Bft) 95,65 %
11.02.2016 13:18 2,0 C 90 % 1008,1 hPa 0,0 l/m 10,6 km/h (2 Bft) SW 225 0 min 0,000 mm 0,0 UV-I 110 W/m 0,5 C -1,7 C 19,3 km/h (3 Bft) 100,00 %
11.02.2016 13:19 2,0 C 90 % 1008,1 hPa 0,0 l/m 18,0 km/h (3 Bft) SW 234 0 min 0,000 mm 0,0 UV-I 100 W/m 0,5 C -6,1 C 24,1 km/h (4 Bft) 96,15 %
11.02.2016 13:20 2,0 C 90 % 1008,1 hPa 0,0 l/m 13,9 km/h (3 Bft) W 262 0 min 0,000 mm 0,0 UV-I 93 W/m 0,5 C -3,9 C 22,5 km/h (4 Bft) 95,83 %
11.02.2016 13:21 2,0 C 90 % 1008,1 hPa 0,0 l/m 12,3 km/h (3 Bft) W-SW 244 0 min 0,000 mm 0,0 UV-I 91 W/m 0,5 C -2,9 C 14,5 km/h (3 Bft) 100,00 %
11.02.2016 13:22 2,0 C 91 % 1008,1 hPa 0,0 l/m 11,8 km/h (2 Bft) W 269 0 min 0,000 mm 0,0 UV-I 96 W/m 0,7 C -2,6 C 16,1 km/h (3 Bft) 95,83 %
11.02.2016 13:23 2,1 C 91 % 1008,0 hPa 0,0 l/m 12,8 km/h (3 Bft) W-SW 240 0 min 0,000 mm 0,0 UV-I 106 W/m 0,8 C -3,1 C 16,1 km/h (3 Bft) 100,00 %
11.02.2016 13:24 2,1 C 91 % 1008,0 hPa 0,0 l/m 12,5 km/h (3 Bft) W-SW 242 0 min 0,000 mm 0,0 UV-I 114 W/m 0,8 C -2,9 C 16,1 km/h (3 Bft) 95,83 %
11.02.2016 13:25 2,1 C 90 % 1008,0 hPa 0,0 l/m 11,4 km/h (2 Bft) W-SW 254 0 min 0,000 mm 0,0 UV-I 121 W/m 0,6 C -2,2 C 16,1 km/h (3 Bft) 91,30 %
11.02.2016 13:26 2,1 C 90 % 1008,0 hPa 0,0 l/m 10,1 km/h (2 Bft) SW 236 0 min 0,000 mm 0,0 UV-I 128 W/m 0,6 C -1,2 C 14,5 km/h (3 Bft) 91,67 %
11.02.2016 13:27 2,2 C 90 % 1008,0 hPa 0,0 l/m 10,7 km/h (2 Bft) SW 236 0 min 0,000 mm 0,0 UV-I 140 W/m 0,7 C -1,6 C 16,1 km/h (3 Bft) 100,00 %
11.02.2016 13:28 2,2 C 90 % 1007,9 hPa 0,0 l/m 13,8 km/h (3 Bft) SW 227 0 min 0,000 mm 0,4 UV-I 143 W/m 0,7 C -3,6 C 20,9 km/h (4 Bft) 95,83 %
11.02.2016 13:29 2,2 C 90 % 1007,9 hPa 0,0 l/m 13,2 km/h (3 Bft) W 262 0 min 0,000 mm 0,5 UV-I 153 W/m 0,7 C -3,2 C 17,7 km/h (3 Bft) 91,30 %
11.02.2016 13:30 2,3 C 90 % 1007,9 hPa 0,0 l/m 13,0 km/h (3 Bft) SW 225 0 min 0,000 mm 0,5 UV-I 154 W/m 0,8 C -3,0 C 17,7 km/h (3 Bft) 100,00 %
11.02.2016 13:31 2,3 C 89 % 1007,9 hPa 0,0 l/m 12,8 km/h (3 Bft) W 260 0 min 0,000 mm 0,5 UV-I 152 W/m 0,7 C -2,9 C 17,7 km/h (3 Bft) 95,65 %
11.02.2016 13:32 2,3 C 89 % 1007,9 hPa 0,0 l/m 14,6 km/h (3 Bft) W-SW 258 0 min 0,000 mm 0,5 UV-I 144 W/m 0,7 C -4,0 C 17,7 km/h (3 Bft) 100,00 %
11.02.2016 13:33 2,3 C 89 % 1007,9 hPa 0,0 l/m 12,3 km/h (3 Bft) W 273 0 min 0,000 mm 0,5 UV-I 134 W/m 0,7 C -2,6 C 19,3 km/h (3 Bft) 100,00 %
11.02.2016 13:34 2,3 C 89 % 1007,9 hPa 0,0 l/m 14,2 km/h (3 Bft) W-SW 247 0 min 0,000 mm 0,5 UV-I 130 W/m 0,7 C -3,7 C 19,3 km/h (3 Bft) 100,00 %
11.02.2016 13:35 2,3 C 89 % 1007,8 hPa 0,0 l/m 15,0 km/h (3 Bft) SW 227 0 min 0,000 mm 0,0 UV-I 128 W/m 0,7 C -4,2 C 19,3 km/h (3 Bft) 95,83 %
11.02.2016 13:36 2,3 C 89 % 1007,8 hPa 0,0 l/m 12,3 km/h (3 Bft) SW 214 0 min 0,000 mm 0,0 UV-I 130 W/m 0,7 C -2,6 C 16,1 km/h (3 Bft) 100,00 %
11.02.2016 13:37 2,4 C 89 % 1007,8 hPa 0,0 l/m 11,0 km/h (2 Bft) W-SW 254 0 min 0,000 mm 0,0 UV-I 134 W/m 0,8 C -1,5 C 14,5 km/h (3 Bft) 95,83 %
11.02.2016 13:38 2,4 C 89 % 1007,8 hPa 0,0 l/m 12,7 km/h (3 Bft) W 269 0 min 0,000 mm 0,0 UV-I 140 W/m 0,8 C -2,7 C 17,7 km/h (3 Bft) 96,15 %
11.02.2016 13:39 2,4 C 89 % 1007,8 hPa 0,0 l/m 12,2 km/h (2 Bft) W-SW 237 0 min 0,000 mm 0,0 UV-I 141 W/m 0,8 C -2,4 C 16,1 km/h (3 Bft) 100,00 %
11.02.2016 13:40 2,4 C 89 % 1007,8 hPa 0,0 l/m 11,9 km/h (2 Bft) W 276 0 min 0,000 mm 0,0 UV-I 136 W/m 0,8 C -2,2 C 17,7 km/h (3 Bft) 100,00 %
11.02.2016 13:41 2,5 C 89 % 1007,9 hPa 0,0 l/m 13,7 km/h (3 Bft) W-SW 245 0 min 0,000 mm 0,0 UV-I 128 W/m 0,9 C -3,2 C 19,3 km/h (3 Bft) 100,00 %
11.02.2016 13:42 2,5 C 89 % 1007,9 hPa 0,0 l/m 15,5 km/h (3 Bft) W 259 0 min 0,000 mm 0,0 UV-I 112 W/m 0,9 C -4,2 C 19,3 km/h (3 Bft) 100,00 %
11.02.2016 13:43 2,6 C 89 % 1007,9 hPa 0,0 l/m 17,0 km/h (3 Bft) W-NW 288 0 min 0,000 mm 0,0 UV-I 97 W/m 1,0 C -4,9 C 20,9 km/h (4 Bft) 100,00 %
11.02.2016 13:44 2,6 C 88 % 1007,9 hPa 0,0 l/m 14,8 km/h (3 Bft) SW 227 0 min 0,000 mm 0,0 UV-I 89 W/m 0,8 C -3,7 C 19,3 km/h (3 Bft) 100,00 %
11.02.2016 13:45 2,6 C 88 % 1007,9 hPa 0,0 l/m 16,4 km/h (3 Bft) W 274 0 min 0,000 mm 0,0 UV-I 86 W/m 0,8 C -4,6 C 22,5 km/h (4 Bft) 100,00 %
11.02.2016 13:46 2,6 C 88 % 1007,9 hPa 0,0 l/m 17,9 km/h (3 Bft) W 265 0 min 0,000 mm 0,0 UV-I 89 W/m 0,8 C -5,3 C 20,9 km/h (4 Bft) 100,00 %
11.02.2016 13:47 2,6 C 88 % 1007,9 hPa 0,0 l/m 16,3 km/h (3 Bft) W 263 0 min 0,000 mm 0,0 UV-I 93 W/m 0,8 C -4,5 C 22,5 km/h (4 Bft) 100,00 %
11.02.2016 13:48 2,6 C 88 % 1008,0 hPa 0,0 l/m 16,5 km/h (3 Bft) W-SW 252 0 min 0,000 mm 0,0 UV-I 98 W/m 0,8 C -4,6 C 27,4 km/h (4 Bft) 95,65 %
11.02.2016 13:49 2,7 C 88 % 1007,9 hPa 0,0 l/m 17,7 km/h (3 Bft) W 270 0 min 0,000 mm 0,0 UV-I 93 W/m 0,9 C -5,1 C 25,7 km/h (4 Bft) 100,00 %
11.02.2016 13:50 2,7 C 87 % 1007,9 hPa 0,0 l/m 20,8 km/h (4 Bft) W-SW 242 0 min 0,000 mm 0,0 UV-I 74 W/m 0,8 C -6,5 C 30,6 km/h (5 Bft) 91,30 %
11.02.2016 13:51 2,6 C 87 % 1008,0 hPa 0,0 l/m 18,2 km/h (3 Bft) SW 214 0 min 0,000 mm 0,0 UV-I 82 W/m 0,7 C -5,5 C 25,7 km/h (4 Bft) 100,00 %
11.02.2016 13:52 2,6 C 88 % 1007,9 hPa 0,0 l/m 17,0 km/h (3 Bft) W-SW 248 0 min 0,000 mm 0,0 UV-I 102 W/m 0,8 C -4,9 C 24,1 km/h (4 Bft) 100,00 %
11.02.2016 13:53 2,6 C 88 % 1008,0 hPa 0,0 l/m 15,8 km/h (3 Bft) W 259 0 min 0,000 mm 0,0 UV-I 121 W/m 0,8 C -4,3 C 20,9 km/h (4 Bft) 100,00 %
11.02.2016 13:54 2,5 C 88 % 1008,0 hPa 0,0 l/m 23,9 km/h (4 Bft) W-SW 251 0 min 0,000 mm 0,0 UV-I 125 W/m 0,7 C -7,9 C 33,8 km/h (5 Bft) 100,00 %
11.02.2016 13:55 2,5 C 88 % 1007,9 hPa 0,0 l/m 19,8 km/h (3 Bft) SW 234 0 min 0,000 mm 0,0 UV-I 121 W/m 0,7 C -6,3 C 32,2 km/h (5 Bft) 100,00 %
11.02.2016 13:56 2,4 C 89 % 1007,9 hPa 0,0 l/m 16,6 km/h (3 Bft) W-SW 258 0 min 0,000 mm 0,0 UV-I 114 W/m 0,8 C -4,9 C 20,9 km/h (4 Bft) 100,00 %
11.02.2016 13:57 2,4 C 89 % 1008,0 hPa 0,0 l/m 16,0 km/h (3 Bft) W-SW 245 0 min 0,000 mm 0,0 UV-I 96 W/m 0,8 C -4,6 C 22,5 km/h (4 Bft) 100,00 %
11.02.2016 13:58 2,4 C 89 % 1007,9 hPa 0,0 l/m 15,7 km/h (3 Bft) W-SW 254 0 min 0,000 mm 0,0 UV-I 80 W/m 0,8 C -4,5 C 22,5 km/h (4 Bft) 100,00 %
11.02.2016 13:59 2,4 C 89 % 1007,9 hPa 0,0 l/m 17,6 km/h (3 Bft) W-SW 253 0 min 0,000 mm 0,0 UV-I 72 W/m 0,8 C -5,4 C 22,5 km/h (4 Bft) 100,00 %
11.02.2016 14:00 2,4 C 89 % 1008,0 hPa 0,0 l/m 18,2 km/h (3 Bft) W 265 0 min 0,051 mm 0,0 UV-I 69 W/m 0,8 C -5,7 C 24,1 km/h (4 Bft) 100,00 %
11.02.2016 14:01 2,3 C 89 % 1008,0 hPa 0,0 l/m 14,6 km/h (3 Bft) SW 227 0 min 0,000 mm 0,0 UV-I 69 W/m 0,7 C -4,0 C 20,9 km/h (4 Bft) 95,65 %
11.02.2016 14:02 2,3 C 89 % 1008,0 hPa 0,0 l/m 11,3 km/h (2 Bft) W-SW 255 0 min 0,000 mm 0,0 UV-I 69 W/m 0,7 C -1,9 C 16,1 km/h (3 Bft) 100,00 %
11.02.2016 14:03 2,3 C 90 % 1007,9 hPa 0,0 l/m 12,3 km/h (3 Bft) W-SW 243 0 min 0,000 mm 0,0 UV-I 77 W/m 0,8 C -2,6 C 16,1 km/h (3 Bft) 100,00 %
11.02.2016 14:04 2,3 C 90 % 1007,9 hPa 0,0 l/m 10,7 km/h (2 Bft) SW 219 0 min 0,000 mm 0,0 UV-I 78 W/m 0,8 C -1,4 C 14,5 km/h (3 Bft) 100,00 %
11.02.2016 14:05 2,2 C 90 % 1007,9 hPa 0,0 l/m 9,7 km/h (2 Bft) W-SW 250 0 min 0,000 mm 0,0 UV-I 74 W/m 0,7 C -0,8 C 14,5 km/h (3 Bft) 91,30 %
11.02.2016 14:06 2,2 C 90 % 1007,9 hPa 0,0 l/m 13,0 km/h (3 Bft) W 260 0 min 0,000 mm 0,0 UV-I 68 W/m 0,7 C -3,1 C 20,9 km/h (4 Bft) 100,00 %
11.02.2016 14:07 2,2 C 90 % 1008,0 hPa 0,0 l/m 13,0 km/h (3 Bft) SW 221 0 min 0,000 mm 0,0 UV-I 66 W/m 0,7 C -3,1 C 20,9 km/h (4 Bft) 100,00 %
11.02.2016 14:08 2,2 C 90 % 1007,9 hPa 0,0 l/m 10,3 km/h (2 Bft) W 275 0 min 0,000 mm 0,0 UV-I 65 W/m 0,7 C -1,3 C 12,9 km/h (3 Bft) 100,00 %
11.02.2016 14:09 2,2 C 90 % 1007,9 hPa 0,0 l/m 13,9 km/h (3 Bft) W-SW 247 0 min 0,000 mm 0,0 UV-I 69 W/m 0,7 C -3,7 C 17,7 km/h (3 Bft) 95,65 %
11.02.2016 14:10 2,1 C 90 % 1007,9 hPa 0,0 l/m 16,5 km/h (3 Bft) W 273 0 min 0,000 mm 0,0 UV-I 70 W/m 0,6 C -5,3 C 22,5 km/h (4 Bft) 100,00 %
11.02.2016 14:11 2,1 C 90 % 1008,0 hPa 0,0 l/m 16,8 km/h (3 Bft) W-SW 257 0 min 0,000 mm 0,0 UV-I 70 W/m 0,6 C -5,4 C 20,9 km/h (4 Bft) 95,65 %
11.02.2016 14:12 2,1 C 90 % 1007,9 hPa 0,0 l/m 9,3 km/h (2 Bft) W 263 0 min 0,000 mm 0,0 UV-I 70 W/m 0,6 C -0,6 C 16,1 km/h (3 Bft) 100,00 %
11.02.2016 14:13 2,1 C 90 % 1007,9 hPa 0,0 l/m 7,6 km/h (2 Bft) W-NW 292 0 min 0,000 mm 0,0 UV-I 80 W/m 0,6 C 0,9 C 11,3 km/h (2 Bft) 100,00 %
11.02.2016 14:14 2,1 C 91 % 1007,9 hPa 0,0 l/m 5,8 km/h (2 Bft) W-SW 240 0 min 0,000 mm 0,0 UV-I 103 W/m 0,8 C 2,1 C 12,9 km/h (3 Bft) 95,83 %
11.02.2016 14:15 2,1 C 91 % 1007,8 hPa 0,0 l/m 7,3 km/h (2 Bft) W 264 0 min 0,000 mm 0,0 UV-I 126 W/m 0,8 C 1,2 C 12,9 km/h (3 Bft) 100,00 %
11.02.2016 14:16 2,1 C 91 % 1007,8 hPa 0,0 l/m 9,8 km/h (2 Bft) W 263 0 min 0,000 mm 0,0 UV-I 147 W/m 0,8 C -1,0 C 16,1 km/h (3 Bft) 100,00 %
11.02.2016 14:17 2,1 C 91 % 1007,8 hPa 0,0 l/m 10,0 km/h (2 Bft) W-NW 290 0 min 0,000 mm 0,0 UV-I 174 W/m 0,8 C -1,1 C 12,9 km/h (3 Bft) 100,00 %
11.02.2016 14:18 2,1 C 91 % 1007,8 hPa 0,0 l/m 6,1 km/h (2 Bft) W 259 1 min 0,000 mm 0,0 UV-I 222 W/m 0,8 C 2,1 C 12,9 km/h (3 Bft) 100,00 %
11.02.2016 14:19 2,2 C 91 % 1007,7 hPa 0,0 l/m 6,2 km/h (2 Bft) W-NW 285 1 min 0,000 mm 0,3 UV-I 261 W/m 0,9 C 2,2 C 12,9 km/h (3 Bft) 100,00 %
11.02.2016 14:20 2,3 C 91 % 1007,7 hPa 0,0 l/m 9,6 km/h (2 Bft) W 259 1 min 0,000 mm 0,6 UV-I 269 W/m 1,0 C -0,6 C 12,9 km/h (3 Bft) 100,00 %
11.02.2016 14:21 2,4 C 91 % 1007,7 hPa 0,0 l/m 6,2 km/h (2 Bft) W-NW 288 1 min 0,000 mm 0,7 UV-I 321 W/m 1,1 C 2,4 C 12,9 km/h (3 Bft) 100,00 %
11.02.2016 14:22 2,6 C 92 % 1007,7 hPa 0,0 l/m 7,9 km/h (2 Bft) W 264 1 min 0,000 mm 0,7 UV-I 526 W/m 1,4 C 1,2 C 12,9 km/h (3 Bft) 100,00 %
11.02.2016 14:23 2,8 C 91 % 1007,7 hPa 0,0 l/m 14,5 km/h (3 Bft) W 264 1 min 0,000 mm 0,8 UV-I 534 W/m 1,5 C -3,3 C 19,3 km/h (3 Bft) 100,00 %
11.02.2016 14:24 2,9 C 90 % 1007,6 hPa 0,0 l/m 9,4 km/h (2 Bft) W 267 1 min 0,000 mm 0,8 UV-I 520 W/m 1,4 C 0,2 C 14,5 km/h (3 Bft) 91,30 %
11.02.2016 14:25 3,0 C 90 % 1007,6 hPa 0,0 l/m 10,1 km/h (2 Bft) W-NW 299 1 min 0,000 mm 0,7 UV-I 504 W/m 1,5 C -0,2 C 12,9 km/h (3 Bft) 100,00 %
11.02.2016 14:26 3,1 C 89 % 1007,6 hPa 0,0 l/m 10,5 km/h (2 Bft) W 264 1 min 0,000 mm 0,8 UV-I 454 W/m 1,5 C -0,4 C 12,9 km/h (3 Bft) 100,00 %
11.02.2016 14:27 3,2 C 89 % 1007,6 hPa 0,0 l/m 10,2 km/h (2 Bft) W 265 1 min 0,000 mm 0,7 UV-I 470 W/m 1,6 C -0,1 C 12,9 km/h (3 Bft) 100,00 %
11.02.2016 14:28 3,3 C 89 % 1007,7 hPa 0,0 l/m 8,4 km/h (2 Bft) NW 305 1 min 0,000 mm 0,7 UV-I 442 W/m 1,7 C 1,5 C 11,3 km/h (2 Bft) 95,65 %
11.02.2016 14:29 3,4 C 89 % 1007,7 hPa 0,0 l/m 11,2 km/h (2 Bft) W-SW 253 1 min 0,000 mm 0,7 UV-I 436 W/m 1,8 C -0,6 C 16,1 km/h (3 Bft) 96,30 %
11.02.2016 14:30 3,5 C 87 % 1007,7 hPa 0,0 l/m 8,7 km/h (2 Bft) W 261 1 min 0,000 mm 0,6 UV-I 436 W/m 1,5 C 1,4 C 14,5 km/h (3 Bft) 95,65 %
11.02.2016 14:31 3,6 C 87 % 1007,7 hPa 0,0 l/m 5,7 km/h (1 Bft) W-NW 293 1 min 0,000 mm 0,6 UV-I 318 W/m 1,6 C 3,6 C 8,0 km/h (2 Bft) 100,00 %
11.02.2016 14:32 3,7 C 87 % 1007,6 hPa 0,0 l/m 6,5 km/h (2 Bft) W-SW 248 1 min 0,000 mm 0,6 UV-I 348 W/m 1,7 C 3,6 C 11,3 km/h (2 Bft) 95,65 %
11.02.2016 14:33 3,8 C 87 % 1007,6 hPa 0,0 l/m 9,9 km/h (2 Bft) W-SW 243 1 min 0,000 mm 0,6 UV-I 343 W/m 1,8 C 0,8 C 14,5 km/h (3 Bft) 100,00 %
11.02.2016 14:34 3,8 C 86 % 1007,7 hPa 0,0 l/m 9,0 km/h (2 Bft) SW 236 1 min 0,000 mm 0,7 UV-I 381 W/m 1,7 C 1,5 C 12,9 km/h (3 Bft) 100,00 %
11.02.2016 14:35 3,8 C 85 % 1007,7 hPa 0,0 l/m 9,4 km/h (2 Bft) W-SW 241 1 min 0,000 mm 0,7 UV-I 388 W/m 1,5 C 1,2 C 14,5 km/h (3 Bft) 100,00 %
11.02.2016 14:36 3,8 C 85 % 1007,7 hPa 0,0 l/m 10,8 km/h (2 Bft) SW 227 1 min 0,000 mm 0,6 UV-I 388 W/m 1,5 C 0,2 C 14,5 km/h (3 Bft) 100,00 %
11.02.2016 14:37 3,8 C 85 % 1007,7 hPa 0,0 l/m 7,0 km/h (2 Bft) W-SW 253 1 min 0,000 mm 0,6 UV-I 381 W/m 1,5 C 3,3 C 11,3 km/h (2 Bft) 100,00 %
11.02.2016 14:38 3,9 C 84 % 1007,7 hPa 0,0 l/m 8,7 km/h (2 Bft) W 261 1 min 0,000 mm 0,6 UV-I 368 W/m 1,4 C 1,9 C 12,9 km/h (3 Bft) 100,00 %
11.02.2016 14:39 3,9 C 84 % 1007,7 hPa 0,0 l/m 8,0 km/h (2 Bft) NW 323 1 min 0,000 mm 0,6 UV-I 330 W/m 1,4 C 2,4 C 12,9 km/h (3 Bft) 100,00 %
11.02.2016 14:40 3,9 C 84 % 1007,7 hPa 0,0 l/m 5,0 km/h (1 Bft) S-SW 198 1 min 0,000 mm 0,5 UV-I 263 W/m 1,4 C 3,9 C 6,4 km/h (2 Bft) 100,00 %
11.02.2016 14:41 3,9 C 84 % 1007,7 hPa 0,0 l/m 9,5 km/h (2 Bft) W 267 0 min 0,000 mm 0,5 UV-I 182 W/m 1,4 C 1,2 C 14,5 km/h (3 Bft) 100,00 %
11.02.2016 14:42 3,8 C 84 % 1007,7 hPa 0,0 l/m 8,2 km/h (2 Bft) W 259 1 min 0,000 mm 0,5 UV-I 209 W/m 1,4 C 2,2 C 12,9 km/h (3 Bft) 100,00 %
11.02.2016 14:43 3,8 C 84 % 1007,7 hPa 0,0 l/m 10,8 km/h (2 Bft) W 265 1 min 0,000 mm 0,5 UV-I 207 W/m 1,4 C 0,2 C 14,5 km/h (3 Bft) 100,00 %
11.02.2016 14:44 3,8 C 84 % 1007,6 hPa 0,0 l/m 5,2 km/h (1 Bft) W 261 1 min 0,000 mm 0,5 UV-I 204 W/m 1,4 C 3,8 C 9,7 km/h (2 Bft) 100,00 %
11.02.2016 14:45 3,8 C 85 % 1007,7 hPa 0,0 l/m 4,7 km/h (1 Bft) W 269 1 min 0,000 mm 0,0 UV-I 194 W/m 1,5 C 3,8 C 6,4 km/h (2 Bft) 96,15 %
11.02.2016 14:46 3,8 C 85 % 1007,6 hPa 0,0 l/m 7,6 km/h (2 Bft) W 259 0 min 0,000 mm 0,0 UV-I 182 W/m 1,5 C 2,7 C 11,3 km/h (2 Bft) 100,00 %
11.02.2016 14:47 3,8 C 84 % 1007,7 hPa 0,0 l/m 5,9 km/h (2 Bft) W-SW 250 0 min 0,000 mm 0,0 UV-I 171 W/m 1,4 C 3,8 C 11,3 km/h (2 Bft) 100,00 %
11.02.2016 14:48 3,8 C 86 % 1007,7 hPa 0,0 l/m 4,1 km/h (1 Bft) S-SW 205 0 min 0,000 mm 0,0 UV-I 155 W/m 1,7 C 3,8 C 6,4 km/h (2 Bft) 100,00 %
11.02.2016 14:49 3,8 C 84 % 1007,6 hPa 0,0 l/m 5,6 km/h (1 Bft) S-SW 207 0 min 0,000 mm 0,0 UV-I 140 W/m 1,4 C 3,8 C 9,7 km/h (2 Bft) 100,00 %
11.02.2016 14:50 3,8 C 84 % 1007,6 hPa 0,0 l/m 5,9 km/h (2 Bft) W-SW 257 0 min 0,000 mm 0,0 UV-I 134 W/m 1,4 C 3,8 C 8,0 km/h (2 Bft) 95,83 %
11.02.2016 14:51 3,8 C 84 % 1007,6 hPa 0,0 l/m 3,8 km/h (1 Bft) S-SW 213 0 min 0,000 mm 0,0 UV-I 133 W/m 1,4 C 3,8 C 6,4 km/h (2 Bft) 100,00 %
11.02.2016 14:52 3,8 C 84 % 1007,6 hPa 0,0 l/m 6,9 km/h (2 Bft) SW 235 0 min 0,000 mm 0,0 UV-I 146 W/m 1,4 C 3,3 C 9,7 km/h (2 Bft) 100,00 %
11.02.2016 14:53 3,8 C 85 % 1007,6 hPa 0,0 l/m 6,6 km/h (2 Bft) W-SW 258 0 min 0,000 mm 0,0 UV-I 151 W/m 1,5 C 3,6 C 9,7 km/h (2 Bft) 100,00 %
11.02.2016 14:54 3,8 C 85 % 1007,6 hPa 0,0 l/m 7,0 km/h (2 Bft) SW 230 0 min 0,000 mm 0,0 UV-I 148 W/m 1,5 C 3,3 C 9,7 km/h (2 Bft) 100,00 %
11.02.2016 14:55 3,8 C 84 % 1007,6 hPa 0,0 l/m 3,7 km/h (1 Bft) SW 228 0 min 0,000 mm 0,0 UV-I 149 W/m 1,4 C 3,8 C 6,4 km/h (2 Bft) 100,00 %
11.02.2016 14:56 3,8 C 84 % 1007,5 hPa 0,0 l/m 3,8 km/h (1 Bft) W-SW 237 0 min 0,000 mm 0,0 UV-I 176 W/m 1,4 C 3,8 C 4,8 km/h (1 Bft) 95,83 %
11.02.2016 14:57 3,8 C 84 % 1007,6 hPa 0,0 l/m 3,7 km/h (1 Bft) S-SW 198 0 min 0,000 mm 0,0 UV-I 175 W/m 1,4 C 3,8 C 4,8 km/h (1 Bft) 91,67 %
11.02.2016 14:58 3,8 C 84 % 1007,6 hPa 0,0 l/m 5,1 km/h (1 Bft) S-SW 200 0 min 0,000 mm 0,0 UV-I 172 W/m 1,4 C 3,8 C 6,4 km/h (2 Bft) 96,15 %
11.02.2016 14:59 3,8 C 84 % 1007,6 hPa 0,0 l/m 3,8 km/h (1 Bft) S 175 1 min 0,000 mm 0,0 UV-I 290 W/m 1,4 C 3,8 C 6,4 km/h (2 Bft) 95,83 %
11.02.2016 15:00 3,8 C 85 % 1007,6 hPa 0,0 l/m 6,7 km/h (2 Bft) S 188 1 min 0,000 mm 0,3 UV-I 391 W/m 1,5 C 3,5 C 8,0 km/h (2 Bft) 95,65 %
11.02.2016 15:01 3,9 C 84 % 1007,6 hPa 0,0 l/m 5,8 km/h (2 Bft) W-SW 243 1 min 0,101 mm 0,5 UV-I 402 W/m 1,4 C 3,9 C 6,4 km/h (2 Bft) 95,83 %
11.02.2016 15:02 3,9 C 85 % 1007,6 hPa 0,0 l/m 5,7 km/h (1 Bft) S-SW 196 1 min 0,000 mm 0,5 UV-I 376 W/m 1,6 C 3,9 C 8,0 km/h (2 Bft) 95,65 %
11.02.2016 15:03 4,1 C 83 % 1007,6 hPa 0,0 l/m 6,2 km/h (2 Bft) SW 236 1 min 0,000 mm 0,5 UV-I 337 W/m 1,5 C 4,1 C 8,0 km/h (2 Bft) 95,83 %
11.02.2016 15:04 4,2 C 84 % 1007,5 hPa 0,0 l/m 5,6 km/h (1 Bft) S 179 1 min 0,000 mm 0,5 UV-I 306 W/m 1,7 C 4,2 C 8,0 km/h (2 Bft) 95,65 %
11.02.2016 15:05 4,2 C 83 % 1007,5 hPa 0,0 l/m 4,4 km/h (1 Bft) S 187 1 min 0,000 mm 0,5 UV-I 288 W/m 1,6 C 4,2 C 6,4 km/h (2 Bft) 100,00 %
11.02.2016 15:06 4,3 C 82 % 1007,5 hPa 0,0 l/m 7,0 km/h (2 Bft) S 183 1 min 0,000 mm 0,5 UV-I 279 W/m 1,5 C 3,8 C 9,7 km/h (2 Bft) 91,30 %
11.02.2016 15:07 4,3 C 82 % 1007,5 hPa 0,0 l/m 5,6 km/h (1 Bft) S 190 1 min 0,000 mm 0,2 UV-I 273 W/m 1,5 C 4,3 C 9,7 km/h (2 Bft) 100,00 %
11.02.2016 15:10 4,3 C 83 % 1007,5 hPa 0,0 l/m 5,6 km/h (1 Bft) S-SW 205 3 min 0,000 mm 0,0 UV-I 263 W/m 1,7 C 4,3 C 8,0 km/h (2 Bft) 97,40 %
11.02.2016 15:11 4,3 C 82 % 1007,5 hPa 0,0 l/m 3,8 km/h (1 Bft) SW 218 1 min 0,000 mm 0,0 UV-I 261 W/m 1,5 C 4,3 C 4,8 km/h (1 Bft) 100,00 %
11.02.2016 15:12 4,4 C 83 % 1007,5 hPa 0,0 l/m 4,8 km/h (1 Bft) W-SW 242 1 min 0,000 mm 0,0 UV-I 258 W/m 1,8 C 4,4 C 6,4 km/h (2 Bft) 95,65 %
11.02.2016 15:13 4,6 C 82 % 1007,5 hPa 0,0 l/m 4,6 km/h (1 Bft) S-SW 213 1 min 0,000 mm 0,0 UV-I 255 W/m 1,8 C 4,6 C 8,0 km/h (2 Bft) 96,30 %
11.02.2016 15:14 4,6 C 82 % 1007,5 hPa 0,0 l/m 5,9 km/h (2 Bft) W-SW 242 1 min 0,000 mm 0,0 UV-I 252 W/m 1,8 C 4,6 C 11,3 km/h (2 Bft) 100,00 %
11.02.2016 15:15 4,7 C 82 % 1007,5 hPa 0,0 l/m 5,7 km/h (1 Bft) S-SW 199 1 min 0,000 mm 0,0 UV-I 250 W/m 1,9 C 4,7 C 8,0 km/h (2 Bft) 95,83 %
11.02.2016 15:16 4,7 C 80 % 1007,4 hPa 0,0 l/m 5,7 km/h (1 Bft) SW 232 1 min 0,000 mm 0,0 UV-I 249 W/m 1,6 C 4,7 C 8,0 km/h (2 Bft) 100,00 %
11.02.2016 15:17 4,7 C 81 % 1007,5 hPa 0,0 l/m 5,2 km/h (1 Bft) W-SW 255 1 min 0,000 mm 0,0 UV-I 245 W/m 1,7 C 4,7 C 8,0 km/h (2 Bft) 93,33 %
11.02.2016 15:18 4,7 C 81 % 1007,5 hPa 0,0 l/m 5,2 km/h (1 Bft) SW 225 1 min 0,000 mm 0,0 UV-I 243 W/m 1,7 C 4,7 C 8,0 km/h (2 Bft) 100,00 %
11.02.2016 15:19 4,7 C 81 % 1007,5 hPa 0,0 l/m 6,0 km/h (2 Bft) SW 232 1 min 0,000 mm 0,0 UV-I 241 W/m 1,7 C 4,7 C 8,0 km/h (2 Bft) 96,15 %
11.02.2016 15:20 4,7 C 81 % 1007,5 hPa 0,0 l/m 4,4 km/h (1 Bft) W-SW 238 1 min 0,000 mm 0,0 UV-I 236 W/m 1,7 C 4,7 C 8,0 km/h (2 Bft) 100,00 %
11.02.2016 15:21 4,7 C 80 % 1007,5 hPa 0,0 l/m 4,9 km/h (1 Bft) S-SW 199 1 min 0,000 mm 0,0 UV-I 230 W/m 1,6 C 4,7 C 8,0 km/h (2 Bft) 91,30 %
11.02.2016 15:22 4,7 C 80 % 1007,5 hPa 0,0 l/m 3,4 km/h (1 Bft) W-SW 244 1 min 0,000 mm 0,0 UV-I 232 W/m 1,6 C 4,7 C 6,4 km/h (2 Bft) 96,30 %
11.02.2016 15:23 4,7 C 81 % 1007,5 hPa 0,0 l/m 3,9 km/h (1 Bft) W-SW 248 1 min 0,000 mm 0,0 UV-I 233 W/m 1,7 C 4,7 C 4,8 km/h (1 Bft) 100,00 %
11.02.2016 15:24 4,7 C 82 % 1007,5 hPa 0,0 l/m 4,4 km/h (1 Bft) W-SW 242 1 min 0,000 mm 0,0 UV-I 234 W/m 1,9 C 4,7 C 6,4 km/h (2 Bft) 100,00 %
11.02.2016 15:25 4,7 C 81 % 1007,5 hPa 0,0 l/m 2,9 km/h (1 Bft) W-SW 242 1 min 0,000 mm 0,0 UV-I 234 W/m 1,7 C 4,7 C 6,4 km/h (2 Bft) 96,15 %
11.02.2016 15:26 4,7 C 81 % 1007,5 hPa 0,0 l/m 6,8 km/h (2 Bft) W 264 1 min 0,000 mm 0,0 UV-I 233 W/m 1,7 C 4,4 C 8,0 km/h (2 Bft) 91,67 %
11.02.2016 15:27 4,7 C 80 % 1007,5 hPa 0,0 l/m 7,2 km/h (2 Bft) W 266 1 min 0,000 mm 0,0 UV-I 232 W/m 1,6 C 4,0 C 9,7 km/h (2 Bft) 100,00 %
11.02.2016 15:28 4,7 C 80 % 1007,5 hPa 0,0 l/m 4,8 km/h (1 Bft) W 278 1 min 0,000 mm 0,0 UV-I 232 W/m 1,6 C 4,7 C 9,7 km/h (2 Bft) 100,00 %
11.02.2016 15:29 4,8 C 81 % 1007,5 hPa 0,0 l/m 6,3 km/h (2 Bft) W-SW 254 1 min 0,000 mm 0,0 UV-I 232 W/m 1,8 C 4,8 C 8,0 km/h (2 Bft) 100,00 %
11.02.2016 15:30 4,8 C 81 % 1007,5 hPa 0,0 l/m 5,2 km/h (1 Bft) W-SW 246 0 min 0,000 mm 0,0 UV-I 97 W/m 1,8 C 4,8 C 8,0 km/h (2 Bft) 100,00 %
11.02.2016 15:31 4,7 C 81 % 1007,5 hPa 0,0 l/m 5,2 km/h (1 Bft) W-SW 248 0 min 0,000 mm 0,0 UV-I 96 W/m 1,7 C 4,7 C 6,4 km/h (2 Bft) 100,00 %
11.02.2016 15:32 4,7 C 80 % 1007,5 hPa 0,0 l/m 5,1 km/h (1 Bft) W 266 0 min 0,000 mm 0,0 UV-I 112 W/m 1,6 C 4,7 C 6,4 km/h (2 Bft) 100,00 %
11.02.2016 15:33 4,7 C 80 % 1007,4 hPa 0,0 l/m 5,2 km/h (1 Bft) W-SW 242 0 min 0,000 mm 0,0 UV-I 70 W/m 1,6 C 4,7 C 9,7 km/h (2 Bft) 100,00 %
11.02.2016 15:34 4,7 C 80 % 1007,5 hPa 0,0 l/m 3,7 km/h (1 Bft) W-SW 252 0 min 0,000 mm 0,0 UV-I 71 W/m 1,6 C 4,7 C 4,8 km/h (1 Bft) 100,00 %
11.02.2016 15:35 4,6 C 80 % 1007,4 hPa 0,0 l/m 2,1 km/h (1 Bft) W-SW 252 0 min 0,000 mm 0,0 UV-I 70 W/m 1,5 C 4,6 C 3,2 km/h (1 Bft) 95,83 %
11.02.2016 15:36 4,7 C 81 % 1007,5 hPa 0,0 l/m 2,0 km/h (1 Bft) W-SW 252 0 min 0,000 mm 0,0 UV-I 69 W/m 1,7 C 4,7 C 3,2 km/h (1 Bft) 100,00 %
11.02.2016 15:37 4,7 C 81 % 1007,5 hPa 0,0 l/m 1,7 km/h (1 Bft) W-NW 287 0 min 0,000 mm 0,0 UV-I 68 W/m 1,7 C 4,7 C 3,2 km/h (1 Bft) 96,15 %
11.02.2016 15:38 4,7 C 80 % 1007,5 hPa 0,0 l/m 3,3 km/h (1 Bft) S-SW 194 0 min 0,000 mm 0,0 UV-I 89 W/m 1,6 C 4,7 C 4,8 km/h (1 Bft) 100,00 %
11.02.2016 15:39 4,7 C 80 % 1007,5 hPa 0,0 l/m 3,3 km/h (1 Bft) W 267 1 min 0,000 mm 0,0 UV-I 173 W/m 1,6 C 4,7 C 6,4 km/h (2 Bft) 100,00 %
11.02.2016 15:40 4,7 C 81 % 1007,5 hPa 0,0 l/m 4,7 km/h (1 Bft) W 264 1 min 0,000 mm 0,0 UV-I 216 W/m 1,7 C 4,7 C 6,4 km/h (2 Bft) 96,15 %
11.02.2016 15:41 4,8 C 81 % 1007,5 hPa 0,0 l/m 1,8 km/h (1 Bft) W 264 1 min 0,000 mm 0,0 UV-I 175 W/m 1,8 C 4,8 C 3,2 km/h (1 Bft) 96,30 %
11.02.2016 15:42 4,8 C 80 % 1007,5 hPa 0,0 l/m 0,6 km/h (0 Bft) W 264 0 min 0,000 mm 0,0 UV-I 85 W/m 1,6 C 4,8 C 1,6 km/h (1 Bft) 100,00 %
11.02.2016 15:43 4,9 C 81 % 1007,5 hPa 0,0 l/m 0,9 km/h (0 Bft) W 264 0 min 0,000 mm 0,0 UV-I 110 W/m 1,9 C 4,9 C 1,6 km/h (1 Bft) 100,00 %
11.02.2016 15:44 5,0 C 81 % 1007,5 hPa 0,0 l/m 1,9 km/h (1 Bft) W 264 1 min 0,000 mm 0,0 UV-I 211 W/m 2,0 C 5,0 C 3,2 km/h (1 Bft) 100,00 %
11.02.2016 15:45 5,1 C 81 % 1007,5 hPa 0,0 l/m 1,0 km/h (0 Bft) W 264 1 min 0,000 mm 0,0 UV-I 229 W/m 2,1 C 5,1 C 1,6 km/h (1 Bft) 95,83 %
11.02.2016 15:46 5,1 C 79 % 1007,5 hPa 0,0 l/m 2,5 km/h (1 Bft) W 264 1 min 0,000 mm 0,0 UV-I 225 W/m 1,8 C 5,1 C 4,8 km/h (1 Bft) 100,00 %
11.02.2016 15:47 5,1 C 79 % 1007,5 hPa 0,0 l/m 1,0 km/h (0 Bft) W 264 1 min 0,000 mm 0,0 UV-I 223 W/m 1,8 C 5,1 C 1,6 km/h (1 Bft) 100,00 %
11.02.2016 15:48 5,1 C 79 % 1007,5 hPa 0,0 l/m 0,4 km/h (0 Bft) W 264 1 min 0,000 mm 0,0 UV-I 218 W/m 1,8 C 5,1 C 1,6 km/h (1 Bft) 100,00 %
11.02.2016 15:49 5,2 C 80 % 1007,5 hPa 0,0 l/m 1,5 km/h (1 Bft) W 265 1 min 0,000 mm 0,0 UV-I 202 W/m 2,0 C 5,2 C 3,2 km/h (1 Bft) 100,00 %
11.02.2016 15:50 5,2 C 81 % 1007,5 hPa 0,0 l/m 1,1 km/h (1 Bft) W 265 1 min 0,000 mm 0,0 UV-I 134 W/m 2,2 C 5,2 C 3,2 km/h (1 Bft) 100,00 %
11.02.2016 15:51 5,3 C 81 % 1007,5 hPa 0,0 l/m 0,8 km/h (0 Bft) W 265 0 min 0,000 mm 0,0 UV-I 96 W/m 2,3 C 5,3 C 1,6 km/h (1 Bft) 100,00 %
11.02.2016 15:52 5,3 C 80 % 1007,5 hPa 0,0 l/m 0,4 km/h (0 Bft) W 265 0 min 0,000 mm 0,0 UV-I 92 W/m 2,1 C 5,3 C 1,6 km/h (1 Bft) 100,00 %
11.02.2016 15:53 5,2 C 80 % 1007,5 hPa 0,0 l/m 0,2 km/h (0 Bft) W 265 0 min 0,000 mm 0,0 UV-I 94 W/m 2,0 C 5,2 C 1,6 km/h (1 Bft) 100,00 %
11.02.2016 15:54 5,2 C 79 % 1007,5 hPa 0,0 l/m 3,0 km/h (1 Bft) W-NW 290 0 min 0,000 mm 0,0 UV-I 104 W/m 1,9 C 5,2 C 4,8 km/h (1 Bft) 100,00 %
11.02.2016 15:55 5,2 C 78 % 1007,5 hPa 0,0 l/m 2,1 km/h (1 Bft) W-NW 290 0 min 0,000 mm 0,0 UV-I 110 W/m 1,7 C 5,2 C 3,2 km/h (1 Bft) 95,83 %
11.02.2016 15:56 5,1 C 78 % 1007,5 hPa 0,0 l/m 1,1 km/h (1 Bft) W-NW 290 1 min 0,000 mm 0,0 UV-I 120 W/m 1,6 C 5,1 C 1,6 km/h (1 Bft) 100,00 %
11.02.2016 15:57 5,1 C 79 % 1007,5 hPa 0,0 l/m 0,0 km/h (0 Bft) W-NW 290 1 min 0,000 mm 0,0 UV-I 145 W/m 1,8 C 5,1 C 0,0 km/h (0 Bft) 100,00 %
11.02.2016 15:58 5,1 C 79 % 1007,5 hPa 0,0 l/m 0,1 km/h (0 Bft) W-NW 290 1 min 0,000 mm 0,0 UV-I 138 W/m 1,8 C 5,1 C 1,6 km/h (1 Bft) 100,00 %
11.02.2016 15:59 5,1 C 78 % 1007,5 hPa 0,0 l/m 0,4 km/h (0 Bft) W-NW 290 1 min 0,000 mm 0,0 UV-I 124 W/m 1,6 C 5,1 C 1,6 km/h (1 Bft) 100,00 %
11.02.2016 16:00 5,0 C 78 % 1007,5 hPa 0,0 l/m 0,4 km/h (0 Bft) W-NW 290 1 min 0,000 mm 0,0 UV-I 121 W/m 1,5 C 5,0 C 1,6 km/h (1 Bft) 100,00 %
11.02.2016 16:01 5,0 C 79 % 1007,5 hPa 0,0 l/m 0,1 km/h (0 Bft) W-NW 290 1 min 0,076 mm 0,0 UV-I 127 W/m 1,7 C 5,0 C 1,6 km/h (1 Bft) 100,00 %
11.02.2016 16:02 5,0 C 78 % 1007,5 hPa 0,0 l/m 0,2 km/h (0 Bft) W-NW 290 1 min 0,000 mm 0,0 UV-I 123 W/m 1,5 C 5,0 C 1,6 km/h (1 Bft) 100,00 %
11.02.2016 16:03 5,0 C 78 % 1007,5 hPa 0,0 l/m 0,0 km/h (0 Bft) W-NW 290 1 min 0,000 mm 0,0 UV-I 113 W/m 1,5 C 5,0 C 0,0 km/h (0 Bft) 100,00 %
11.02.2016 16:04 5,0 C 79 % 1007,5 hPa 0,0 l/m 0,0 km/h (0 Bft) W-NW 290 1 min 0,000 mm 0,0 UV-I 102 W/m 1,7 C 5,0 C 0,0 km/h (0 Bft) 100,00 %
11.02.2016 16:05 5,0 C 79 % 1007,5 hPa 0,0 l/m 0,7 km/h (0 Bft) W-NW 290 0 min 0,000 mm 0,0 UV-I 86 W/m 1,7 C 5,0 C 1,6 km/h (1 Bft) 97,73 %
11.02.2016 16:06 5,0 C 78 % 1007,5 hPa 0,0 l/m 1,1 km/h (1 Bft) W-NW 290 0 min 0,000 mm 0,0 UV-I 77 W/m 1,5 C 5,0 C 1,6 km/h (1 Bft) 95,83 %
11.02.2016 16:07 5,0 C 79 % 1007,5 hPa 0,0 l/m 1,0 km/h (0 Bft) W-NW 290 0 min 0,000 mm 0,0 UV-I 76 W/m 1,7 C 5,0 C 1,6 km/h (1 Bft) 100,00 %
11.02.2016 16:08 5,0 C 79 % 1007,5 hPa 0,0 l/m 0,8 km/h (0 Bft) NW 309 0 min 0,000 mm 0,0 UV-I 79 W/m 1,7 C 5,0 C 3,2 km/h (1 Bft) 100,00 %
11.02.2016 16:09 5,0 C 81 % 1007,5 hPa 0,0 l/m 0,0 km/h (0 Bft) NW 309 0 min 0,000 mm 0,0 UV-I 83 W/m 2,0 C 5,0 C 0,0 km/h (0 Bft) 100,00 %
11.02.2016 16:10 5,0 C 80 % 1007,5 hPa 0,0 l/m 0,6 km/h (0 Bft) NW 311 0 min 0,000 mm 0,0 UV-I 88 W/m 1,8 C 5,0 C 1,6 km/h (1 Bft) 100,00 %
11.02.2016 16:11 4,9 C 80 % 1007,5 hPa 0,0 l/m 1,1 km/h (1 Bft) N 11 1 min 0,000 mm 0,0 UV-I 93 W/m 1,7 C 4,9 C 3,2 km/h (1 Bft) 100,00 %
11.02.2016 16:12 4,9 C 80 % 1007,4 hPa 0,0 l/m 1,1 km/h (1 Bft) N 355 1 min 0,000 mm 0,0 UV-I 97 W/m 1,7 C 4,9 C 1,6 km/h (1 Bft) 95,83 %
11.02.2016 16:13 4,9 C 81 % 1007,5 hPa 0,0 l/m 0,7 km/h (0 Bft) N 350 1 min 0,000 mm 0,0 UV-I 98 W/m 1,9 C 4,9 C 1,6 km/h (1 Bft) 96,15 %
11.02.2016 16:14 4,9 C 81 % 1007,5 hPa 0,0 l/m 0,4 km/h (0 Bft) N 350 1 min 0,000 mm 0,0 UV-I 98 W/m 1,9 C 4,9 C 1,6 km/h (1 Bft) 100,00 %
11.02.2016 16:15 4,9 C 81 % 1007,5 hPa 0,0 l/m 1,3 km/h (1 Bft) N-NW 336 1 min 0,000 mm 0,0 UV-I 96 W/m 1,9 C 4,9 C 3,2 km/h (1 Bft) 100,00 %
11.02.2016 16:16 4,9 C 80 % 1007,4 hPa 0,0 l/m 1,1 km/h (1 Bft) N-NW 336 1 min 0,000 mm 0,0 UV-I 95 W/m 1,7 C 4,9 C 3,2 km/h (1 Bft) 100,00 %
11.02.2016 16:17 4,8 C 80 % 1007,5 hPa 0,0 l/m 0,1 km/h (0 Bft) N-NW 336 1 min 0,000 mm 0,0 UV-I 95 W/m 1,6 C 4,8 C 1,6 km/h (1 Bft) 100,00 %
11.02.2016 16:18 4,8 C 79 % 1007,4 hPa 0,0 l/m 0,3 km/h (0 Bft) N-NW 336 1 min 0,000 mm 0,0 UV-I 86 W/m 1,5 C 4,8 C 1,6 km/h (1 Bft) 100,00 %
11.02.2016 16:19 4,9 C 79 % 1007,4 hPa 0,0 l/m 0,0 km/h (0 Bft) N-NW 336 0 min 0,000 mm 0,0 UV-I 76 W/m 1,6 C 4,9 C 0,0 km/h (0 Bft) 100,00 %
11.02.2016 16:20 4,9 C 79 % 1007,4 hPa 0,0 l/m 0,0 km/h (0 Bft) N-NW 336 0 min 0,000 mm 0,0 UV-I 71 W/m 1,6 C 4,9 C 0,0 km/h (0 Bft) 97,37 %
11.02.2016 16:21 4,9 C 79 % 1007,5 hPa 0,0 l/m 0,1 km/h (0 Bft) N-NW 336 0 min 0,000 mm 0,0 UV-I 67 W/m 1,6 C 4,9 C 1,6 km/h (1 Bft) 100,00 %
11.02.2016 16:22 4,9 C 80 % 1007,5 hPa 0,0 l/m 1,6 km/h (1 Bft) N-NW 336 0 min 0,000 mm 0,0 UV-I 67 W/m 1,7 C 4,9 C 3,2 km/h (1 Bft) 100,00 %
11.02.2016 16:23 4,9 C 80 % 1007,3 hPa 0,0 l/m 1,8 km/h (1 Bft) N-NW 336 1 min 0,000 mm 0,0 UV-I 81 W/m 1,7 C 4,9 C 3,2 km/h (1 Bft) 100,00 %
11.02.2016 16:24 4,9 C 80 % 1007,4 hPa 0,0 l/m 1,1 km/h (1 Bft) N-NW 336 1 min 0,000 mm 0,0 UV-I 102 W/m 1,7 C 4,9 C 1,6 km/h (1 Bft) 100,00 %
11.02.2016 16:25 4,9 C 80 % 1007,3 hPa 0,0 l/m 1,3 km/h (1 Bft) N-NW 336 1 min 0,000 mm 0,0 UV-I 97 W/m 1,7 C 4,9 C 1,6 km/h (1 Bft) 100,00 %
11.02.2016 16:26 4,9 C 79 % 1007,3 hPa 0,0 l/m 1,5 km/h (1 Bft) N-NW 336 1 min 0,000 mm 0,0 UV-I 87 W/m 1,6 C 4,9 C 1,6 km/h (1 Bft) 95,65 %
11.02.2016 16:27 4,9 C 79 % 1007,3 hPa 0,0 l/m 1,9 km/h (1 Bft) N-NW 336 1 min 0,000 mm 0,0 UV-I 77 W/m 1,6 C 4,9 C 3,2 km/h (1 Bft) 100,00 %
11.02.2016 16:28 5,0 C 79 % 1007,3 hPa 0,0 l/m 0,6 km/h (0 Bft) N-NW 336 1 min 0,000 mm 0,0 UV-I 70 W/m 1,7 C 5,0 C 3,2 km/h (1 Bft) 100,00 %
11.02.2016 16:29 4,9 C 80 % 1007,3 hPa 0,0 l/m 0,1 km/h (0 Bft) N-NW 336 1 min 0,000 mm 0,0 UV-I 65 W/m 1,7 C 4,9 C 1,6 km/h (1 Bft) 96,30 %
11.02.2016 16:30 5,0 C 80 % 1007,3 hPa 0,0 l/m 0,5 km/h (0 Bft) N-NW 338 1 min 0,000 mm 0,0 UV-I 63 W/m 1,8 C 5,0 C 1,6 km/h (1 Bft) 100,00 %
11.02.2016 16:31 4,9 C 80 % 1007,3 hPa 0,0 l/m 0,3 km/h (0 Bft) N-NW 338 1 min 0,000 mm 0,0 UV-I 62 W/m 1,7 C 4,9 C 1,6 km/h (1 Bft) 100,00 %
11.02.2016 16:32 4,9 C 80 % 1007,2 hPa 0,0 l/m 0,0 km/h (0 Bft) N-NW 338 0 min 0,000 mm 0,0 UV-I 58 W/m 1,7 C 4,9 C 0,0 km/h (0 Bft) 100,00 %
11.02.2016 16:33 4,9 C 79 % 1007,2 hPa 0,0 l/m 0,0 km/h (0 Bft) N-NW 338 0 min 0,000 mm 0,0 UV-I 55 W/m 1,6 C 4,9 C 0,0 km/h (0 Bft) 100,00 %
11.02.2016 16:34 4,9 C 80 % 1007,2 hPa 0,0 l/m 0,0 km/h (0 Bft) N-NW 338 0 min 0,000 mm 0,0 UV-I 52 W/m 1,7 C 4,9 C 0,0 km/h (0 Bft) 100,00 %
11.02.2016 16:35 4,9 C 80 % 1007,2 hPa 0,0 l/m 0,0 km/h (0 Bft) N-NW 338 0 min 0,000 mm 0,0 UV-I 49 W/m 1,7 C 4,9 C 0,0 km/h (0 Bft) 96,15 %
11.02.2016 16:36 4,9 C 80 % 1007,2 hPa 0,0 l/m 0,3 km/h (0 Bft) N-NW 338 0 min 0,000 mm 0,0 UV-I 45 W/m 1,7 C 4,9 C 1,6 km/h (1 Bft) 100,00 %
11.02.2016 16:37 4,9 C 80 % 1007,2 hPa 0,0 l/m 0,0 km/h (0 Bft) N-NW 338 0 min 0,000 mm 0,0 UV-I 43 W/m 1,7 C 4,9 C 0,0 km/h (0 Bft) 100,00 %
11.02.2016 16:38 4,9 C 79 % 1007,2 hPa 0,0 l/m 0,5 km/h (0 Bft) N-NW 338 0 min 0,000 mm 0,0 UV-I 41 W/m 1,6 C 4,9 C 1,6 km/h (1 Bft) 100,00 %
11.02.2016 16:39 5,0 C 79 % 1007,1 hPa 0,0 l/m 1,8 km/h (1 Bft) N-NW 338 0 min 0,000 mm 0,0 UV-I 39 W/m 1,7 C 5,0 C 3,2 km/h (1 Bft) 100,00 %
11.02.2016 16:40 5,0 C 79 % 1007,2 hPa 0,0 l/m 1,2 km/h (1 Bft) N-NW 338 0 min 0,000 mm 0,0 UV-I 37 W/m 1,7 C 5,0 C 1,6 km/h (1 Bft) 100,00 %
11.02.2016 16:41 4,9 C 80 % 1007,2 hPa 0,0 l/m 1,0 km/h (0 Bft) N-NW 338 0 min 0,000 mm 0,0 UV-I 35 W/m 1,7 C 4,9 C 1,6 km/h (1 Bft) 100,00 %
11.02.2016 16:42 4,9 C 81 % 1007,2 hPa 0,0 l/m 0,2 km/h (0 Bft) N-NW 338 0 min 0,000 mm 0,0 UV-I 33 W/m 1,9 C 4,9 C 1,6 km/h (1 Bft) 100,00 %
11.02.2016 16:43 4,8 C 82 % 1007,2 hPa 0,0 l/m 0,1 km/h (0 Bft) N-NW 338 0 min 0,000 mm 0,0 UV-I 31 W/m 2,0 C 4,8 C 1,6 km/h (1 Bft) 100,00 %
11.02.2016 16:44 4,7 C 80 % 1007,2 hPa 0,0 l/m 0,0 km/h (0 Bft) N-NW 338 0 min 0,000 mm 0,0 UV-I 30 W/m 1,6 C 4,7 C 0,0 km/h (0 Bft) 100,00 %
11.02.2016 16:45 4,7 C 80 % 1007,2 hPa 0,0 l/m 0,1 km/h (0 Bft) N-NW 338 0 min 0,000 mm 0,0 UV-I 29 W/m 1,6 C 4,7 C 1,6 km/h (1 Bft) 100,00 %
11.02.2016 16:46 4,7 C 80 % 1007,2 hPa 0,0 l/m 1,6 km/h (1 Bft) N-NW 338 0 min 0,000 mm 0,0 UV-I 26 W/m 1,6 C 4,7 C 3,2 km/h (1 Bft) 100,00 %
11.02.2016 16:47 4,7 C 79 % 1007,2 hPa 0,0 l/m 1,0 km/h (0 Bft) N-NW 338 0 min 0,000 mm 0,0 UV-I 26 W/m 1,4 C 4,7 C 1,6 km/h (1 Bft) 96,15 %
11.02.2016 16:48 4,8 C 79 % 1007,2 hPa 0,0 l/m 1,1 km/h (1 Bft) N-NW 338 0 min 0,000 mm 0,0 UV-I 25 W/m 1,5 C 4,8 C 1,6 km/h (1 Bft) 87,50 %
11.02.2016 16:49 4,8 C 79 % 1007,1 hPa 0,0 l/m 2,1 km/h (1 Bft) N-NW 338 0 min 0,000 mm 0,0 UV-I 23 W/m 1,5 C 4,8 C 3,2 km/h (1 Bft) 100,00 %
11.02.2016 16:50 4,8 C 78 % 1007,2 hPa 0,0 l/m 3,1 km/h (1 Bft) N-NW 338 0 min 0,000 mm 0,0 UV-I 22 W/m 1,3 C 4,8 C 3,2 km/h (1 Bft) 96,30 %
11.02.2016 16:51 4,8 C 79 % 1007,2 hPa 0,0 l/m 2,5 km/h (1 Bft) N-NW 338 0 min 0,000 mm 0,0 UV-I 21 W/m 1,5 C 4,8 C 3,2 km/h (1 Bft) 91,67 %
11.02.2016 16:52 4,7 C 78 % 1007,2 hPa 0,0 l/m 2,1 km/h (1 Bft) N-NW 338 0 min 0,000 mm 0,0 UV-I 19 W/m 1,2 C 4,7 C 3,2 km/h (1 Bft) 96,15 %
11.02.2016 16:53 4,7 C 78 % 1007,2 hPa 0,0 l/m 2,6 km/h (1 Bft) N-NW 340 0 min 0,000 mm 0,0 UV-I 19 W/m 1,2 C 4,7 C 3,2 km/h (1 Bft) 96,55 %
11.02.2016 16:54 4,7 C 78 % 1007,2 hPa 0,0 l/m 2,7 km/h (1 Bft) N-NW 340 0 min 0,000 mm 0,0 UV-I 18 W/m 1,2 C 4,7 C 3,2 km/h (1 Bft) 95,83 %
11.02.2016 16:55 4,7 C 78 % 1007,2 hPa 0,0 l/m 2,1 km/h (1 Bft) N-NW 340 0 min 0,000 mm 0,0 UV-I 17 W/m 1,2 C 4,7 C 3,2 km/h (1 Bft) 100,00 %
11.02.2016 16:56 4,7 C 78 % 1007,2 hPa 0,0 l/m 1,9 km/h (1 Bft) N-NW 340 0 min 0,000 mm 0,0 UV-I 16 W/m 1,2 C 4,7 C 3,2 km/h (1 Bft) 96,15 %
11.02.2016 16:57 4,7 C 78 % 1007,2 hPa 0,0 l/m 2,1 km/h (1 Bft) N-NW 340 0 min 0,000 mm 0,0 UV-I 16 W/m 1,2 C 4,7 C 3,2 km/h (1 Bft) 100,00 %
11.02.2016 16:58 4,7 C 78 % 1007,2 hPa 0,0 l/m 1,7 km/h (1 Bft) N-NW 340 0 min 0,000 mm 0,0 UV-I 16 W/m 1,2 C 4,7 C 3,2 km/h (1 Bft) 95,65 %
11.02.2016 16:59 4,6 C 80 % 1007,1 hPa 0,0 l/m 1,9 km/h (1 Bft) N-NW 340 0 min 0,000 mm 0,0 UV-I 14 W/m 1,5 C 4,6 C 3,2 km/h (1 Bft) 95,83 %
11.02.2016 17:00 4,5 C 79 % 1007,1 hPa 0,0 l/m 1,8 km/h (1 Bft) N-NW 340 0 min 0,026 mm 0,0 UV-I 14 W/m 1,2 C 4,5 C 3,2 km/h (1 Bft) 96,15 %
11.02.2016 17:01 4,4 C 80 % 1007,2 hPa 0,0 l/m 2,0 km/h (1 Bft) N-NW 340 0 min 0,000 mm 0,0 UV-I 14 W/m 1,3 C 4,4 C 3,2 km/h (1 Bft) 96,30 %
11.02.2016 17:02 4,3 C 79 % 1007,2 hPa 0,0 l/m 2,1 km/h (1 Bft) N-NW 340 0 min 0,000 mm 0,0 UV-I 13 W/m 1,0 C 4,3 C 3,2 km/h (1 Bft) 100,00 %
11.02.2016 17:03 4,3 C 80 % 1007,1 hPa 0,0 l/m 2,2 km/h (1 Bft) N-NW 340 0 min 0,000 mm 0,0 UV-I 12 W/m 1,2 C 4,3 C 3,2 km/h (1 Bft) 91,67 %
11.02.2016 17:04 4,3 C 79 % 1007,1 hPa 0,0 l/m 2,4 km/h (1 Bft) N-NW 340 0 min 0,000 mm 0,0 UV-I 12 W/m 1,0 C 4,3 C 3,2 km/h (1 Bft) 100,00 %
11.02.2016 17:05 4,3 C 80 % 1007,2 hPa 0,0 l/m 2,5 km/h (1 Bft) N-NW 340 0 min 0,000 mm 0,0 UV-I 12 W/m 1,2 C 4,3 C 3,2 km/h (1 Bft) 95,12 %
11.02.2016 17:06 4,3 C 79 % 1007,2 hPa 0,0 l/m 2,3 km/h (1 Bft) N-NW 340 1 min 0,000 mm 0,0 UV-I 12 W/m 1,0 C 4,3 C 3,2 km/h (1 Bft) 100,00 %
11.02.2016 17:07 4,3 C 79 % 1007,2 hPa 0,0 l/m 1,9 km/h (1 Bft) N-NW 340 1 min 0,000 mm 0,0 UV-I 11 W/m 1,0 C 4,3 C 3,2 km/h (1 Bft) 96,67 %
11.02.2016 17:08 4,3 C 79 % 1007,1 hPa 0,0 l/m 2,1 km/h (1 Bft) N-NW 340 0 min 0,000 mm 0,0 UV-I 11 W/m 1,0 C 4,3 C 3,2 km/h (1 Bft) 96,15 %
11.02.2016 17:09 4,2 C 80 % 1007,2 hPa 0,0 l/m 2,0 km/h (1 Bft) N-NW 340 0 min 0,000 mm 0,0 UV-I 11 W/m 1,1 C 4,2 C 3,2 km/h (1 Bft) 100,00 %
11.02.2016 17:10 4,2 C 80 % 1007,2 hPa 0,0 l/m 2,2 km/h (1 Bft) N-NW 340 0 min 0,000 mm 0,0 UV-I 11 W/m 1,1 C 4,2 C 3,2 km/h (1 Bft) 95,65 %
11.02.2016 17:11 3,9 C 81 % 1007,2 hPa 0,0 l/m 2,2 km/h (1 Bft) N-NW 340 0 min 0,000 mm 0,0 UV-I 9 W/m 0,9 C 3,9 C 3,2 km/h (1 Bft) 100,00 %
11.02.2016 17:12 3,8 C 82 % 1007,2 hPa 0,0 l/m 2,4 km/h (1 Bft) N-NO 13 0 min 0,000 mm 0,0 UV-I 9 W/m 1,0 C 3,8 C 3,2 km/h (1 Bft) 98,19 %
11.02.2016 17:13 3,6 C 82 % 1007,2 hPa 0,0 l/m 3,0 km/h (1 Bft) N-NO 15 0 min 0,000 mm 0,0 UV-I 8 W/m 0,8 C 3,6 C 3,2 km/h (1 Bft) 97,56 %
11.02.2016 17:14 3,3 C 83 % 1007,2 hPa 0,0 l/m 3,1 km/h (1 Bft) N-NO 15 0 min 0,000 mm 0,0 UV-I 7 W/m 0,7 C 3,3 C 3,2 km/h (1 Bft) 96,30 %
11.02.2016 17:15 3,1 C 84 % 1007,2 hPa 0,0 l/m 2,6 km/h (1 Bft) N-NO 15 0 min 0,000 mm 0,0 UV-I 7 W/m 0,7 C 3,1 C 3,2 km/h (1 Bft) 95,65 %
11.02.2016 17:16 2,9 C 84 % 1007,2 hPa 0,0 l/m 3,1 km/h (1 Bft) N-NO 15 0 min 0,000 mm 0,0 UV-I 5 W/m 0,5 C 2,9 C 3,2 km/h (1 Bft) 95,83 %
11.02.2016 17:17 2,7 C 85 % 1007,2 hPa 0,0 l/m 3,2 km/h (1 Bft) N-NO 33 0 min 0,000 mm 0,0 UV-I 5 W/m 0,4 C 2,7 C 3,2 km/h (1 Bft) 95,65 %
11.02.2016 17:18 2,6 C 85 % 1007,2 hPa 0,0 l/m 3,5 km/h (1 Bft) O-NO 61 0 min 0,000 mm 0,0 UV-I 5 W/m 0,3 C 2,6 C 4,8 km/h (1 Bft) 100,00 %
11.02.2016 17:19 2,5 C 86 % 1007,2 hPa 0,0 l/m 4,6 km/h (1 Bft) O-NO 61 0 min 0,000 mm 0,0 UV-I 5 W/m 0,4 C 2,5 C 6,4 km/h (2 Bft) 92,86 %
11.02.2016 17:20 2,4 C 87 % 1007,2 hPa 0,0 l/m 4,8 km/h (1 Bft) O-NO 74 0 min 0,000 mm 0,0 UV-I 5 W/m 0,5 C 2,4 C 6,4 km/h (2 Bft) 100,00 %
11.02.2016 17:21 2,4 C 87 % 1007,1 hPa 0,0 l/m 4,7 km/h (1 Bft) O 81 0 min 0,000 mm 0,0 UV-I 1 W/m 0,5 C 2,4 C 6,4 km/h (2 Bft) 95,65 %
11.02.2016 17:22 2,4 C 87 % 1007,1 hPa 0,0 l/m 4,1 km/h (1 Bft) O-NO 71 0 min 0,000 mm 0,0 UV-I 0 W/m 0,5 C 2,4 C 4,8 km/h (1 Bft) 95,83 %
11.02.2016 17:23 2,3 C 87 % 1007,1 hPa 0,0 l/m 2,8 km/h (1 Bft) O-NO 71 0 min 0,000 mm 0,0 UV-I 0 W/m 0,4 C 2,3 C 4,8 km/h (1 Bft) 96,15 %
11.02.2016 17:24 2,3 C 87 % 1007,2 hPa 0,0 l/m 1,9 km/h (1 Bft) O-NO 71 0 min 0,000 mm 0,0 UV-I 0 W/m 0,4 C 2,3 C 3,2 km/h (1 Bft) 100,00 %
11.02.2016 17:25 2,3 C 87 % 1007,1 hPa 0,0 l/m 1,7 km/h (1 Bft) O-NO 71 0 min 0,000 mm 0,0 UV-I 0 W/m 0,4 C 2,3 C 3,2 km/h (1 Bft) 100,00 %
11.02.2016 17:26 2,3 C 88 % 1007,2 hPa 0,0 l/m 2,1 km/h (1 Bft) O-NO 71 0 min 0,000 mm 0,0 UV-I 0 W/m 0,5 C 2,3 C 3,2 km/h (1 Bft) 100,00 %
11.02.2016 17:27 2,3 C 88 % 1007,2 hPa 0,0 l/m 1,9 km/h (1 Bft) O-NO 71 0 min 0,000 mm 0,0 UV-I 0 W/m 0,5 C 2,3 C 3,2 km/h (1 Bft) 100,00 %
11.02.2016 17:28 2,3 C 88 % 1007,2 hPa 0,0 l/m 2,2 km/h (1 Bft) O-NO 71 0 min 0,000 mm 0,0 UV-I 0 W/m 0,5 C 2,3 C 3,2 km/h (1 Bft) 100,00 %
11.02.2016 17:29 2,4 C 88 % 1007,2 hPa 0,0 l/m 1,8 km/h (1 Bft) O-NO 71 0 min 0,000 mm 0,0 UV-I 0 W/m 0,6 C 2,4 C 3,2 km/h (1 Bft) 100,00 %
11.02.2016 17:30 2,5 C 88 % 1007,2 hPa 0,0 l/m 2,6 km/h (1 Bft) O-NO 71 0 min 0,000 mm 0,0 UV-I 0 W/m 0,7 C 2,5 C 3,2 km/h (1 Bft) 100,00 %
11.02.2016 17:31 2,6 C 88 % 1007,2 hPa 0,0 l/m 2,3 km/h (1 Bft) O-NO 71 0 min 0,000 mm 0,0 UV-I 0 W/m 0,8 C 2,6 C 3,2 km/h (1 Bft) 95,65 %
11.02.2016 17:32 2,8 C 87 % 1007,2 hPa 0,0 l/m 3,1 km/h (1 Bft) O-NO 71 0 min 0,000 mm 0,0 UV-I 0 W/m 0,9 C 2,8 C 4,8 km/h (1 Bft) 93,33 %
11.02.2016 17:33 2,9 C 87 % 1007,2 hPa 0,0 l/m 3,7 km/h (1 Bft) O-NO 71 0 min 0,000 mm 0,0 UV-I 0 W/m 1,0 C 2,9 C 4,8 km/h (1 Bft) 95,65 %
11.02.2016 17:34 2,9 C 86 % 1007,2 hPa 0,0 l/m 3,4 km/h (1 Bft) O-NO 71 0 min 0,000 mm 0,0 UV-I 0 W/m 0,8 C 2,9 C 4,8 km/h (1 Bft) 100,00 %
11.02.2016 17:35 2,8 C 86 % 1007,2 hPa 0,0 l/m 3,1 km/h (1 Bft) O-NO 71 0 min 0,000 mm 0,0 UV-I 0 W/m 0,7 C 2,8 C 4,8 km/h (1 Bft) 100,00 %
11.02.2016 17:36 2,8 C 86 % 1007,3 hPa 0,0 l/m 2,7 km/h (1 Bft) O-NO 71 0 min 0,000 mm 0,0 UV-I 0 W/m 0,7 C 2,8 C 4,8 km/h (1 Bft) 100,00 %
11.02.2016 17:37 2,8 C 86 % 1007,3 hPa 0,0 l/m 2,2 km/h (1 Bft) O-NO 71 0 min 0,000 mm 0,0 UV-I 0 W/m 0,7 C 2,8 C 3,2 km/h (1 Bft) 100,00 %
11.02.2016 17:38 2,7 C 86 % 1007,3 hPa 0,0 l/m 2,1 km/h (1 Bft) O-NO 71 0 min 0,000 mm 0,0 UV-I 0 W/m 0,6 C 2,7 C 3,2 km/h (1 Bft) 98,18 %
11.02.2016 17:39 2,5 C 86 % 1007,3 hPa 0,0 l/m 2,3 km/h (1 Bft) O-NO 71 0 min 0,000 mm 0,0 UV-I 0 W/m 0,4 C 2,5 C 3,2 km/h (1 Bft) 97,56 %
11.02.2016 17:40 2,4 C 87 % 1007,2 hPa 0,0 l/m 2,1 km/h (1 Bft) O-NO 71 0 min 0,000 mm 0,0 UV-I 0 W/m 0,5 C 2,4 C 3,2 km/h (1 Bft) 100,00 %
11.02.2016 17:41 2,4 C 87 % 1007,3 hPa 0,0 l/m 2,5 km/h (1 Bft) O-NO 71 0 min 0,000 mm 0,0 UV-I 0 W/m 0,5 C 2,4 C 3,2 km/h (1 Bft) 100,00 %
11.02.2016 17:42 2,4 C 87 % 1007,3 hPa 0,0 l/m 2,9 km/h (1 Bft) O-NO 71 0 min 0,000 mm 0,0 UV-I 0 W/m 0,5 C 2,4 C 3,2 km/h (1 Bft) 100,00 %
11.02.2016 17:43 2,4 C 87 % 1007,3 hPa 0,0 l/m 2,4 km/h (1 Bft) O-NO 71 0 min 0,000 mm 0,0 UV-I 0 W/m 0,5 C 2,4 C 3,2 km/h (1 Bft) 100,00 %
11.02.2016 17:44 2,4 C 88 % 1007,3 hPa 0,0 l/m 2,7 km/h (1 Bft) O-NO 71 0 min 0,000 mm 0,0 UV-I 0 W/m 0,6 C 2,4 C 3,2 km/h (1 Bft) 100,00 %
11.02.2016 17:45 2,4 C 87 % 1007,3 hPa 0,0 l/m 2,1 km/h (1 Bft) O-NO 71 0 min 0,000 mm 0,0 UV-I 0 W/m 0,5 C 2,4 C 3,2 km/h (1 Bft) 100,00 %
11.02.2016 17:46 2,3 C 87 % 1007,3 hPa 0,0 l/m 2,6 km/h (1 Bft) O-NO 71 0 min 0,000 mm 0,0 UV-I 0 W/m 0,4 C 2,3 C 3,2 km/h (1 Bft) 95,65 %
11.02.2016 17:47 2,3 C 88 % 1007,3 hPa 0,0 l/m 2,8 km/h (1 Bft) O-NO 71 0 min 0,000 mm 0,0 UV-I 0 W/m 0,5 C 2,3 C 3,2 km/h (1 Bft) 100,00 %
11.02.2016 17:48 2,4 C 88 % 1007,2 hPa 0,0 l/m 3,4 km/h (1 Bft) O-NO 71 0 min 0,000 mm 0,0 UV-I 0 W/m 0,6 C 2,4 C 4,8 km/h (1 Bft) 98,19 %
11.02.2016 17:49 2,6 C 88 % 1007,2 hPa 0,0 l/m 2,2 km/h (1 Bft) O-NO 71 0 min 0,000 mm 0,0 UV-I 0 W/m 0,8 C 2,6 C 3,2 km/h (1 Bft) 97,73 %
11.02.2016 17:50 2,6 C 88 % 1007,3 hPa 0,0 l/m 2,4 km/h (1 Bft) O-NO 71 0 min 0,000 mm 0,0 UV-I 0 W/m 0,8 C 2,6 C 3,2 km/h (1 Bft) 100,00 %
11.02.2016 17:51 2,6 C 87 % 1007,3 hPa 0,0 l/m 1,7 km/h (1 Bft) O-NO 71 0 min 0,000 mm 0,0 UV-I 0 W/m 0,7 C 2,6 C 3,2 km/h (1 Bft) 100,00 %
11.02.2016 17:52 2,6 C 87 % 1007,3 hPa 0,0 l/m 2,0 km/h (1 Bft) O-NO 71 0 min 0,000 mm 0,0 UV-I 0 W/m 0,7 C 2,6 C 3,2 km/h (1 Bft) 95,65 %
11.02.2016 17:53 2,6 C 87 % 1007,3 hPa 0,0 l/m 1,9 km/h (1 Bft) O-NO 71 0 min 0,000 mm 0,0 UV-I 0 W/m 0,7 C 2,6 C 3,2 km/h (1 Bft) 100,00 %
11.02.2016 17:54 2,6 C 87 % 1007,3 hPa 0,0 l/m 1,1 km/h (1 Bft) O-NO 71 0 min 0,000 mm 0,0 UV-I 0 W/m 0,7 C 2,6 C 1,6 km/h (1 Bft) 100,00 %
11.02.2016 17:55 2,6 C 87 % 1007,3 hPa 0,0 l/m 1,6 km/h (1 Bft) O-NO 71 0 min 0,000 mm 0,0 UV-I 0 W/m 0,7 C 2,6 C 3,2 km/h (1 Bft) 100,00 %
11.02.2016 17:56 2,6 C 87 % 1007,3 hPa 0,0 l/m 1,5 km/h (1 Bft) O-NO 71 0 min 0,000 mm 0,0 UV-I 0 W/m 0,7 C 2,6 C 3,2 km/h (1 Bft) 100,00 %
11.02.2016 17:57 2,6 C 87 % 1007,3 hPa 0,0 l/m 2,4 km/h (1 Bft) O-NO 71 0 min 0,000 mm 0,0 UV-I 0 W/m 0,7 C 2,6 C 3,2 km/h (1 Bft) 100,00 %
11.02.2016 17:58 2,6 C 87 % 1007,4 hPa 0,0 l/m 2,0 km/h (1 Bft) O-NO 71 0 min 0,000 mm 0,0 UV-I 0 W/m 0,7 C 2,6 C 3,2 km/h (1 Bft) 100,00 %
11.02.2016 17:59 2,5 C 87 % 1007,3 hPa 0,0 l/m 1,5 km/h (1 Bft) O-NO 71 0 min 0,000 mm 0,0 UV-I 0 W/m 0,6 C 2,5 C 3,2 km/h (1 Bft) 100,00 %
11.02.2016 18:00 2,4 C 87 % 1007,3 hPa 0,0 l/m 1,5 km/h (1 Bft) O-NO 71 0 min 0,000 mm 0,0 UV-I 0 W/m 0,5 C 2,4 C 3,2 km/h (1 Bft) 100,00 %
11.02.2016 18:01 2,3 C 87 % 1007,3 hPa 0,0 l/m 1,0 km/h (0 Bft) O-NO 71 0 min 0,000 mm 0,0 UV-I 0 W/m 0,4 C 2,3 C 1,6 km/h (1 Bft) 100,00 %
11.02.2016 18:02 2,1 C 87 % 1007,4 hPa 0,0 l/m 1,0 km/h (0 Bft) O-NO 71 0 min 0,000 mm 0,0 UV-I 0 W/m 0,2 C 2,1 C 1,6 km/h (1 Bft) 100,00 %
11.02.2016 18:03 1,9 C 87 % 1007,4 hPa 0,0 l/m 0,2 km/h (0 Bft) O-NO 71 0 min 0,000 mm 0,0 UV-I 0 W/m -0,0 C 1,9 C 1,6 km/h (1 Bft) 100,00 %
11.02.2016 18:04 1,8 C 88 % 1007,4 hPa 0,0 l/m 0,0 km/h (0 Bft) O-NO 71 0 min 0,000 mm 0,0 UV-I 0 W/m 0,0 C 1,8 C 0,0 km/h (0 Bft) 100,00 %
11.02.2016 18:05 1,8 C 88 % 1007,4 hPa 0,0 l/m 0,0 km/h (0 Bft) O-NO 71 0 min 0,000 mm 0,0 UV-I 0 W/m 0,0 C 1,8 C 0,0 km/h (0 Bft) 100,00 %
11.02.2016 18:06 1,7 C 89 % 1007,5 hPa 0,0 l/m 0,0 km/h (0 Bft) O-NO 71 0 min 0,000 mm 0,0 UV-I 0 W/m 0,1 C 1,7 C 0,0 km/h (0 Bft) 100,00 %
11.02.2016 18:07 1,6 C 89 % 1007,5 hPa 0,0 l/m 0,0 km/h (0 Bft) O-NO 71 0 min 0,000 mm 0,0 UV-I 0 W/m -0,0 C 1,6 C 0,0 km/h (0 Bft) 100,00 %
11.02.2016 18:08 1,6 C 90 % 1007,4 hPa 0,0 l/m 0,0 km/h (0 Bft) O-NO 71 0 min 0,000 mm 0,0 UV-I 0 W/m 0,1 C 1,6 C 0,0 km/h (0 Bft) 95,83 %
11.02.2016 18:09 1,6 C 90 % 1007,5 hPa 0,0 l/m 0,0 km/h (0 Bft) O-NO 71 0 min 0,000 mm 0,0 UV-I 0 W/m 0,1 C 1,6 C 0,0 km/h (0 Bft) 100,00 %
11.02.2016 18:10 1,6 C 90 % 1007,4 hPa 0,0 l/m 0,0 km/h (0 Bft) O-NO 71 0 min 0,000 mm 0,0 UV-I 0 W/m 0,1 C 1,6 C 0,0 km/h (0 Bft) 100,00 %
11.02.2016 18:11 1,6 C 90 % 1007,5 hPa 0,0 l/m 0,0 km/h (0 Bft) O-NO 71 0 min 0,000 mm 0,0 UV-I 0 W/m 0,1 C 1,6 C 0,0 km/h (0 Bft) 100,00 %
11.02.2016 18:12 1,5 C 90 % 1007,4 hPa 0,0 l/m 0,0 km/h (0 Bft) O-NO 71 0 min 0,000 mm 0,0 UV-I 0 W/m 0,0 C 1,5 C 0,0 km/h (0 Bft) 100,00 %
11.02.2016 18:13 1,5 C 90 % 1007,4 hPa 0,0 l/m 0,0 km/h (0 Bft) O-NO 71 0 min 0,000 mm 0,0 UV-I 0 W/m 0,0 C 1,5 C 0,0 km/h (0 Bft) 100,00 %
11.02.2016 18:14 1,4 C 90 % 1007,5 hPa 0,0 l/m 0,0 km/h (0 Bft) O-NO 71 0 min 0,000 mm 0,0 UV-I 0 W/m -0,1 C 1,4 C 0,0 km/h (0 Bft) 100,00 %
11.02.2016 18:15 1,4 C 90 % 1007,5 hPa 0,0 l/m 0,0 km/h (0 Bft) O-NO 71 0 min 0,000 mm 0,0 UV-I 0 W/m -0,1 C 1,4 C 0,0 km/h (0 Bft) 100,00 %
11.02.2016 18:16 1,4 C 90 % 1007,4 hPa 0,0 l/m 0,0 km/h (0 Bft) O-NO 71 0 min 0,000 mm 0,0 UV-I 0 W/m -0,1 C 1,4 C 0,0 km/h (0 Bft) 100,00 %
11.02.2016 18:17 1,3 C 90 % 1007,4 hPa 0,0 l/m 0,1 km/h (0 Bft) O-NO 71 0 min 0,000 mm 0,0 UV-I 0 W/m -0,2 C 1,3 C 1,6 km/h (1 Bft) 100,00 %
11.02.2016 18:18 1,2 C 90 % 1007,4 hPa 0,0 l/m 0,1 km/h (0 Bft) O-NO 71 0 min 0,000 mm 0,0 UV-I 0 W/m -0,3 C 1,2 C 1,6 km/h (1 Bft) 100,00 %
11.02.2016 18:19 1,2 C 90 % 1007,5 hPa 0,0 l/m 0,1 km/h (0 Bft) O-NO 71 0 min 0,000 mm 0,0 UV-I 0 W/m -0,3 C 1,2 C 1,6 km/h (1 Bft) 95,83 %
11.02.2016 18:20 1,1 C 90 % 1007,5 hPa 0,0 l/m 0,2 km/h (0 Bft) O-NO 71 0 min 0,000 mm 0,0 UV-I 0 W/m -0,4 C 1,1 C 1,6 km/h (1 Bft) 100,00 %
11.02.2016 18:21 1,0 C 91 % 1007,5 hPa 0,0 l/m 0,9 km/h (0 Bft) O-NO 71 0 min 0,000 mm 0,0 UV-I 0 W/m -0,3 C 1,0 C 3,2 km/h (1 Bft) 100,00 %
11.02.2016 18:22 0,9 C 91 % 1007,5 hPa 0,0 l/m 1,9 km/h (1 Bft) O-NO 71 0 min 0,000 mm 0,0 UV-I 0 W/m -0,4 C 0,9 C 3,2 km/h (1 Bft) 100,00 %
11.02.2016 18:23 0,9 C 91 % 1007,5 hPa 0,0 l/m 2,2 km/h (1 Bft) O-NO 71 0 min 0,000 mm 0,0 UV-I 0 W/m -0,4 C 0,9 C 3,2 km/h (1 Bft) 100,00 %
11.02.2016 18:24 0,9 C 91 % 1007,5 hPa 0,0 l/m 1,9 km/h (1 Bft) O-NO 71 0 min 0,000 mm 0,0 UV-I 0 W/m -0,4 C 0,9 C 3,2 km/h (1 Bft) 96,15 %
11.02.2016 18:25 0,8 C 92 % 1007,5 hPa 0,0 l/m 2,1 km/h (1 Bft) O-NO 71 0 min 0,000 mm 0,0 UV-I 0 W/m -0,3 C 0,8 C 3,2 km/h (1 Bft) 100,00 %
11.02.2016 18:26 0,8 C 92 % 1007,5 hPa 0,0 l/m 2,1 km/h (1 Bft) O-NO 71 0 min 0,000 mm 0,0 UV-I 0 W/m -0,3 C 0,8 C 3,2 km/h (1 Bft) 95,65 %
11.02.2016 18:27 0,8 C 92 % 1007,5 hPa 0,0 l/m 1,6 km/h (1 Bft) O-NO 71 0 min 0,000 mm 0,0 UV-I 0 W/m -0,3 C 0,8 C 1,6 km/h (1 Bft) 100,00 %
11.02.2016 18:28 0,9 C 92 % 1007,5 hPa 0,0 l/m 1,5 km/h (1 Bft) O-NO 71 0 min 0,000 mm 0,0 UV-I 0 W/m -0,2 C 0,9 C 1,6 km/h (1 Bft) 100,00 %
11.02.2016 18:29 0,9 C 92 % 1007,4 hPa 0,0 l/m 1,6 km/h (1 Bft) O-NO 71 0 min 0,000 mm 0,0 UV-I 0 W/m -0,2 C 0,9 C 1,6 km/h (1 Bft) 100,00 %
11.02.2016 18:30 0,9 C 92 % 1007,5 hPa 0,0 l/m 1,7 km/h (1 Bft) O-NO 71 0 min 0,000 mm 0,0 UV-I 0 W/m -0,2 C 0,9 C 3,2 km/h (1 Bft) 100,00 %
11.02.2016 18:31 1,0 C 92 % 1007,5 hPa 0,0 l/m 2,1 km/h (1 Bft) O-NO 71 0 min 0,000 mm 0,0 UV-I 0 W/m -0,2 C 1,0 C 3,2 km/h (1 Bft) 100,00 %
11.02.2016 18:32 1,0 C 92 % 1007,5 hPa 0,0 l/m 2,1 km/h (1 Bft) O-NO 71 0 min 0,000 mm 0,0 UV-I 0 W/m -0,2 C 1,0 C 3,2 km/h (1 Bft) 100,00 %
11.02.2016 18:33 1,1 C 92 % 1007,5 hPa 0,0 l/m 2,1 km/h (1 Bft) O-NO 71 0 min 0,000 mm 0,0 UV-I 0 W/m -0,1 C 1,1 C 3,2 km/h (1 Bft) 100,00 %
11.02.2016 18:34 1,1 C 92 % 1007,5 hPa 0,0 l/m 2,1 km/h (1 Bft) O-NO 71 0 min 0,000 mm 0,0 UV-I 0 W/m -0,1 C 1,1 C 3,2 km/h (1 Bft) 100,00 %
11.02.2016 18:35 1,1 C 92 % 1007,6 hPa 0,0 l/m 3,0 km/h (1 Bft) O-NO 71 0 min 0,000 mm 0,0 UV-I 0 W/m -0,1 C 1,1 C 3,2 km/h (1 Bft) 100,00 %
11.02.2016 18:36 1,1 C 91 % 1007,6 hPa 0,0 l/m 3,1 km/h (1 Bft) O-NO 71 0 min 0,000 mm 0,0 UV-I 0 W/m -0,2 C 1,1 C 4,8 km/h (1 Bft) 100,00 %
11.02.2016 18:37 0,9 C 91 % 1007,6 hPa 0,0 l/m 2,7 km/h (1 Bft) O-NO 71 0 min 0,000 mm 0,0 UV-I 0 W/m -0,4 C 0,9 C 3,2 km/h (1 Bft) 91,67 %
11.02.2016 18:38 0,9 C 91 % 1007,6 hPa 0,0 l/m 2,1 km/h (1 Bft) O-NO 71 0 min 0,000 mm 0,0 UV-I 0 W/m -0,4 C 0,9 C 3,2 km/h (1 Bft) 100,00 %
11.02.2016 18:39 0,8 C 91 % 1007,6 hPa 0,0 l/m 2,6 km/h (1 Bft) O-NO 71 0 min 0,000 mm 0,0 UV-I 0 W/m -0,5 C 0,8 C 3,2 km/h (1 Bft) 96,15 %
11.02.2016 18:40 0,7 C 91 % 1007,6 hPa 0,0 l/m 1,7 km/h (1 Bft) O-NO 71 0 min 0,000 mm 0,0 UV-I 0 W/m -0,6 C 0,7 C 3,2 km/h (1 Bft) 100,00 %
11.02.2016 18:41 0,7 C 91 % 1007,6 hPa 0,0 l/m 3,8 km/h (1 Bft) O-NO 71 0 min 0,000 mm 0,0 UV-I 0 W/m -0,6 C 0,7 C 4,8 km/h (1 Bft) 100,00 %
11.02.2016 18:42 0,6 C 92 % 1007,6 hPa 0,0 l/m 1,8 km/h (1 Bft) O-NO 71 0 min 0,000 mm 0,0 UV-I 0 W/m -0,5 C 0,6 C 3,2 km/h (1 Bft) 100,00 %
11.02.2016 18:43 0,6 C 92 % 1007,6 hPa 0,0 l/m 3,0 km/h (1 Bft) O 84 0 min 0,000 mm 0,0 UV-I 0 W/m -0,5 C 0,6 C 4,8 km/h (1 Bft) 100,00 %
11.02.2016 18:44 0,5 C 92 % 1007,6 hPa 0,0 l/m 2,7 km/h (1 Bft) O 92 0 min 0,000 mm 0,0 UV-I 0 W/m -0,6 C 0,5 C 4,8 km/h (1 Bft) 100,00 %
11.02.2016 18:45 0,4 C 92 % 1007,6 hPa 0,0 l/m 2,2 km/h (1 Bft) O-NO 76 0 min 0,000 mm 0,0 UV-I 0 W/m -0,7 C 0,4 C 4,8 km/h (1 Bft) 100,00 %
11.02.2016 18:46 0,3 C 92 % 1007,6 hPa 0,0 l/m 4,5 km/h (1 Bft) O 92 0 min 0,000 mm 0,0 UV-I 0 W/m -0,8 C 0,3 C 9,7 km/h (2 Bft) 100,00 %
11.02.2016 18:47 0,3 C 92 % 1007,6 hPa 0,0 l/m 4,3 km/h (1 Bft) O 93 0 min 0,000 mm 0,0 UV-I 0 W/m -0,8 C 0,3 C 6,4 km/h (2 Bft) 100,00 %
11.02.2016 18:48 0,3 C 93 % 1007,6 hPa 0,0 l/m 6,2 km/h (2 Bft) O 90 0 min 0,000 mm 0,0 UV-I 0 W/m -0,7 C 0,3 C 11,3 km/h (2 Bft) 100,00 %
11.02.2016 18:49 0,3 C 93 % 1007,6 hPa 0,0 l/m 4,1 km/h (1 Bft) O 93 0 min 0,000 mm 0,0 UV-I 0 W/m -0,7 C 0,3 C 6,4 km/h (2 Bft) 100,00 %
11.02.2016 18:50 0,3 C 93 % 1007,6 hPa 0,0 l/m 4,2 km/h (1 Bft) O 93 0 min 0,000 mm 0,0 UV-I 0 W/m -0,7 C 0,3 C 4,8 km/h (1 Bft) 95,83 %
11.02.2016 18:51 0,3 C 93 % 1007,6 hPa 0,0 l/m 3,8 km/h (1 Bft) O 93 0 min 0,000 mm 0,0 UV-I 0 W/m -0,7 C 0,3 C 4,8 km/h (1 Bft) 100,00 %
11.02.2016 18:52 0,4 C 93 % 1007,6 hPa 0,0 l/m 4,3 km/h (1 Bft) O 97 0 min 0,000 mm 0,0 UV-I 0 W/m -0,6 C 0,4 C 6,4 km/h (2 Bft) 100,00 %
11.02.2016 18:53 0,4 C 93 % 1007,5 hPa 0,0 l/m 2,2 km/h (1 Bft) O 97 0 min 0,000 mm 0,0 UV-I 0 W/m -0,6 C 0,4 C 3,2 km/h (1 Bft) 100,00 %
11.02.2016 18:54 0,4 C 93 % 1007,5 hPa 0,0 l/m 3,1 km/h (1 Bft) O-SO 102 0 min 0,000 mm 0,0 UV-I 0 W/m -0,6 C 0,4 C 4,8 km/h (1 Bft) 95,65 %
11.02.2016 18:55 0,4 C 93 % 1007,5 hPa 0,0 l/m 2,7 km/h (1 Bft) O-SO 102 0 min 0,000 mm 0,0 UV-I 0 W/m -0,6 C 0,4 C 4,8 km/h (1 Bft) 100,00 %
11.02.2016 18:56 0,4 C 92 % 1007,5 hPa 0,0 l/m 2,1 km/h (1 Bft) O-SO 102 0 min 0,000 mm 0,0 UV-I 0 W/m -0,7 C 0,4 C 3,2 km/h (1 Bft) 95,65 %
11.02.2016 18:57 0,4 C 92 % 1007,6 hPa 0,0 l/m 1,4 km/h (1 Bft) O-SO 113 0 min 0,000 mm 0,0 UV-I 0 W/m -0,7 C 0,4 C 3,2 km/h (1 Bft) 100,00 %
11.02.2016 18:58 0,4 C 92 % 1007,6 hPa 0,0 l/m 1,1 km/h (1 Bft) O-SO 113 0 min 0,000 mm 0,0 UV-I 0 W/m -0,7 C 0,4 C 3,2 km/h (1 Bft) 100,00 %
11.02.2016 18:59 0,4 C 93 % 1007,5 hPa 0,0 l/m 0,7 km/h (0 Bft) O-SO 113 0 min 0,000 mm 0,0 UV-I 0 W/m -0,6 C 0,4 C 3,2 km/h (1 Bft) 100,00 %
11.02.2016 19:00 0,4 C 93 % 1007,5 hPa 0,0 l/m 0,8 km/h (0 Bft) O-SO 113 0 min 0,000 mm 0,0 UV-I 0 W/m -0,6 C 0,4 C 3,2 km/h (1 Bft) 100,00 %
11.02.2016 19:01 0,4 C 93 % 1007,5 hPa 0,0 l/m 1,0 km/h (0 Bft) O-SO 113 0 min 0,000 mm 0,0 UV-I 0 W/m -0,6 C 0,4 C 3,2 km/h (1 Bft) 100,00 %
11.02.2016 19:02 0,3 C 93 % 1007,5 hPa 0,0 l/m 1,9 km/h (1 Bft) O-SO 113 0 min 0,000 mm 0,0 UV-I 0 W/m -0,7 C 0,3 C 3,2 km/h (1 Bft) 100,00 %
11.02.2016 19:03 0,3 C 93 % 1007,4 hPa 0,0 l/m 3,0 km/h (1 Bft) O-SO 111 0 min 0,000 mm 0,0 UV-I 0 W/m -0,7 C 0,3 C 4,8 km/h (1 Bft) 100,00 %
11.02.2016 19:04 0,3 C 93 % 1007,4 hPa 0,0 l/m 2,3 km/h (1 Bft) O-SO 111 0 min 0,000 mm 0,0 UV-I 0 W/m -0,7 C 0,3 C 3,2 km/h (1 Bft) 100,00 %
11.02.2016 19:05 0,3 C 93 % 1007,5 hPa 0,0 l/m 2,3 km/h (1 Bft) O-SO 111 0 min 0,000 mm 0,0 UV-I 0 W/m -0,7 C 0,3 C 3,2 km/h (1 Bft) 96,30 %
11.02.2016 19:06 0,3 C 93 % 1007,5 hPa 0,0 l/m 1,5 km/h (1 Bft) O-SO 111 0 min 0,000 mm 0,0 UV-I 0 W/m -0,7 C 0,3 C 1,6 km/h (1 Bft) 100,00 %
11.02.2016 19:07 0,3 C 93 % 1007,5 hPa 0,0 l/m 1,5 km/h (1 Bft) O-SO 111 0 min 0,000 mm 0,0 UV-I 0 W/m -0,7 C 0,3 C 3,2 km/h (1 Bft) 92,59 %
11.02.2016 19:08 0,3 C 93 % 1007,5 hPa 0,0 l/m 1,1 km/h (1 Bft) O-SO 111 0 min 0,000 mm 0,0 UV-I 0 W/m -0,7 C 0,3 C 3,2 km/h (1 Bft) 95,65 %
11.02.2016 19:09 0,3 C 93 % 1007,5 hPa 0,0 l/m 0,3 km/h (0 Bft) O-SO 111 0 min 0,000 mm 0,0 UV-I 0 W/m -0,7 C 0,3 C 1,6 km/h (1 Bft) 96,30 %
11.02.2016 19:10 0,3 C 93 % 1007,5 hPa 0,0 l/m 0,3 km/h (0 Bft) O-SO 111 0 min 0,000 mm 0,0 UV-I 0 W/m -0,7 C 0,3 C 1,6 km/h (1 Bft) 95,65 %
11.02.2016 19:11 0,3 C 93 % 1007,5 hPa 0,0 l/m 1,5 km/h (1 Bft) O-SO 111 0 min 0,000 mm 0,0 UV-I 0 W/m -0,7 C 0,3 C 1,6 km/h (1 Bft) 100,00 %
11.02.2016 19:12 0,3 C 93 % 1007,5 hPa 0,0 l/m 1,3 km/h (1 Bft) O-SO 111 0 min 0,000 mm 0,0 UV-I 0 W/m -0,7 C 0,3 C 1,6 km/h (1 Bft) 95,65 %
11.02.2016 19:13 0,4 C 93 % 1007,6 hPa 0,0 l/m 0,3 km/h (0 Bft) O-SO 111 0 min 0,000 mm 0,0 UV-I 0 W/m -0,6 C 0,4 C 1,6 km/h (1 Bft) 95,83 %
11.02.2016 19:14 0,4 C 93 % 1007,5 hPa 0,0 l/m 0,0 km/h (0 Bft) O-SO 111 0 min 0,000 mm 0,0 UV-I 0 W/m -0,6 C 0,4 C 0,0 km/h (0 Bft) 95,65 %
11.02.2016 19:15 0,3 C 93 % 1007,6 hPa 0,0 l/m 0,0 km/h (0 Bft) O-SO 111 0 min 0,000 mm 0,0 UV-I 0 W/m -0,7 C 0,3 C 0,0 km/h (0 Bft) 95,83 %
11.02.2016 19:16 0,3 C 92 % 1007,5 hPa 0,0 l/m 0,0 km/h (0 Bft) O-SO 111 0 min 0,000 mm 0,0 UV-I 0 W/m -0,8 C 0,3 C 0,0 km/h (0 Bft) 100,00 %
11.02.2016 19:17 0,2 C 93 % 1007,5 hPa 0,0 l/m 0,0 km/h (0 Bft) O-SO 111 0 min 0,000 mm 0,0 UV-I 0 W/m -0,8 C 0,2 C 0,0 km/h (0 Bft) 95,83 %
11.02.2016 19:18 0,2 C 92 % 1007,5 hPa 0,0 l/m 0,0 km/h (0 Bft) O-SO 111 0 min 0,000 mm 0,0 UV-I 0 W/m -0,9 C 0,2 C 0,0 km/h (0 Bft) 100,00 %
11.02.2016 19:19 0,2 C 93 % 1007,5 hPa 0,0 l/m 0,0 km/h (0 Bft) O-SO 111 0 min 0,000 mm 0,0 UV-I 0 W/m -0,8 C 0,2 C 0,0 km/h (0 Bft) 96,43 %
11.02.2016 19:20 0,1 C 93 % 1007,5 hPa 0,0 l/m 0,2 km/h (0 Bft) O-SO 111 0 min 0,000 mm 0,0 UV-I 0 W/m -0,9 C 0,1 C 1,6 km/h (1 Bft) 100,00 %
11.02.2016 19:21 0,1 C 93 % 1007,6 hPa 0,0 l/m 0,5 km/h (0 Bft) O-SO 111 0 min 0,000 mm 0,0 UV-I 0 W/m -0,9 C 0,1 C 1,6 km/h (1 Bft) 95,65 %
11.02.2016 19:22 0,1 C 93 % 1007,5 hPa 0,0 l/m 0,2 km/h (0 Bft) O-SO 111 0 min 0,000 mm 0,0 UV-I 0 W/m -0,9 C 0,1 C 1,6 km/h (1 Bft) 100,00 %
11.02.2016 19:23 0,0 C 93 % 1007,6 hPa 0,0 l/m 0,8 km/h (0 Bft) O-SO 111 0 min 0,000 mm 0,0 UV-I 0 W/m -1,0 C 0,0 C 1,6 km/h (1 Bft) 95,65 %
11.02.2016 19:24 0,0 C 93 % 1007,6 hPa 0,0 l/m 0,9 km/h (0 Bft) O-SO 111 0 min 0,000 mm 0,0 UV-I 0 W/m -1,0 C 0,0 C 1,6 km/h (1 Bft) 100,00 %
11.02.2016 19:25 0,0 C 93 % 1007,6 hPa 0,0 l/m 1,5 km/h (1 Bft) O-SO 111 0 min 0,000 mm 0,0 UV-I 0 W/m -1,0 C 0,0 C 1,6 km/h (1 Bft) 95,65 %
11.02.2016 19:26 0,0 C 93 % 1007,6 hPa 0,0 l/m 1,6 km/h (1 Bft) O-SO 111 0 min 0,000 mm 0,0 UV-I 0 W/m -1,0 C 0,0 C 3,2 km/h (1 Bft) 95,83 %
11.02.2016 19:27 0,0 C 93 % 1007,6 hPa 0,0 l/m 0,3 km/h (0 Bft) O-SO 111 0 min 0,000 mm 0,0 UV-I 0 W/m -1,0 C 0,0 C 1,6 km/h (1 Bft) 100,00 %
11.02.2016 19:28 0,0 C 94 % 1007,6 hPa 0,0 l/m 0,0 km/h (0 Bft) O-SO 111 0 min 0,000 mm 0,0 UV-I 0 W/m -0,8 C 0,0 C 0,0 km/h (0 Bft) 95,83 %
11.02.2016 19:29 0,1 C 94 % 1007,6 hPa 0,0 l/m 0,0 km/h (0 Bft) O-SO 111 0 min 0,000 mm 0,0 UV-I 0 W/m -0,7 C 0,1 C 0,0 km/h (0 Bft) 100,00 %
11.02.2016 19:30 0,1 C 94 % 1007,7 hPa 0,0 l/m 0,0 km/h (0 Bft) O-SO 111 0 min 0,000 mm 0,0 UV-I 0 W/m -0,7 C 0,1 C 0,0 km/h (0 Bft) 95,83 %
11.02.2016 19:31 0,1 C 94 % 1007,6 hPa 0,0 l/m 0,0 km/h (0 Bft) O-SO 111 0 min 0,000 mm 0,0 UV-I 0 W/m -0,7 C 0,1 C 0,0 km/h (0 Bft) 100,00 %
11.02.2016 19:32 0,2 C 94 % 1007,7 hPa 0,0 l/m 0,0 km/h (0 Bft) O-SO 111 0 min 0,000 mm 0,0 UV-I 0 W/m -0,6 C 0,2 C 0,0 km/h (0 Bft) 95,83 %
11.02.2016 19:33 0,1 C 94 % 1007,7 hPa 0,0 l/m 0,0 km/h (0 Bft) O-SO 111 0 min 0,000 mm 0,0 UV-I 0 W/m -0,7 C 0,1 C 0,0 km/h (0 Bft) 96,15 %
11.02.2016 19:34 0,1 C 93 % 1007,6 hPa 0,0 l/m 1,2 km/h (1 Bft) O-SO 111 0 min 0,000 mm 0,0 UV-I 0 W/m -0,9 C 0,1 C 1,6 km/h (1 Bft) 100,00 %
11.02.2016 19:35 -0,1 C 93 % 1007,7 hPa 0,0 l/m 0,5 km/h (0 Bft) O-SO 111 0 min 0,000 mm 0,0 UV-I 0 W/m -1,1 C -0,1 C 1,6 km/h (1 Bft) 96,88 %
11.02.2016 19:36 -0,1 C 93 % 1007,7 hPa 0,0 l/m 0,4 km/h (0 Bft) O-SO 111 0 min 0,000 mm 0,0 UV-I 0 W/m -1,1 C -0,1 C 1,6 km/h (1 Bft) 100,00 %
11.02.2016 19:37 -0,2 C 93 % 1007,7 hPa 0,0 l/m 0,5 km/h (0 Bft) O-SO 111 0 min 0,000 mm 0,0 UV-I 0 W/m -1,2 C -0,2 C 1,6 km/h (1 Bft) 100,00 %
11.02.2016 19:38 -0,2 C 93 % 1007,6 hPa 0,0 l/m 0,6 km/h (0 Bft) O-SO 116 0 min 0,000 mm 0,0 UV-I 0 W/m -1,2 C -0,2 C 1,6 km/h (1 Bft) 97,37 %
11.02.2016 19:39 -0,2 C 94 % 1007,7 hPa 0,0 l/m 2,3 km/h (1 Bft) SO 128 0 min 0,000 mm 0,0 UV-I 0 W/m -1,0 C -0,2 C 4,8 km/h (1 Bft) 91,67 %
11.02.2016 19:40 -0,2 C 94 % 1007,6 hPa 0,0 l/m 3,7 km/h (1 Bft) SO 128 0 min 0,000 mm 0,0 UV-I 0 W/m -1,0 C -0,2 C 4,8 km/h (1 Bft) 100,00 %
11.02.2016 19:41 -0,2 C 94 % 1007,6 hPa 0,0 l/m 2,4 km/h (1 Bft) SO 128 0 min 0,000 mm 0,0 UV-I 0 W/m -1,0 C -0,2 C 4,8 km/h (1 Bft) 95,83 %
11.02.2016 19:42 -0,2 C 94 % 1007,6 hPa 0,0 l/m 2,5 km/h (1 Bft) SO 128 0 min 0,000 mm 0,0 UV-I 0 W/m -1,0 C -0,2 C 3,2 km/h (1 Bft) 96,15 %
11.02.2016 19:43 -0,2 C 94 % 1007,6 hPa 0,0 l/m 3,3 km/h (1 Bft) SO 128 0 min 0,000 mm 0,0 UV-I 0 W/m -1,0 C -0,2 C 4,8 km/h (1 Bft) 100,00 %
11.02.2016 19:44 -0,2 C 94 % 1007,6 hPa 0,0 l/m 3,4 km/h (1 Bft) SO 128 0 min 0,000 mm 0,0 UV-I 0 W/m -1,0 C -0,2 C 4,8 km/h (1 Bft) 91,30 %
11.02.2016 19:45 -0,3 C 94 % 1007,6 hPa 0,0 l/m 3,1 km/h (1 Bft) SO 128 0 min 0,000 mm 0,0 UV-I 0 W/m -1,1 C -0,3 C 3,2 km/h (1 Bft) 100,00 %
11.02.2016 19:46 -0,3 C 94 % 1007,6 hPa 0,0 l/m 2,8 km/h (1 Bft) SO 128 0 min 0,000 mm 0,0 UV-I 0 W/m -1,1 C -0,3 C 3,2 km/h (1 Bft) 96,15 %
11.02.2016 19:47 -0,3 C 94 % 1007,6 hPa 0,0 l/m 3,9 km/h (1 Bft) S 172 0 min 0,000 mm 0,0 UV-I 0 W/m -1,1 C -0,3 C 6,4 km/h (2 Bft) 100,00 %
11.02.2016 19:48 -0,3 C 94 % 1007,6 hPa 0,0 l/m 4,0 km/h (1 Bft) S 169 0 min 0,000 mm 0,0 UV-I 0 W/m -1,1 C -0,3 C 6,4 km/h (2 Bft) 95,65 %
11.02.2016 19:49 -0,3 C 94 % 1007,6 hPa 0,0 l/m 3,7 km/h (1 Bft) S-SO 167 0 min 0,000 mm 0,0 UV-I 0 W/m -1,1 C -0,3 C 4,8 km/h (1 Bft) 100,00 %
11.02.2016 19:50 -0,3 C 94 % 1007,5 hPa 0,0 l/m 4,6 km/h (1 Bft) S-SO 167 0 min 0,000 mm 0,0 UV-I 0 W/m -1,1 C -0,3 C 6,4 km/h (2 Bft) 96,15 %
11.02.2016 19:51 -0,2 C 95 % 1007,5 hPa 0,0 l/m 4,5 km/h (1 Bft) S-SO 166 0 min 0,000 mm 0,0 UV-I 0 W/m -0,9 C -0,2 C 6,4 km/h (2 Bft) 100,00 %
11.02.2016 19:52 -0,1 C 95 % 1007,5 hPa 0,0 l/m 3,2 km/h (1 Bft) S-SO 167 0 min 0,000 mm 0,0 UV-I 0 W/m -0,8 C -0,1 C 4,8 km/h (1 Bft) 100,00 %
11.02.2016 19:53 0,0 C 95 % 1007,5 hPa 0,0 l/m 2,7 km/h (1 Bft) S-SO 165 0 min 0,000 mm 0,0 UV-I 0 W/m -0,7 C 0,0 C 4,8 km/h (1 Bft) 93,33 %
11.02.2016 19:54 0,1 C 95 % 1007,5 hPa 0,0 l/m 2,8 km/h (1 Bft) S-SO 160 0 min 0,000 mm 0,0 UV-I 0 W/m -0,6 C 0,1 C 6,4 km/h (2 Bft) 100,00 %
11.02.2016 19:55 0,2 C 95 % 1007,5 hPa 0,0 l/m 2,2 km/h (1 Bft) S-SO 161 0 min 0,000 mm 0,0 UV-I 0 W/m -0,5 C 0,2 C 3,2 km/h (1 Bft) 93,10 %
11.02.2016 19:56 0,3 C 95 % 1007,5 hPa 0,0 l/m 2,7 km/h (1 Bft) S-SO 161 0 min 0,000 mm 0,0 UV-I 0 W/m -0,4 C 0,3 C 3,2 km/h (1 Bft) 100,00 %
11.02.2016 19:57 0,3 C 95 % 1007,5 hPa 0,0 l/m 2,7 km/h (1 Bft) S-SO 166 0 min 0,000 mm 0,0 UV-I 0 W/m -0,4 C 0,3 C 6,4 km/h (2 Bft) 100,00 %
11.02.2016 19:58 0,3 C 94 % 1007,5 hPa 0,0 l/m 2,5 km/h (1 Bft) S-SO 167 0 min 0,000 mm 0,0 UV-I 0 W/m -0,5 C 0,3 C 4,8 km/h (1 Bft) 100,00 %
11.02.2016 19:59 0,3 C 94 % 1007,5 hPa 0,0 l/m 2,9 km/h (1 Bft) S-SO 167 0 min 0,000 mm 0,0 UV-I 0 W/m -0,5 C 0,3 C 4,8 km/h (1 Bft) 100,00 %
11.02.2016 20:00 0,2 C 94 % 1007,5 hPa 0,0 l/m 4,3 km/h (1 Bft) S-SO 168 0 min 0,000 mm 0,0 UV-I 0 W/m -0,6 C 0,2 C 6,4 km/h (2 Bft) 100,00 %
11.02.2016 20:01 0,2 C 93 % 1007,5 hPa 0,0 l/m 4,5 km/h (1 Bft) S 169 0 min 0,000 mm 0,0 UV-I 0 W/m -0,8 C 0,2 C 6,4 km/h (2 Bft) 96,55 %
11.02.2016 20:02 0,1 C 93 % 1007,5 hPa 0,0 l/m 4,3 km/h (1 Bft) S 186 0 min 0,000 mm 0,0 UV-I 0 W/m -0,9 C 0,1 C 4,8 km/h (1 Bft) 100,00 %
11.02.2016 20:03 0,1 C 93 % 1007,5 hPa 0,0 l/m 3,8 km/h (1 Bft) S 186 0 min 0,000 mm 0,0 UV-I 0 W/m -0,9 C 0,1 C 4,8 km/h (1 Bft) 100,00 %
11.02.2016 20:04 0,0 C 94 % 1007,5 hPa 0,0 l/m 3,6 km/h (1 Bft) S 186 0 min 0,000 mm 0,0 UV-I 0 W/m -0,8 C 0,0 C 4,8 km/h (1 Bft) 100,00 %
11.02.2016 20:05 0,0 C 94 % 1007,5 hPa 0,0 l/m 5,1 km/h (1 Bft) S-SO 166 0 min 0,000 mm 0,0 UV-I 0 W/m -0,8 C 0,0 C 6,4 km/h (2 Bft) 100,00 %
11.02.2016 20:06 0,0 C 94 % 1007,5 hPa 0,0 l/m 5,2 km/h (1 Bft) S-SO 167 0 min 0,000 mm 0,0 UV-I 0 W/m -0,8 C 0,0 C 6,4 km/h (2 Bft) 100,00 %
11.02.2016 20:07 0,0 C 94 % 1007,5 hPa 0,0 l/m 4,0 km/h (1 Bft) S 174 0 min 0,000 mm 0,0 UV-I 0 W/m -0,8 C 0,0 C 6,4 km/h (2 Bft) 96,15 %
11.02.2016 20:08 0,1 C 94 % 1007,5 hPa 0,0 l/m 1,9 km/h (1 Bft) S 174 0 min 0,000 mm 0,0 UV-I 0 W/m -0,7 C 0,1 C 3,2 km/h (1 Bft) 100,00 %
11.02.2016 20:09 0,0 C 94 % 1007,4 hPa 0,0 l/m 2,0 km/h (1 Bft) S 174 0 min 0,000 mm 0,0 UV-I 0 W/m -0,8 C 0,0 C 3,2 km/h (1 Bft) 95,65 %
11.02.2016 20:10 0,0 C 94 % 1007,4 hPa 0,0 l/m 2,5 km/h (1 Bft) S 174 0 min 0,000 mm 0,0 UV-I 0 W/m -0,8 C 0,0 C 3,2 km/h (1 Bft) 100,00 %
11.02.2016 20:11 -0,1 C 94 % 1007,5 hPa 0,0 l/m 3,0 km/h (1 Bft) S 174 0 min 0,000 mm 0,0 UV-I 0 W/m -0,9 C -0,1 C 4,8 km/h (1 Bft) 100,00 %
11.02.2016 20:12 -0,1 C 94 % 1007,4 hPa 0,0 l/m 3,3 km/h (1 Bft) S 174 0 min 0,000 mm 0,0 UV-I 0 W/m -0,9 C -0,1 C 4,8 km/h (1 Bft) 95,83 %
11.02.2016 20:13 -0,1 C 94 % 1007,4 hPa 0,0 l/m 2,2 km/h (1 Bft) S 174 0 min 0,000 mm 0,0 UV-I 0 W/m -0,9 C -0,1 C 3,2 km/h (1 Bft) 91,30 %
11.02.2016 20:14 -0,1 C 94 % 1007,4 hPa 0,0 l/m 2,6 km/h (1 Bft) S 174 0 min 0,000 mm 0,0 UV-I 0 W/m -0,9 C -0,1 C 3,2 km/h (1 Bft) 100,00 %
11.02.2016 20:15 -0,2 C 93 % 1007,4 hPa 0,0 l/m 2,5 km/h (1 Bft) S 174 0 min 0,000 mm 0,0 UV-I 0 W/m -1,2 C -0,2 C 3,2 km/h (1 Bft) 100,00 %
11.02.2016 20:16 -0,2 C 93 % 1007,4 hPa 0,0 l/m 1,4 km/h (1 Bft) S 174 0 min 0,000 mm 0,0 UV-I 0 W/m -1,2 C -0,2 C 3,2 km/h (1 Bft) 100,00 %
11.02.2016 20:17 -0,2 C 93 % 1007,4 hPa 0,0 l/m 1,9 km/h (1 Bft) S 174 0 min 0,000 mm 0,0 UV-I 0 W/m -1,2 C -0,2 C 3,2 km/h (1 Bft) 100,00 %
11.02.2016 20:18 -0,2 C 93 % 1007,4 hPa 0,0 l/m 1,5 km/h (1 Bft) S 174 0 min 0,000 mm 0,0 UV-I 0 W/m -1,2 C -0,2 C 3,2 km/h (1 Bft) 100,00 %
11.02.2016 20:19 -0,2 C 93 % 1007,3 hPa 0,0 l/m 1,9 km/h (1 Bft) S 174 0 min 0,000 mm 0,0 UV-I 0 W/m -1,2 C -0,2 C 3,2 km/h (1 Bft) 100,00 %
11.02.2016 20:20 -0,2 C 93 % 1007,4 hPa 0,0 l/m 2,1 km/h (1 Bft) S 174 0 min 0,000 mm 0,0 UV-I 0 W/m -1,2 C -0,2 C 3,2 km/h (1 Bft) 100,00 %
11.02.2016 20:21 -0,2 C 93 % 1007,3 hPa 0,0 l/m 2,1 km/h (1 Bft) S 174 0 min 0,000 mm 0,0 UV-I 0 W/m -1,2 C -0,2 C 3,2 km/h (1 Bft) 100,00 %
11.02.2016 20:22 -0,1 C 93 % 1007,3 hPa 0,0 l/m 1,9 km/h (1 Bft) S 174 0 min 0,000 mm 0,0 UV-I 0 W/m -1,1 C -0,1 C 3,2 km/h (1 Bft) 100,00 %
11.02.2016 20:23 -0,1 C 93 % 1007,3 hPa 0,0 l/m 2,7 km/h (1 Bft) S 174 0 min 0,000 mm 0,0 UV-I 0 W/m -1,1 C -0,1 C 3,2 km/h (1 Bft) 100,00 %
11.02.2016 20:24 -0,1 C 92 % 1007,3 hPa 0,0 l/m 1,5 km/h (1 Bft) S 174 0 min 0,000 mm 0,0 UV-I 0 W/m -1,2 C -0,1 C 3,2 km/h (1 Bft) 100,00 %
11.02.2016 20:25 -0,1 C 92 % 1007,3 hPa 0,0 l/m 1,9 km/h (1 Bft) S 174 0 min 0,000 mm 0,0 UV-I 0 W/m -1,2 C -0,1 C 3,2 km/h (1 Bft) 100,00 %
11.02.2016 20:26 -0,1 C 92 % 1007,3 hPa 0,0 l/m 1,6 km/h (1 Bft) S 174 0 min 0,000 mm 0,0 UV-I 0 W/m -1,2 C -0,1 C 3,2 km/h (1 Bft) 100,00 %
11.02.2016 20:27 -0,1 C 92 % 1007,2 hPa 0,0 l/m 1,8 km/h (1 Bft) S 174 0 min 0,000 mm 0,0 UV-I 0 W/m -1,2 C -0,1 C 3,2 km/h (1 Bft) 100,00 %
11.02.2016 20:28 -0,2 C 91 % 1007,2 hPa 0,0 l/m 1,8 km/h (1 Bft) S 174 0 min 0,000 mm 0,0 UV-I 0 W/m -1,5 C -0,2 C 3,2 km/h (1 Bft) 96,15 %
11.02.2016 20:29 -0,2 C 91 % 1007,2 hPa 0,0 l/m 2,4 km/h (1 Bft) S 174 0 min 0,000 mm 0,0 UV-I 0 W/m -1,5 C -0,2 C 4,8 km/h (1 Bft) 100,00 %
11.02.2016 20:30 -0,2 C 91 % 1007,3 hPa 0,0 l/m 2,4 km/h (1 Bft) S 174 0 min 0,000 mm 0,0 UV-I 0 W/m -1,5 C -0,2 C 3,2 km/h (1 Bft) 100,00 %
11.02.2016 20:31 -0,2 C 92 % 1007,3 hPa 0,0 l/m 2,2 km/h (1 Bft) S 174 0 min 0,000 mm 0,0 UV-I 0 W/m -1,3 C -0,2 C 3,2 km/h (1 Bft) 95,83 %
11.02.2016 20:32 -0,2 C 92 % 1007,2 hPa 0,0 l/m 1,9 km/h (1 Bft) S 174 0 min 0,000 mm 0,0 UV-I 0 W/m -1,3 C -0,2 C 3,2 km/h (1 Bft) 100,00 %
11.02.2016 20:33 -0,2 C 92 % 1007,2 hPa 0,0 l/m 0,5 km/h (0 Bft) S 174 0 min 0,000 mm 0,0 UV-I 0 W/m -1,3 C -0,2 C 1,6 km/h (1 Bft) 100,00 %
11.02.2016 20:34 -0,2 C 92 % 1007,2 hPa 0,0 l/m 0,7 km/h (0 Bft) S 174 0 min 0,000 mm 0,0 UV-I 0 W/m -1,3 C -0,2 C 3,2 km/h (1 Bft) 96,30 %
11.02.2016 20:35 -0,2 C 91 % 1007,2 hPa 0,0 l/m 0,5 km/h (0 Bft) S 174 0 min 0,000 mm 0,0 UV-I 0 W/m -1,5 C -0,2 C 1,6 km/h (1 Bft) 100,00 %
11.02.2016 20:36 -0,1 C 91 % 1007,2 hPa 0,0 l/m 0,5 km/h (0 Bft) S 174 0 min 0,000 mm 0,0 UV-I 0 W/m -1,4 C -0,1 C 1,6 km/h (1 Bft) 100,00 %
11.02.2016 20:37 -0,1 C 91 % 1007,2 hPa 0,0 l/m 1,8 km/h (1 Bft) S 174 0 min 0,000 mm 0,0 UV-I 0 W/m -1,4 C -0,1 C 3,2 km/h (1 Bft) 100,00 %
11.02.2016 20:38 -0,1 C 91 % 1007,2 hPa 0,0 l/m 3,6 km/h (1 Bft) S 174 0 min 0,000 mm 0,0 UV-I 0 W/m -1,4 C -0,1 C 4,8 km/h (1 Bft) 96,30 %
11.02.2016 20:39 -0,1 C 90 % 1007,2 hPa 0,0 l/m 2,7 km/h (1 Bft) S 174 0 min 0,000 mm 0,0 UV-I 0 W/m -1,5 C -0,1 C 3,2 km/h (1 Bft) 96,15 %
11.02.2016 20:40 -0,1 C 90 % 1007,2 hPa 0,0 l/m 3,2 km/h (1 Bft) S 174 0 min 0,000 mm 0,0 UV-I 0 W/m -1,5 C -0,1 C 4,8 km/h (1 Bft) 100,00 %
11.02.2016 20:41 -0,1 C 90 % 1007,2 hPa 0,0 l/m 2,4 km/h (1 Bft) S 174 0 min 0,000 mm 0,0 UV-I 0 W/m -1,5 C -0,1 C 4,8 km/h (1 Bft) 97,37 %
11.02.2016 20:42 -0,1 C 90 % 1007,1 hPa 0,0 l/m 1,4 km/h (1 Bft) S 174 0 min 0,000 mm 0,0 UV-I 0 W/m -1,5 C -0,1 C 3,2 km/h (1 Bft) 100,00 %
11.02.2016 20:43 -0,1 C 90 % 1007,2 hPa 0,0 l/m 0,3 km/h (0 Bft) S 174 0 min 0,000 mm 0,0 UV-I 0 W/m -1,5 C -0,1 C 1,6 km/h (1 Bft) 100,00 %
11.02.2016 20:44 -0,1 C 90 % 1007,3 hPa 0,0 l/m 0,0 km/h (0 Bft) S 174 0 min 0,000 mm 0,0 UV-I 0 W/m -1,5 C -0,1 C 0,0 km/h (0 Bft) 100,00 %
11.02.2016 20:45 -0,1 C 89 % 1007,2 hPa 0,0 l/m 0,0 km/h (0 Bft) S 174 0 min 0,000 mm 0,0 UV-I 0 W/m -1,7 C -0,1 C 0,0 km/h (0 Bft) 100,00 %
11.02.2016 20:46 -0,1 C 90 % 1007,2 hPa 0,0 l/m 0,0 km/h (0 Bft) S 174 0 min 0,000 mm 0,0 UV-I 0 W/m -1,5 C -0,1 C 0,0 km/h (0 Bft) 100,00 %
11.02.2016 20:47 0,0 C 89 % 1007,3 hPa 0,0 l/m 1,3 km/h (1 Bft) S 174 0 min 0,000 mm 0,0 UV-I 0 W/m -1,6 C 0,0 C 3,2 km/h (1 Bft) 100,00 %
11.02.2016 20:48 -0,1 C 89 % 1007,3 hPa 0,0 l/m 1,7 km/h (1 Bft) S 174 0 min 0,000 mm 0,0 UV-I 0 W/m -1,7 C -0,1 C 3,2 km/h (1 Bft) 100,00 %
11.02.2016 20:49 -0,1 C 90 % 1007,3 hPa 0,0 l/m 2,5 km/h (1 Bft) S 174 0 min 0,000 mm 0,0 UV-I 0 W/m -1,5 C -0,1 C 3,2 km/h (1 Bft) 100,00 %
11.02.2016 20:50 -0,2 C 90 % 1007,3 hPa 0,0 l/m 2,1 km/h (1 Bft) S 174 0 min 0,000 mm 0,0 UV-I 0 W/m -1,6 C -0,2 C 3,2 km/h (1 Bft) 96,30 %
11.02.2016 20:51 -0,2 C 90 % 1007,2 hPa 0,0 l/m 2,2 km/h (1 Bft) S 174 0 min 0,000 mm 0,0 UV-I 0 W/m -1,6 C -0,2 C 3,2 km/h (1 Bft) 100,00 %
11.02.2016 20:52 -0,3 C 91 % 1007,2 hPa 0,0 l/m 1,9 km/h (1 Bft) S 174 0 min 0,000 mm 0,0 UV-I 0 W/m -1,6 C -0,3 C 3,2 km/h (1 Bft) 100,00 %
11.02.2016 20:53 -0,4 C 91 % 1007,2 hPa 0,0 l/m 1,1 km/h (1 Bft) S 174 0 min 0,000 mm 0,0 UV-I 0 W/m -1,7 C -0,4 C 3,2 km/h (1 Bft) 100,00 %
11.02.2016 20:54 -0,5 C 91 % 1007,2 hPa 0,0 l/m 0,5 km/h (0 Bft) S 174 0 min 0,000 mm 0,0 UV-I 0 W/m -1,8 C -0,5 C 1,6 km/h (1 Bft) 94,44 %
11.02.2016 20:55 -0,6 C 91 % 1007,2 hPa 0,0 l/m 0,3 km/h (0 Bft) S 174 0 min 0,000 mm 0,0 UV-I 0 W/m -1,9 C -0,6 C 1,6 km/h (1 Bft) 100,00 %
11.02.2016 20:56 -0,7 C 92 % 1007,2 hPa 0,0 l/m 2,1 km/h (1 Bft) S 174 0 min 0,000 mm 0,0 UV-I 0 W/m -1,8 C -0,7 C 3,2 km/h (1 Bft) 95,65 %
11.02.2016 20:57 -0,8 C 92 % 1007,2 hPa 0,0 l/m 2,3 km/h (1 Bft) S 174 0 min 0,000 mm 0,0 UV-I 0 W/m -1,9 C -0,8 C 3,2 km/h (1 Bft) 100,00 %
11.02.2016 20:58 -0,8 C 93 % 1007,2 hPa 0,0 l/m 3,1 km/h (1 Bft) S 174 0 min 0,000 mm 0,0 UV-I 0 W/m -1,8 C -0,8 C 3,2 km/h (1 Bft) 100,00 %
11.02.2016 20:59 -0,8 C 93 % 1007,2 hPa 0,0 l/m 2,0 km/h (1 Bft) S 174 0 min 0,000 mm 0,0 UV-I 0 W/m -1,8 C -0,8 C 3,2 km/h (1 Bft) 100,00 %
11.02.2016 21:00 -0,8 C 93 % 1007,2 hPa 0,0 l/m 2,0 km/h (1 Bft) S 174 0 min 0,000 mm 0,0 UV-I 0 W/m -1,8 C -0,8 C 3,2 km/h (1 Bft) 100,00 %
11.02.2016 21:01 -0,8 C 93 % 1007,2 hPa 0,0 l/m 1,0 km/h (0 Bft) S 174 0 min 0,000 mm 0,0 UV-I 0 W/m -1,8 C -0,8 C 1,6 km/h (1 Bft) 100,00 %
11.02.2016 21:02 -0,8 C 93 % 1007,2 hPa 0,0 l/m 1,0 km/h (0 Bft) S 174 0 min 0,000 mm 0,0 UV-I 0 W/m -1,8 C -0,8 C 1,6 km/h (1 Bft) 100,00 %
11.02.2016 21:03 -0,8 C 93 % 1007,2 hPa 0,0 l/m 1,8 km/h (1 Bft) S 174 0 min 0,000 mm 0,0 UV-I 0 W/m -1,8 C -0,8 C 3,2 km/h (1 Bft) 100,00 %
11.02.2016 21:04 -0,8 C 94 % 1007,2 hPa 0,0 l/m 3,0 km/h (1 Bft) S 174 0 min 0,000 mm 0,0 UV-I 0 W/m -1,6 C -0,8 C 3,2 km/h (1 Bft) 100,00 %
11.02.2016 21:05 -0,8 C 94 % 1007,2 hPa 0,0 l/m 2,2 km/h (1 Bft) S 174 0 min 0,000 mm 0,0 UV-I 0 W/m -1,6 C -0,8 C 3,2 km/h (1 Bft) 100,00 %
11.02.2016 21:06 -0,8 C 94 % 1007,2 hPa 0,0 l/m 4,1 km/h (1 Bft) O 94 0 min 0,000 mm 0,0 UV-I 0 W/m -1,6 C -0,8 C 6,4 km/h (2 Bft) 100,00 %
11.02.2016 21:07 -0,8 C 93 % 1007,3 hPa 0,0 l/m 5,3 km/h (1 Bft) O-NO 78 0 min 0,000 mm 0,0 UV-I 0 W/m -1,8 C -0,8 C 6,4 km/h (2 Bft) 100,00 %
11.02.2016 21:08 -0,7 C 93 % 1007,3 hPa 0,0 l/m 5,8 km/h (2 Bft) O-NO 71 0 min 0,000 mm 0,0 UV-I 0 W/m -1,7 C -0,7 C 6,4 km/h (2 Bft) 100,00 %
11.02.2016 21:09 -0,7 C 94 % 1007,3 hPa 0,0 l/m 5,7 km/h (1 Bft) O-NO 57 0 min 0,000 mm 0,0 UV-I 0 W/m -1,5 C -0,7 C 8,0 km/h (2 Bft) 100,00 %
11.02.2016 21:10 -0,7 C 94 % 1007,3 hPa 0,0 l/m 5,3 km/h (1 Bft) NO 51 0 min 0,000 mm 0,0 UV-I 0 W/m -1,5 C -0,7 C 6,4 km/h (2 Bft) 100,00 %
11.02.2016 21:11 -0,6 C 94 % 1007,3 hPa 0,0 l/m 4,4 km/h (1 Bft) NO 50 0 min 0,000 mm 0,0 UV-I 0 W/m -1,4 C -0,6 C 4,8 km/h (1 Bft) 100,00 %
11.02.2016 21:12 -0,6 C 94 % 1007,3 hPa 0,0 l/m 4,0 km/h (1 Bft) NO 50 0 min 0,000 mm 0,0 UV-I 0 W/m -1,4 C -0,6 C 4,8 km/h (1 Bft) 100,00 %
11.02.2016 21:13 -0,6 C 94 % 1007,4 hPa 0,0 l/m 4,1 km/h (1 Bft) NO 50 0 min 0,000 mm 0,0 UV-I 0 W/m -1,4 C -0,6 C 4,8 km/h (1 Bft) 100,00 %
11.02.2016 21:14 -0,6 C 94 % 1007,4 hPa 0,0 l/m 4,4 km/h (1 Bft) NO 49 0 min 0,000 mm 0,0 UV-I 0 W/m -1,4 C -0,6 C 4,8 km/h (1 Bft) 100,00 %
11.02.2016 21:15 -0,6 C 94 % 1007,4 hPa 0,0 l/m 4,6 km/h (1 Bft) NO 49 0 min 0,000 mm 0,0 UV-I 0 W/m -1,4 C -0,6 C 4,8 km/h (1 Bft) 100,00 %
11.02.2016 21:16 -0,6 C 94 % 1007,4 hPa 0,0 l/m 4,7 km/h (1 Bft) NO 49 0 min 0,000 mm 0,0 UV-I 0 W/m -1,4 C -0,6 C 6,4 km/h (2 Bft) 100,00 %
11.02.2016 21:17 -0,6 C 94 % 1007,5 hPa 0,0 l/m 4,6 km/h (1 Bft) NO 48 0 min 0,000 mm 0,0 UV-I 0 W/m -1,4 C -0,6 C 4,8 km/h (1 Bft) 96,55 %
11.02.2016 21:18 -0,6 C 94 % 1007,5 hPa 0,0 l/m 3,1 km/h (1 Bft) NO 48 0 min 0,000 mm 0,0 UV-I 0 W/m -1,4 C -0,6 C 4,8 km/h (1 Bft) 100,00 %
11.02.2016 21:19 -0,6 C 94 % 1007,5 hPa 0,0 l/m 2,6 km/h (1 Bft) NO 48 0 min 0,000 mm 0,0 UV-I 0 W/m -1,4 C -0,6 C 3,2 km/h (1 Bft) 96,15 %
11.02.2016 21:20 -0,6 C 94 % 1007,5 hPa 0,0 l/m 2,3 km/h (1 Bft) NO 48 0 min 0,000 mm 0,0 UV-I 0 W/m -1,4 C -0,6 C 3,2 km/h (1 Bft) 100,00 %
11.02.2016 21:21 -0,6 C 94 % 1007,5 hPa 0,0 l/m 1,5 km/h (1 Bft) NO 48 0 min 0,000 mm 0,0 UV-I 0 W/m -1,4 C -0,6 C 1,6 km/h (1 Bft) 95,65 %
11.02.2016 21:22 -0,6 C 94 % 1007,5 hPa 0,0 l/m 1,7 km/h (1 Bft) NO 48 0 min 0,000 mm 0,0 UV-I 0 W/m -1,4 C -0,6 C 3,2 km/h (1 Bft) 100,00 %
11.02.2016 21:23 -0,6 C 94 % 1007,5 hPa 0,0 l/m 1,9 km/h (1 Bft) NO 48 0 min 0,000 mm 0,0 UV-I 0 W/m -1,4 C -0,6 C 3,2 km/h (1 Bft) 95,65 %
11.02.2016 21:24 -0,6 C 94 % 1007,5 hPa 0,0 l/m 1,6 km/h (1 Bft) NO 48 0 min 0,000 mm 0,0 UV-I 0 W/m -1,4 C -0,6 C 1,6 km/h (1 Bft) 96,30 %
11.02.2016 21:25 -0,5 C 95 % 1007,4 hPa 0,0 l/m 1,3 km/h (1 Bft) NO 48 0 min 0,000 mm 0,0 UV-I 0 W/m -1,2 C -0,5 C 1,6 km/h (1 Bft) 95,65 %
11.02.2016 21:26 -0,6 C 94 % 1007,5 hPa 0,0 l/m 0,3 km/h (0 Bft) NO 48 0 min 0,000 mm 0,0 UV-I 0 W/m -1,4 C -0,6 C 1,6 km/h (1 Bft) 96,30 %
11.02.2016 21:27 -0,5 C 94 % 1007,5 hPa 0,0 l/m 0,0 km/h (0 Bft) NO 48 0 min 0,000 mm 0,0 UV-I 0 W/m -1,3 C -0,5 C 0,0 km/h (0 Bft) 94,12 %
11.02.2016 21:28 -0,6 C 94 % 1007,5 hPa 0,0 l/m 0,3 km/h (0 Bft) NO 48 0 min 0,000 mm 0,0 UV-I 0 W/m -1,4 C -0,6 C 1,6 km/h (1 Bft) 96,30 %
11.02.2016 21:29 -0,6 C 94 % 1007,4 hPa 0,0 l/m 0,7 km/h (0 Bft) NO 48 0 min 0,000 mm 0,0 UV-I 0 W/m -1,4 C -0,6 C 1,6 km/h (1 Bft) 100,00 %
11.02.2016 21:30 -0,6 C 94 % 1007,4 hPa 0,0 l/m 1,8 km/h (1 Bft) NO 48 0 min 0,000 mm 0,0 UV-I 0 W/m -1,4 C -0,6 C 3,2 km/h (1 Bft) 91,67 %
11.02.2016 21:31 -0,6 C 94 % 1007,4 hPa 0,0 l/m 1,0 km/h (0 Bft) NO 48 0 min 0,000 mm 0,0 UV-I 0 W/m -1,4 C -0,6 C 1,6 km/h (1 Bft) 100,00 %
11.02.2016 21:32 -0,6 C 94 % 1007,5 hPa 0,0 l/m 0,0 km/h (0 Bft) NO 48 0 min 0,000 mm 0,0 UV-I 0 W/m -1,4 C -0,6 C 0,0 km/h (0 Bft) 96,15 %
11.02.2016 21:33 -0,6 C 94 % 1007,5 hPa 0,0 l/m 0,5 km/h (0 Bft) NO 48 0 min 0,000 mm 0,0 UV-I 0 W/m -1,4 C -0,6 C 1,6 km/h (1 Bft) 100,00 %
11.02.2016 21:34 -0,6 C 94 % 1007,5 hPa 0,0 l/m 1,1 km/h (1 Bft) NO 48 0 min 0,000 mm 0,0 UV-I 0 W/m -1,4 C -0,6 C 1,6 km/h (1 Bft) 96,15 %
11.02.2016 21:35 -0,7 C 94 % 1007,5 hPa 0,0 l/m 0,1 km/h (0 Bft) NO 48 0 min 0,000 mm 0,0 UV-I 0 W/m -1,5 C -0,7 C 1,6 km/h (1 Bft) 100,00 %
11.02.2016 21:36 -0,7 C 94 % 1007,5 hPa 0,0 l/m 0,1 km/h (0 Bft) NO 48 0 min 0,000 mm 0,0 UV-I 0 W/m -1,5 C -0,7 C 1,6 km/h (1 Bft) 95,65 %
11.02.2016 21:37 -0,7 C 94 % 1007,5 hPa 0,0 l/m 0,0 km/h (0 Bft) NO 48 0 min 0,000 mm 0,0 UV-I 0 W/m -1,5 C -0,7 C 0,0 km/h (0 Bft) 95,83 %
11.02.2016 21:38 -0,8 C 94 % 1007,5 hPa 0,0 l/m 0,1 km/h (0 Bft) NO 48 0 min 0,000 mm 0,0 UV-I 0 W/m -1,6 C -0,8 C 1,6 km/h (1 Bft) 96,15 %
11.02.2016 21:39 -0,8 C 94 % 1007,5 hPa 0,0 l/m 0,0 km/h (0 Bft) NO 48 0 min 0,000 mm 0,0 UV-I 0 W/m -1,6 C -0,8 C 0,0 km/h (0 Bft) 95,83 %
11.02.2016 21:40 -0,9 C 94 % 1007,5 hPa 0,0 l/m 0,8 km/h (0 Bft) NO 48 0 min 0,000 mm 0,0 UV-I 0 W/m -1,7 C -0,9 C 1,6 km/h (1 Bft) 96,15 %
11.02.2016 21:41 -0,9 C 94 % 1007,5 hPa 0,0 l/m 0,9 km/h (0 Bft) NO 48 0 min 0,000 mm 0,0 UV-I 0 W/m -1,7 C -0,9 C 1,6 km/h (1 Bft) 96,30 %
11.02.2016 21:42 -0,9 C 94 % 1007,5 hPa 0,0 l/m 1,2 km/h (1 Bft) NO 48 0 min 0,000 mm 0,0 UV-I 0 W/m -1,7 C -0,9 C 1,6 km/h (1 Bft) 100,00 %
11.02.2016 21:43 -0,9 C 95 % 1007,5 hPa 0,0 l/m 0,4 km/h (0 Bft) NO 48 0 min 0,000 mm 0,0 UV-I 0 W/m -1,6 C -0,9 C 1,6 km/h (1 Bft) 96,30 %
11.02.2016 21:44 -0,9 C 94 % 1007,5 hPa 0,0 l/m 0,1 km/h (0 Bft) NO 48 0 min 0,000 mm 0,0 UV-I 0 W/m -1,7 C -0,9 C 1,6 km/h (1 Bft) 95,65 %
11.02.2016 21:45 -1,0 C 94 % 1007,5 hPa 0,0 l/m 0,1 km/h (0 Bft) NO 48 0 min 0,000 mm 0,0 UV-I 0 W/m -1,8 C -1,0 C 1,6 km/h (1 Bft) 100,00 %
11.02.2016 21:46 -1,1 C 94 % 1007,5 hPa 0,0 l/m 0,1 km/h (0 Bft) NO 48 0 min 0,000 mm 0,0 UV-I 0 W/m -1,9 C -1,1 C 1,6 km/h (1 Bft) 95,65 %
11.02.2016 21:47 -1,2 C 94 % 1007,5 hPa 0,0 l/m 0,0 km/h (0 Bft) NO 48 0 min 0,000 mm 0,0 UV-I 0 W/m -2,0 C -1,2 C 0,0 km/h (0 Bft) 100,00 %
11.02.2016 21:48 -1,2 C 94 % 1007,5 hPa 0,0 l/m 0,0 km/h (0 Bft) NO 48 0 min 0,000 mm 0,0 UV-I 0 W/m -2,0 C -1,2 C 0,0 km/h (0 Bft) 96,55 %
11.02.2016 21:49 -1,3 C 94 % 1007,5 hPa 0,0 l/m 0,0 km/h (0 Bft) NO 48 0 min 0,000 mm 0,0 UV-I 0 W/m -2,1 C -1,3 C 0,0 km/h (0 Bft) 95,83 %
11.02.2016 21:50 -1,2 C 95 % 1007,5 hPa 0,0 l/m 0,0 km/h (0 Bft) NO 48 0 min 0,000 mm 0,0 UV-I 0 W/m -1,9 C -1,2 C 0,0 km/h (0 Bft) 95,65 %
11.02.2016 21:51 -1,2 C 95 % 1007,5 hPa 0,0 l/m 0,1 km/h (0 Bft) NO 48 0 min 0,000 mm 0,0 UV-I 0 W/m -1,9 C -1,2 C 1,6 km/h (1 Bft) 100,00 %
11.02.2016 21:52 -1,2 C 95 % 1007,5 hPa 0,0 l/m 0,3 km/h (0 Bft) NO 48 0 min 0,000 mm 0,0 UV-I 0 W/m -1,9 C -1,2 C 1,6 km/h (1 Bft) 96,30 %
11.02.2016 21:53 -1,1 C 95 % 1007,5 hPa 0,0 l/m 0,1 km/h (0 Bft) NO 48 0 min 0,000 mm 0,0 UV-I 0 W/m -1,8 C -1,1 C 1,6 km/h (1 Bft) 95,65 %
11.02.2016 21:54 -1,1 C 95 % 1007,5 hPa 0,0 l/m 0,0 km/h (0 Bft) NO 48 0 min 0,000 mm 0,0 UV-I 0 W/m -1,8 C -1,1 C 0,0 km/h (0 Bft) 91,67 %
11.02.2016 21:55 -1,0 C 95 % 1007,5 hPa 0,0 l/m 0,1 km/h (0 Bft) NO 48 0 min 0,000 mm 0,0 UV-I 0 W/m -1,7 C -1,0 C 1,6 km/h (1 Bft) 96,15 %
11.02.2016 21:56 -0,9 C 95 % 1007,5 hPa 0,0 l/m 0,0 km/h (0 Bft) NO 48 0 min 0,000 mm 0,0 UV-I 0 W/m -1,6 C -0,9 C 0,0 km/h (0 Bft) 100,00 %
11.02.2016 21:57 -0,9 C 95 % 1007,5 hPa 0,0 l/m 0,0 km/h (0 Bft) NO 48 0 min 0,000 mm 0,0 UV-I 0 W/m -1,6 C -0,9 C 0,0 km/h (0 Bft) 95,65 %
11.02.2016 21:58 -0,9 C 95 % 1007,5 hPa 0,0 l/m 0,0 km/h (0 Bft) NO 48 0 min 0,000 mm 0,0 UV-I 0 W/m -1,6 C -0,9 C 0,0 km/h (0 Bft) 100,00 %
11.02.2016 21:59 -0,9 C 95 % 1007,5 hPa 0,0 l/m 0,0 km/h (0 Bft) NO 48 0 min 0,000 mm 0,0 UV-I 0 W/m -1,6 C -0,9 C 0,0 km/h (0 Bft) 100,00 %
11.02.2016 22:00 -0,9 C 95 % 1007,5 hPa 0,0 l/m 0,0 km/h (0 Bft) NO 48 0 min 0,000 mm 0,0 UV-I 0 W/m -1,6 C -0,9 C 0,0 km/h (0 Bft) 100,00 %
11.02.2016 22:01 -0,9 C 95 % 1007,5 hPa 0,0 l/m 0,0 km/h (0 Bft) NO 48 0 min 0,000 mm 0,0 UV-I 0 W/m -1,6 C -0,9 C 0,0 km/h (0 Bft) 96,55 %
11.02.2016 22:02 -1,0 C 95 % 1007,5 hPa 0,0 l/m 0,0 km/h (0 Bft) NO 48 0 min 0,000 mm 0,0 UV-I 0 W/m -1,7 C -1,0 C 0,0 km/h (0 Bft) 100,00 %
11.02.2016 22:03 -1,1 C 94 % 1007,5 hPa 0,0 l/m 0,0 km/h (0 Bft) NO 48 0 min 0,000 mm 0,0 UV-I 0 W/m -1,9 C -1,1 C 0,0 km/h (0 Bft) 100,00 %
11.02.2016 22:04 -1,1 C 94 % 1007,5 hPa 0,0 l/m 0,0 km/h (0 Bft) NO 48 0 min 0,000 mm 0,0 UV-I 0 W/m -1,9 C -1,1 C 0,0 km/h (0 Bft) 100,00 %
11.02.2016 22:05 -1,1 C 94 % 1007,5 hPa 0,0 l/m 0,2 km/h (0 Bft) NO 48 0 min 0,000 mm 0,0 UV-I 0 W/m -1,9 C -1,1 C 1,6 km/h (1 Bft) 100,00 %
11.02.2016 22:06 -1,2 C 94 % 1007,5 hPa 0,0 l/m 1,5 km/h (1 Bft) NO 48 0 min 0,000 mm 0,0 UV-I 0 W/m -2,0 C -1,2 C 1,6 km/h (1 Bft) 100,00 %
11.02.2016 22:07 -1,2 C 95 % 1007,5 hPa 0,0 l/m 1,1 km/h (1 Bft) NO 48 0 min 0,000 mm 0,0 UV-I 0 W/m -1,9 C -1,2 C 1,6 km/h (1 Bft) 91,30 %
11.02.2016 22:08 -1,2 C 95 % 1007,5 hPa 0,0 l/m 1,2 km/h (1 Bft) NO 48 0 min 0,000 mm 0,0 UV-I 0 W/m -1,9 C -1,2 C 1,6 km/h (1 Bft) 100,00 %
11.02.2016 22:09 -1,2 C 95 % 1007,5 hPa 0,0 l/m 0,4 km/h (0 Bft) NO 48 0 min 0,000 mm 0,0 UV-I 0 W/m -1,9 C -1,2 C 1,6 km/h (1 Bft) 100,00 %
11.02.2016 22:10 -1,3 C 95 % 1007,4 hPa 0,0 l/m 0,0 km/h (0 Bft) NO 48 0 min 0,000 mm 0,0 UV-I 0 W/m -2,0 C -1,3 C 0,0 km/h (0 Bft) 95,83 %
11.02.2016 22:11 -1,3 C 95 % 1007,4 hPa 0,0 l/m 0,1 km/h (0 Bft) NO 48 0 min 0,000 mm 0,0 UV-I 0 W/m -2,0 C -1,3 C 1,6 km/h (1 Bft) 100,00 %
11.02.2016 22:12 -1,3 C 95 % 1007,5 hPa 0,0 l/m 0,1 km/h (0 Bft) NO 48 0 min 0,000 mm 0,0 UV-I 0 W/m -2,0 C -1,3 C 1,6 km/h (1 Bft) 100,00 %
11.02.2016 22:13 -1,3 C 95 % 1007,4 hPa 0,0 l/m 0,4 km/h (0 Bft) NO 48 0 min 0,000 mm 0,0 UV-I 0 W/m -2,0 C -1,3 C 1,6 km/h (1 Bft) 100,00 %
11.02.2016 22:14 -1,3 C 95 % 1007,4 hPa 0,0 l/m 0,7 km/h (0 Bft) NO 48 0 min 0,000 mm 0,0 UV-I 0 W/m -2,0 C -1,3 C 1,6 km/h (1 Bft) 96,30 %
11.02.2016 22:15 -1,3 C 95 % 1007,3 hPa 0,0 l/m 0,3 km/h (0 Bft) NO 48 0 min 0,000 mm 0,0 UV-I 0 W/m -2,0 C -1,3 C 1,6 km/h (1 Bft) 100,00 %
11.02.2016 22:16 -1,3 C 95 % 1007,4 hPa 0,0 l/m 0,2 km/h (0 Bft) NO 48 0 min 0,000 mm 0,0 UV-I 0 W/m -2,0 C -1,3 C 1,6 km/h (1 Bft) 100,00 %
11.02.2016 22:17 -1,3 C 95 % 1007,4 hPa 0,0 l/m 0,2 km/h (0 Bft) NO 48 0 min 0,000 mm 0,0 UV-I 0 W/m -2,0 C -1,3 C 1,6 km/h (1 Bft) 100,00 %
11.02.2016 22:18 -1,3 C 95 % 1007,4 hPa 0,0 l/m 0,1 km/h (0 Bft) NO 48 0 min 0,000 mm 0,0 UV-I 0 W/m -2,0 C -1,3 C 1,6 km/h (1 Bft) 100,00 %
11.02.2016 22:19 -1,4 C 95 % 1007,4 hPa 0,0 l/m 0,0 km/h (0 Bft) NO 48 0 min 0,000 mm 0,0 UV-I 0 W/m -2,1 C -1,4 C 0,0 km/h (0 Bft) 100,00 %
11.02.2016 22:20 -1,4 C 95 % 1007,5 hPa 0,0 l/m 0,0 km/h (0 Bft) NO 48 0 min 0,000 mm 0,0 UV-I 0 W/m -2,1 C -1,4 C 0,0 km/h (0 Bft) 100,00 %
11.02.2016 22:21 -1,4 C 95 % 1007,4 hPa 0,0 l/m 0,4 km/h (0 Bft) NO 48 0 min 0,000 mm 0,0 UV-I 0 W/m -2,1 C -1,4 C 1,6 km/h (1 Bft) 100,00 %
11.02.2016 22:22 -1,4 C 95 % 1007,5 hPa 0,0 l/m 0,0 km/h (0 Bft) NO 48 0 min 0,000 mm 0,0 UV-I 0 W/m -2,1 C -1,4 C 0,0 km/h (0 Bft) 100,00 %
11.02.2016 22:23 -1,3 C 95 % 1007,4 hPa 0,0 l/m 0,1 km/h (0 Bft) NO 48 0 min 0,000 mm 0,0 UV-I 0 W/m -2,0 C -1,3 C 1,6 km/h (1 Bft) 100,00 %
11.02.2016 22:24 -1,3 C 95 % 1007,4 hPa 0,0 l/m 0,0 km/h (0 Bft) NO 48 0 min 0,000 mm 0,0 UV-I 0 W/m -2,0 C -1,3 C 0,0 km/h (0 Bft) 95,65 %
11.02.2016 22:25 -1,3 C 95 % 1007,5 hPa 0,0 l/m 0,2 km/h (0 Bft) NO 48 0 min 0,000 mm 0,0 UV-I 0 W/m -2,0 C -1,3 C 1,6 km/h (1 Bft) 100,00 %
11.02.2016 22:26 -1,3 C 95 % 1007,5 hPa 0,0 l/m 0,2 km/h (0 Bft) NO 48 0 min 0,000 mm 0,0 UV-I 0 W/m -2,0 C -1,3 C 1,6 km/h (1 Bft) 100,00 %
11.02.2016 22:27 -1,3 C 95 % 1007,5 hPa 0,0 l/m 0,0 km/h (0 Bft) NO 48 0 min 0,000 mm 0,0 UV-I 0 W/m -2,0 C -1,3 C 0,0 km/h (0 Bft) 95,83 %
11.02.2016 22:28 -1,3 C 95 % 1007,5 hPa 0,0 l/m 0,0 km/h (0 Bft) NO 48 0 min 0,000 mm 0,0 UV-I 0 W/m -2,0 C -1,3 C 0,0 km/h (0 Bft) 100,00 %
11.02.2016 22:29 -1,3 C 95 % 1007,5 hPa 0,0 l/m 0,0 km/h (0 Bft) NO 48 0 min 0,000 mm 0,0 UV-I 0 W/m -2,0 C -1,3 C 0,0 km/h (0 Bft) 95,83 %
11.02.2016 22:30 -1,2 C 96 % 1007,5 hPa 0,0 l/m 0,0 km/h (0 Bft) NO 48 0 min 0,000 mm 0,0 UV-I 0 W/m -1,8 C -1,2 C 0,0 km/h (0 Bft) 100,00 %
11.02.2016 22:31 -1,2 C 96 % 1007,5 hPa 0,0 l/m 0,2 km/h (0 Bft) NO 48 0 min 0,000 mm 0,0 UV-I 0 W/m -1,8 C -1,2 C 1,6 km/h (1 Bft) 100,00 %
11.02.2016 22:32 -1,2 C 95 % 1007,5 hPa 0,0 l/m 0,8 km/h (0 Bft) NO 48 0 min 0,000 mm 0,0 UV-I 0 W/m -1,9 C -1,2 C 1,6 km/h (1 Bft) 100,00 %
11.02.2016 22:33 -1,2 C 95 % 1007,5 hPa 0,0 l/m 0,0 km/h (0 Bft) NO 48 0 min 0,000 mm 0,0 UV-I 0 W/m -1,9 C -1,2 C 0,0 km/h (0 Bft) 100,00 %
11.02.2016 22:34 -1,2 C 95 % 1007,5 hPa 0,0 l/m 0,1 km/h (0 Bft) NO 48 0 min 0,000 mm 0,0 UV-I 0 W/m -1,9 C -1,2 C 1,6 km/h (1 Bft) 100,00 %
11.02.2016 22:35 -1,2 C 95 % 1007,5 hPa 0,0 l/m 1,1 km/h (1 Bft) NO 48 0 min 0,000 mm 0,0 UV-I 0 W/m -1,9 C -1,2 C 3,2 km/h (1 Bft) 100,00 %
11.02.2016 22:36 -1,2 C 95 % 1007,5 hPa 0,0 l/m 0,4 km/h (0 Bft) NO 48 0 min 0,000 mm 0,0 UV-I 0 W/m -1,9 C -1,2 C 1,6 km/h (1 Bft) 100,00 %
11.02.2016 22:37 -1,2 C 95 % 1007,5 hPa 0,0 l/m 0,1 km/h (0 Bft) NO 48 0 min 0,000 mm 0,0 UV-I 0 W/m -1,9 C -1,2 C 1,6 km/h (1 Bft) 100,00 %
11.02.2016 22:38 -1,2 C 95 % 1007,5 hPa 0,0 l/m 0,1 km/h (0 Bft) NO 48 0 min 0,000 mm 0,0 UV-I 0 W/m -1,9 C -1,2 C 1,6 km/h (1 Bft) 100,00 %
11.02.2016 22:39 -1,2 C 95 % 1007,5 hPa 0,0 l/m 0,0 km/h (0 Bft) NO 48 0 min 0,000 mm 0,0 UV-I 0 W/m -1,9 C -1,2 C 0,0 km/h (0 Bft) 100,00 %
11.02.2016 22:40 -1,3 C 95 % 1007,4 hPa 0,0 l/m 1,1 km/h (1 Bft) NO 48 0 min 0,000 mm 0,0 UV-I 0 W/m -2,0 C -1,3 C 3,2 km/h (1 Bft) 95,83 %
11.02.2016 22:41 -1,3 C 95 % 1007,4 hPa 0,0 l/m 0,2 km/h (0 Bft) NO 48 0 min 0,000 mm 0,0 UV-I 0 W/m -2,0 C -1,3 C 1,6 km/h (1 Bft) 100,00 %
11.02.2016 22:42 -1,3 C 95 % 1007,4 hPa 0,0 l/m 0,6 km/h (0 Bft) NO 48 0 min 0,000 mm 0,0 UV-I 0 W/m -2,0 C -1,3 C 3,2 km/h (1 Bft) 100,00 %
11.02.2016 22:43 -1,2 C 95 % 1007,4 hPa 0,0 l/m 1,9 km/h (1 Bft) NO 48 0 min 0,000 mm 0,0 UV-I 0 W/m -1,9 C -1,2 C 3,2 km/h (1 Bft) 100,00 %
11.02.2016 22:44 -1,2 C 95 % 1007,4 hPa 0,0 l/m 1,9 km/h (1 Bft) NO 48 0 min 0,000 mm 0,0 UV-I 0 W/m -1,9 C -1,2 C 3,2 km/h (1 Bft) 88,89 %
11.02.2016 22:45 -1,2 C 95 % 1007,4 hPa 0,0 l/m 2,9 km/h (1 Bft) NO 48 0 min 0,000 mm 0,0 UV-I 0 W/m -1,9 C -1,2 C 4,8 km/h (1 Bft) 91,67 %
11.02.2016 22:46 -1,2 C 96 % 1007,3 hPa 0,0 l/m 2,0 km/h (1 Bft) NO 48 0 min 0,000 mm 0,0 UV-I 0 W/m -1,8 C -1,2 C 3,2 km/h (1 Bft) 100,00 %
11.02.2016 22:47 -1,1 C 96 % 1007,3 hPa 0,0 l/m 1,2 km/h (1 Bft) NO 48 0 min 0,000 mm 0,0 UV-I 0 W/m -1,7 C -1,1 C 1,6 km/h (1 Bft) 100,00 %
11.02.2016 22:48 -1,1 C 96 % 1007,4 hPa 0,0 l/m 2,3 km/h (1 Bft) NO 48 0 min 0,000 mm 0,0 UV-I 0 W/m -1,7 C -1,1 C 3,2 km/h (1 Bft) 96,30 %
11.02.2016 22:49 -1,0 C 96 % 1007,3 hPa 0,0 l/m 2,3 km/h (1 Bft) NO 48 0 min 0,000 mm 0,0 UV-I 0 W/m -1,6 C -1,0 C 3,2 km/h (1 Bft) 100,00 %
11.02.2016 22:50 -0,9 C 96 % 1007,3 hPa 0,0 l/m 1,7 km/h (1 Bft) NO 48 0 min 0,000 mm 0,0 UV-I 0 W/m -1,5 C -0,9 C 3,2 km/h (1 Bft) 100,00 %
11.02.2016 22:51 -0,9 C 96 % 1007,3 hPa 0,0 l/m 1,8 km/h (1 Bft) NO 48 0 min 0,000 mm 0,0 UV-I 0 W/m -1,5 C -0,9 C 3,2 km/h (1 Bft) 100,00 %
11.02.2016 22:52 -0,9 C 96 % 1007,3 hPa 0,0 l/m 1,1 km/h (1 Bft) NO 48 0 min 0,000 mm 0,0 UV-I 0 W/m -1,5 C -0,9 C 1,6 km/h (1 Bft) 100,00 %
11.02.2016 22:53 -0,9 C 95 % 1007,3 hPa 0,0 l/m 1,4 km/h (1 Bft) NO 48 0 min 0,000 mm 0,0 UV-I 0 W/m -1,6 C -0,9 C 1,6 km/h (1 Bft) 100,00 %
11.02.2016 22:54 -1,0 C 95 % 1007,3 hPa 0,0 l/m 1,6 km/h (1 Bft) NO 48 0 min 0,000 mm 0,0 UV-I 0 W/m -1,7 C -1,0 C 3,2 km/h (1 Bft) 96,15 %
11.02.2016 22:55 -1,1 C 95 % 1007,3 hPa 0,0 l/m 2,3 km/h (1 Bft) NO 48 0 min 0,000 mm 0,0 UV-I 0 W/m -1,8 C -1,1 C 3,2 km/h (1 Bft) 100,00 %
11.02.2016 22:56 -1,2 C 95 % 1007,3 hPa 0,0 l/m 1,9 km/h (1 Bft) NO 48 0 min 0,000 mm 0,0 UV-I 0 W/m -1,9 C -1,2 C 3,2 km/h (1 Bft) 100,00 %
11.02.2016 22:57 -1,2 C 95 % 1007,3 hPa 0,0 l/m 2,3 km/h (1 Bft) NO 48 0 min 0,000 mm 0,0 UV-I 0 W/m -1,9 C -1,2 C 3,2 km/h (1 Bft) 100,00 %
11.02.2016 22:58 -1,3 C 95 % 1007,3 hPa 0,0 l/m 3,5 km/h (1 Bft) NO 48 0 min 0,000 mm 0,0 UV-I 0 W/m -2,0 C -1,3 C 4,8 km/h (1 Bft) 100,00 %
11.02.2016 22:59 -1,3 C 95 % 1007,3 hPa 0,0 l/m 3,8 km/h (1 Bft) O-NO 65 0 min 0,000 mm 0,0 UV-I 0 W/m -2,0 C -1,3 C 4,8 km/h (1 Bft) 100,00 %
11.02.2016 23:00 -1,4 C 95 % 1007,3 hPa 0,0 l/m 3,9 km/h (1 Bft) O-NO 65 0 min 0,000 mm 0,0 UV-I 0 W/m -2,1 C -1,4 C 4,8 km/h (1 Bft) 100,00 %
11.02.2016 23:01 -1,4 C 95 % 1007,3 hPa 0,0 l/m 4,1 km/h (1 Bft) O-NO 65 0 min 0,000 mm 0,0 UV-I 0 W/m -2,1 C -1,4 C 4,8 km/h (1 Bft) 100,00 %
11.02.2016 23:02 -1,5 C 95 % 1007,3 hPa 0,0 l/m 1,4 km/h (1 Bft) O-NO 65 0 min 0,000 mm 0,0 UV-I 0 W/m -2,2 C -1,5 C 4,8 km/h (1 Bft) 100,00 %
11.02.2016 23:03 -1,5 C 95 % 1007,3 hPa 0,0 l/m 0,3 km/h (0 Bft) O-NO 65 0 min 0,000 mm 0,0 UV-I 0 W/m -2,2 C -1,5 C 1,6 km/h (1 Bft) 100,00 %
11.02.2016 23:04 -1,6 C 95 % 1007,3 hPa 0,0 l/m 1,0 km/h (0 Bft) O-NO 65 0 min 0,000 mm 0,0 UV-I 0 W/m -2,3 C -1,6 C 1,6 km/h (1 Bft) 100,00 %
11.02.2016 23:05 -1,6 C 95 % 1007,3 hPa 0,0 l/m 1,6 km/h (1 Bft) O-NO 65 0 min 0,000 mm 0,0 UV-I 0 W/m -2,3 C -1,6 C 3,2 km/h (1 Bft) 100,00 %
11.02.2016 23:06 -1,6 C 95 % 1007,3 hPa 0,0 l/m 1,2 km/h (1 Bft) O-NO 65 0 min 0,000 mm 0,0 UV-I 0 W/m -2,3 C -1,6 C 1,6 km/h (1 Bft) 100,00 %
11.02.2016 23:07 -1,6 C 95 % 1007,3 hPa 0,0 l/m 1,6 km/h (1 Bft) O-NO 65 0 min 0,000 mm 0,0 UV-I 0 W/m -2,3 C -1,6 C 3,2 km/h (1 Bft) 100,00 %
11.02.2016 23:08 -1,6 C 95 % 1007,2 hPa 0,0 l/m 1,4 km/h (1 Bft) O-NO 65 0 min 0,000 mm 0,0 UV-I 0 W/m -2,3 C -1,6 C 1,6 km/h (1 Bft) 100,00 %
11.02.2016 23:09 -1,7 C 95 % 1007,2 hPa 0,0 l/m 1,7 km/h (1 Bft) O-NO 65 0 min 0,000 mm 0,0 UV-I 0 W/m -2,4 C -1,7 C 3,2 km/h (1 Bft) 100,00 %
11.02.2016 23:10 -1,7 C 95 % 1007,3 hPa 0,0 l/m 2,1 km/h (1 Bft) O-NO 65 0 min 0,000 mm 0,0 UV-I 0 W/m -2,4 C -1,7 C 3,2 km/h (1 Bft) 100,00 %
11.02.2016 23:11 -1,7 C 95 % 1007,2 hPa 0,0 l/m 2,9 km/h (1 Bft) O-SO 106 0 min 0,000 mm 0,0 UV-I 0 W/m -2,4 C -1,7 C 3,2 km/h (1 Bft) 95,83 %
11.02.2016 23:12 -1,8 C 95 % 1007,3 hPa 0,0 l/m 3,4 km/h (1 Bft) O-SO 106 0 min 0,000 mm 0,0 UV-I 0 W/m -2,5 C -1,8 C 4,8 km/h (1 Bft) 100,00 %
11.02.2016 23:13 -1,8 C 95 % 1007,3 hPa 0,0 l/m 2,7 km/h (1 Bft) O-SO 106 0 min 0,000 mm 0,0 UV-I 0 W/m -2,5 C -1,8 C 3,2 km/h (1 Bft) 100,00 %
11.02.2016 23:14 -1,8 C 95 % 1007,3 hPa 0,0 l/m 2,6 km/h (1 Bft) O-SO 106 0 min 0,000 mm 0,0 UV-I 0 W/m -2,5 C -1,8 C 3,2 km/h (1 Bft) 100,00 %
11.02.2016 23:15 -1,8 C 95 % 1007,3 hPa 0,0 l/m 2,0 km/h (1 Bft) SO 128 0 min 0,000 mm 0,0 UV-I 0 W/m -2,5 C -1,8 C 3,2 km/h (1 Bft) 100,00 %
11.02.2016 23:16 -1,8 C 95 % 1007,3 hPa 0,0 l/m 2,4 km/h (1 Bft) SO 133 0 min 0,000 mm 0,0 UV-I 0 W/m -2,5 C -1,8 C 3,2 km/h (1 Bft) 100,00 %
11.02.2016 23:17 -1,8 C 95 % 1007,3 hPa 0,0 l/m 3,2 km/h (1 Bft) SO 133 0 min 0,000 mm 0,0 UV-I 0 W/m -2,5 C -1,8 C 4,8 km/h (1 Bft) 100,00 %
11.02.2016 23:18 -1,8 C 95 % 1007,2 hPa 0,0 l/m 1,6 km/h (1 Bft) SO 133 0 min 0,000 mm 0,0 UV-I 0 W/m -2,5 C -1,8 C 3,2 km/h (1 Bft) 100,00 %
11.02.2016 23:19 -1,8 C 95 % 1007,2 hPa 0,0 l/m 0,8 km/h (0 Bft) SO 133 0 min 0,000 mm 0,0 UV-I 0 W/m -2,5 C -1,8 C 1,6 km/h (1 Bft) 95,65 %
11.02.2016 23:20 -1,7 C 96 % 1007,2 hPa 0,0 l/m 0,4 km/h (0 Bft) SO 133 0 min 0,000 mm 0,0 UV-I 0 W/m -2,3 C -1,7 C 1,6 km/h (1 Bft) 100,00 %
11.02.2016 23:21 -1,7 C 96 % 1007,2 hPa 0,0 l/m 1,3 km/h (1 Bft) SO 133 0 min 0,000 mm 0,0 UV-I 0 W/m -2,3 C -1,7 C 3,2 km/h (1 Bft) 100,00 %
11.02.2016 23:22 -1,7 C 96 % 1007,2 hPa 0,0 l/m 0,8 km/h (0 Bft) SO 133 0 min 0,000 mm 0,0 UV-I 0 W/m -2,3 C -1,7 C 1,6 km/h (1 Bft) 100,00 %
11.02.2016 23:23 -1,6 C 96 % 1007,3 hPa 0,0 l/m 0,5 km/h (0 Bft) SO 133 0 min 0,000 mm 0,0 UV-I 0 W/m -2,2 C -1,6 C 1,6 km/h (1 Bft) 100,00 %
11.02.2016 23:24 -1,6 C 96 % 1007,2 hPa 0,0 l/m 0,5 km/h (0 Bft) SO 133 0 min 0,000 mm 0,0 UV-I 0 W/m -2,2 C -1,6 C 1,6 km/h (1 Bft) 95,83 %
11.02.2016 23:25 -1,5 C 96 % 1007,3 hPa 0,0 l/m 2,6 km/h (1 Bft) SO 133 0 min 0,000 mm 0,0 UV-I 0 W/m -2,1 C -1,5 C 3,2 km/h (1 Bft) 100,00 %
11.02.2016 23:26 -1,5 C 96 % 1007,3 hPa 0,0 l/m 2,2 km/h (1 Bft) SO 133 0 min 0,000 mm 0,0 UV-I 0 W/m -2,1 C -1,5 C 3,2 km/h (1 Bft) 100,00 %
11.02.2016 23:27 -1,5 C 96 % 1007,3 hPa 0,0 l/m 2,0 km/h (1 Bft) SO 133 0 min 0,000 mm 0,0 UV-I 0 W/m -2,1 C -1,5 C 3,2 km/h (1 Bft) 96,15 %
11.02.2016 23:28 -1,6 C 96 % 1007,3 hPa 0,0 l/m 1,9 km/h (1 Bft) SO 133 0 min 0,000 mm 0,0 UV-I 0 W/m -2,2 C -1,6 C 3,2 km/h (1 Bft) 100,00 %
11.02.2016 23:29 -1,6 C 96 % 1007,3 hPa 0,0 l/m 1,5 km/h (1 Bft) SO 133 0 min 0,000 mm 0,0 UV-I 0 W/m -2,2 C -1,6 C 3,2 km/h (1 Bft) 96,15 %
11.02.2016 23:30 -1,6 C 96 % 1007,3 hPa 0,0 l/m 1,0 km/h (0 Bft) SO 133 0 min 0,000 mm 0,0 UV-I 0 W/m -2,2 C -1,6 C 1,6 km/h (1 Bft) 95,83 %
11.02.2016 23:31 -1,7 C 96 % 1007,2 hPa 0,0 l/m 0,1 km/h (0 Bft) SO 133 0 min 0,000 mm 0,0 UV-I 0 W/m -2,3 C -1,7 C 1,6 km/h (1 Bft) 100,00 %
11.02.2016 23:32 -1,6 C 96 % 1007,3 hPa 0,0 l/m 0,0 km/h (0 Bft) SO 133 0 min 0,000 mm 0,0 UV-I 0 W/m -2,2 C -1,6 C 0,0 km/h (0 Bft) 95,83 %
11.02.2016 23:33 -1,6 C 96 % 1007,2 hPa 0,0 l/m 0,1 km/h (0 Bft) SO 133 0 min 0,000 mm 0,0 UV-I 0 W/m -2,2 C -1,6 C 1,6 km/h (1 Bft) 100,00 %
11.02.2016 23:34 -1,6 C 96 % 1007,2 hPa 0,0 l/m 0,0 km/h (0 Bft) SO 133 0 min 0,000 mm 0,0 UV-I 0 W/m -2,2 C -1,6 C 0,0 km/h (0 Bft) 95,83 %
11.02.2016 23:35 -1,6 C 96 % 1007,2 hPa 0,0 l/m 0,0 km/h (0 Bft) SO 133 0 min 0,000 mm 0,0 UV-I 0 W/m -2,2 C -1,6 C 0,0 km/h (0 Bft) 95,65 %
11.02.2016 23:36 -1,6 C 96 % 1007,2 hPa 0,0 l/m 0,0 km/h (0 Bft) SO 133 0 min 0,000 mm 0,0 UV-I 0 W/m -2,2 C -1,6 C 0,0 km/h (0 Bft) 100,00 %
11.02.2016 23:37 -1,6 C 96 % 1007,3 hPa 0,0 l/m 0,0 km/h (0 Bft) SO 133 0 min 0,000 mm 0,0 UV-I 0 W/m -2,2 C -1,6 C 0,0 km/h (0 Bft) 100,00 %
11.02.2016 23:38 -1,6 C 96 % 1007,3 hPa 0,0 l/m 0,0 km/h (0 Bft) SO 133 0 min 0,000 mm 0,0 UV-I 0 W/m -2,2 C -1,6 C 0,0 km/h (0 Bft) 96,15 %
11.02.2016 23:39 -1,6 C 96 % 1007,3 hPa 0,0 l/m 0,0 km/h (0 Bft) SO 133 0 min 0,000 mm 0,0 UV-I 0 W/m -2,2 C -1,6 C 0,0 km/h (0 Bft) 91,67 %
11.02.2016 23:40 -1,6 C 96 % 1007,3 hPa 0,0 l/m 1,7 km/h (1 Bft) SO 133 0 min 0,000 mm 0,0 UV-I 0 W/m -2,2 C -1,6 C 3,2 km/h (1 Bft) 100,00 %
11.02.2016 23:41 -1,6 C 96 % 1007,2 hPa 0,0 l/m 1,4 km/h (1 Bft) SO 133 0 min 0,000 mm 0,0 UV-I 0 W/m -2,2 C -1,6 C 3,2 km/h (1 Bft) 96,30 %
11.02.2016 23:42 -1,7 C 95 % 1007,3 hPa 0,0 l/m 1,7 km/h (1 Bft) SO 133 0 min 0,000 mm 0,0 UV-I 0 W/m -2,4 C -1,7 C 3,2 km/h (1 Bft) 100,00 %
11.02.2016 23:43 -1,6 C 95 % 1007,3 hPa 0,0 l/m 2,2 km/h (1 Bft) SO 133 0 min 0,000 mm 0,0 UV-I 0 W/m -2,3 C -1,6 C 3,2 km/h (1 Bft) 96,67 %
11.02.2016 23:44 -1,7 C 95 % 1007,3 hPa 0,0 l/m 2,4 km/h (1 Bft) SO 133 0 min 0,000 mm 0,0 UV-I 0 W/m -2,4 C -1,7 C 3,2 km/h (1 Bft) 96,15 %
11.02.2016 23:45 -1,7 C 96 % 1007,3 hPa 0,0 l/m 2,5 km/h (1 Bft) SO 133 0 min 0,000 mm 0,0 UV-I 0 W/m -2,3 C -1,7 C 3,2 km/h (1 Bft) 100,00 %
11.02.2016 23:46 -1,7 C 96 % 1007,3 hPa 0,0 l/m 1,9 km/h (1 Bft) SO 133 0 min 0,000 mm 0,0 UV-I 0 W/m -2,3 C -1,7 C 3,2 km/h (1 Bft) 96,55 %
11.02.2016 23:47 -1,7 C 96 % 1007,2 hPa 0,0 l/m 1,7 km/h (1 Bft) SO 133 0 min 0,000 mm 0,0 UV-I 0 W/m -2,3 C -1,7 C 3,2 km/h (1 Bft) 100,00 %
11.02.2016 23:48 -1,7 C 96 % 1007,2 hPa 0,0 l/m 1,3 km/h (1 Bft) SO 133 0 min 0,000 mm 0,0 UV-I 0 W/m -2,3 C -1,7 C 1,6 km/h (1 Bft) 95,65 %
11.02.2016 23:49 -1,7 C 96 % 1007,2 hPa 0,0 l/m 1,6 km/h (1 Bft) SO 133 0 min 0,000 mm 0,0 UV-I 0 W/m -2,3 C -1,7 C 1,6 km/h (1 Bft) 100,00 %
11.02.2016 23:50 -1,7 C 95 % 1007,3 hPa 0,0 l/m 1,7 km/h (1 Bft) SO 133 0 min 0,000 mm 0,0 UV-I 0 W/m -2,4 C -1,7 C 3,2 km/h (1 Bft) 95,65 %
11.02.2016 23:51 -1,7 C 95 % 1007,2 hPa 0,0 l/m 1,9 km/h (1 Bft) SO 133 0 min 0,000 mm 0,0 UV-I 0 W/m -2,4 C -1,7 C 3,2 km/h (1 Bft) 100,00 %
11.02.2016 23:52 -1,7 C 95 % 1007,2 hPa 0,0 l/m 1,5 km/h (1 Bft) SO 133 0 min 0,000 mm 0,0 UV-I 0 W/m -2,4 C -1,7 C 3,2 km/h (1 Bft) 96,15 %
11.02.2016 23:53 -1,7 C 95 % 1007,3 hPa 0,0 l/m 1,9 km/h (1 Bft) SO 133 0 min 0,000 mm 0,0 UV-I 0 W/m -2,4 C -1,7 C 3,2 km/h (1 Bft) 95,83 %
11.02.2016 23:54 -1,7 C 96 % 1007,3 hPa 0,0 l/m 2,1 km/h (1 Bft) SO 133 0 min 0,000 mm 0,0 UV-I 0 W/m -2,3 C -1,7 C 3,2 km/h (1 Bft) 100,00 %
11.02.2016 23:55 -1,7 C 96 % 1007,2 hPa 0,0 l/m 2,4 km/h (1 Bft) SO 133 0 min 0,000 mm 0,0 UV-I 0 W/m -2,3 C -1,7 C 3,2 km/h (1 Bft) 91,67 %
11.02.2016 23:56 -1,7 C 96 % 1007,2 hPa 0,0 l/m 2,5 km/h (1 Bft) SO 133 0 min 0,000 mm 0,0 UV-I 0 W/m -2,3 C -1,7 C 3,2 km/h (1 Bft) 100,00 %
11.02.2016 23:57 -1,7 C 95 % 1007,2 hPa 0,0 l/m 2,4 km/h (1 Bft) SO 133 0 min 0,000 mm 0,0 UV-I 0 W/m -2,4 C -1,7 C 3,2 km/h (1 Bft) 88,89 %
11.02.2016 23:58 -1,7 C 95 % 1007,2 hPa 0,0 l/m 2,5 km/h (1 Bft) SO 133 0 min 0,000 mm 0,0 UV-I 0 W/m -2,4 C -1,7 C 3,2 km/h (1 Bft) 100,00 %
11.02.2016 23:59 -1,7 C 95 % 1007,2 hPa 0,0 l/m 2,2 km/h (1 Bft) SO 133 0 min 0,000 mm 0,0 UV-I 0 W/m -2,4 C -1,7 C 3,2 km/h (1 Bft) 96,15 %
_ Min-Zeit 23:12 02:24 00:08 - 15:57 - - - - - - 23:12 05:45 15:57 04:51
Minimum _ -1,8 C 70 % 1002,2 hPa - 0,0 km/h (0 Bft) - - - - - - -2,5 C -10,7 C 0,0 km/h (0 Bft) 85,71 %
_ Max-Zeit 15:51 22:30 11:25 08:00 01:32 - - 15:10 15:01 11:46 14:23 15:51 15:51 02:38 00:00
Maximum _ 5,3 C 96 % 1008,5 hPa 0,2 l/m 31,4 km/h
W-SW (5 Bft)
- - 3 min 0,101 mm 0,8 UV-I 534 W/m 2,3 C 5,3 C 48,3 km/h
W (6 Bft)
100,00 %
Durchschnitt _ 1,9 C 86 % 1006,5 hPa #0,2 l/m 13,0 km/h (3 Bft) W-SW - #1:41 h #0,813 mm 0,6 UV-I 116 W/m -0,3 C -3,5 C 18,5 km/h (3 Bft) 98,24 %